<?xml version="1.0" encoding="UTF-8" standalone="no" ?>
<gpx xmlns="http://www.topografix.com/GPX/1/1" xmlns:xsi="http://www.w3.org/2001/XMLSchema-instance" xsi:schemaLocation="http://www.topografix.com/GPX/1/1 http://www.topografix.com/GPX/1/1/gpx.xsd" version="1.1" creator="VisuGPX - https://www.visugpx.com">
  <metadata>
    <name>2013 08 25 - VTT Corronsac</name>
    <desc><![CDATA[2013 08 25 - VTT Corronsac]]></desc>
  </metadata>
  <trk>
    <name><![CDATA[Tracé actuel: 25 AOU 2013 15:47]]></name>
    <desc><![CDATA[Total: 24.7km]]></desc>
    <trkseg>
      <trkpt lat="43.4734" lon="1.49508">
        <ele>237</ele>
        <time>2013-08-25T13:47:22Z</time>
      </trkpt>
      <trkpt lat="43.47339" lon="1.49507">
        <ele>237</ele>
        <time>2013-08-25T13:47:35Z</time>
      </trkpt>
      <trkpt lat="43.4734" lon="1.49506">
        <ele>237</ele>
        <time>2013-08-25T13:47:47Z</time>
      </trkpt>
      <trkpt lat="43.47341" lon="1.49503">
        <ele>237</ele>
        <time>2013-08-25T13:47:49Z</time>
      </trkpt>
      <trkpt lat="43.47342" lon="1.49501">
        <ele>237</ele>
        <time>2013-08-25T13:47:50Z</time>
      </trkpt>
      <trkpt lat="43.47342" lon="1.49499">
        <ele>237</ele>
        <time>2013-08-25T13:47:51Z</time>
      </trkpt>
      <trkpt lat="43.47338" lon="1.49487">
        <ele>236</ele>
        <time>2013-08-25T13:47:57Z</time>
      </trkpt>
      <trkpt lat="43.47331" lon="1.49467">
        <ele>231</ele>
        <time>2013-08-25T13:48:04Z</time>
      </trkpt>
      <trkpt lat="43.47326" lon="1.49441">
        <ele>230</ele>
        <time>2013-08-25T13:48:10Z</time>
      </trkpt>
      <trkpt lat="43.47326" lon="1.49435">
        <ele>230</ele>
        <time>2013-08-25T13:48:11Z</time>
      </trkpt>
      <trkpt lat="43.47326" lon="1.49429">
        <ele>231</ele>
        <time>2013-08-25T13:48:12Z</time>
      </trkpt>
      <trkpt lat="43.47327" lon="1.49422">
        <ele>232</ele>
        <time>2013-08-25T13:48:13Z</time>
      </trkpt>
      <trkpt lat="43.47338" lon="1.49383">
        <ele>231</ele>
        <time>2013-08-25T13:48:20Z</time>
      </trkpt>
      <trkpt lat="43.47342" lon="1.49371">
        <ele>230</ele>
        <time>2013-08-25T13:48:22Z</time>
      </trkpt>
      <trkpt lat="43.47343" lon="1.49341">
        <ele>228</ele>
        <time>2013-08-25T13:48:27Z</time>
      </trkpt>
      <trkpt lat="43.47331" lon="1.49288">
        <ele>218</ele>
        <time>2013-08-25T13:48:35Z</time>
      </trkpt>
      <trkpt lat="43.47306" lon="1.49233">
        <ele>212</ele>
        <time>2013-08-25T13:48:43Z</time>
      </trkpt>
      <trkpt lat="43.47287" lon="1.49194">
        <ele>210</ele>
        <time>2013-08-25T13:48:49Z</time>
      </trkpt>
      <trkpt lat="43.47261" lon="1.4914">
        <ele>207</ele>
        <time>2013-08-25T13:48:57Z</time>
      </trkpt>
      <trkpt lat="43.47249" lon="1.49115">
        <ele>205</ele>
        <time>2013-08-25T13:49:02Z</time>
      </trkpt>
      <trkpt lat="43.47246" lon="1.49112">
        <ele>205</ele>
        <time>2013-08-25T13:49:04Z</time>
      </trkpt>
      <trkpt lat="43.47246" lon="1.49111">
        <ele>205</ele>
        <time>2013-08-25T13:49:09Z</time>
      </trkpt>
      <trkpt lat="43.47245" lon="1.49111">
        <ele>205</ele>
        <time>2013-08-25T13:49:26Z</time>
      </trkpt>
      <trkpt lat="43.47245" lon="1.4911">
        <ele>205</ele>
        <time>2013-08-25T13:49:41Z</time>
      </trkpt>
      <trkpt lat="43.47245" lon="1.4911">
        <ele>205</ele>
        <time>2013-08-25T13:49:58Z</time>
      </trkpt>
      <trkpt lat="43.47246" lon="1.4911">
        <ele>205</ele>
        <time>2013-08-25T13:50:10Z</time>
      </trkpt>
      <trkpt lat="43.47246" lon="1.4911">
        <ele>205</ele>
        <time>2013-08-25T13:50:26Z</time>
      </trkpt>
      <trkpt lat="43.47246" lon="1.4911">
        <ele>205</ele>
        <time>2013-08-25T13:50:39Z</time>
      </trkpt>
      <trkpt lat="43.47242" lon="1.49108">
        <ele>205</ele>
        <time>2013-08-25T13:50:44Z</time>
      </trkpt>
      <trkpt lat="43.47241" lon="1.49107">
        <ele>205</ele>
        <time>2013-08-25T13:50:45Z</time>
      </trkpt>
      <trkpt lat="43.47239" lon="1.49106">
        <ele>205</ele>
        <time>2013-08-25T13:50:47Z</time>
      </trkpt>
      <trkpt lat="43.47236" lon="1.49104">
        <ele>205</ele>
        <time>2013-08-25T13:50:50Z</time>
      </trkpt>
      <trkpt lat="43.47235" lon="1.49102">
        <ele>205</ele>
        <time>2013-08-25T13:50:51Z</time>
      </trkpt>
      <trkpt lat="43.47234" lon="1.491">
        <ele>205</ele>
        <time>2013-08-25T13:50:52Z</time>
      </trkpt>
      <trkpt lat="43.47232" lon="1.4908">
        <ele>205</ele>
        <time>2013-08-25T13:50:57Z</time>
      </trkpt>
      <trkpt lat="43.47234" lon="1.49051">
        <ele>205</ele>
        <time>2013-08-25T13:51:03Z</time>
      </trkpt>
      <trkpt lat="43.47238" lon="1.49004">
        <ele>203</ele>
        <time>2013-08-25T13:51:12Z</time>
      </trkpt>
      <trkpt lat="43.47239" lon="1.48952">
        <ele>204</ele>
        <time>2013-08-25T13:51:21Z</time>
      </trkpt>
      <trkpt lat="43.47239" lon="1.48884">
        <ele>204</ele>
        <time>2013-08-25T13:51:32Z</time>
      </trkpt>
      <trkpt lat="43.4724" lon="1.48839">
        <ele>203</ele>
        <time>2013-08-25T13:51:39Z</time>
      </trkpt>
      <trkpt lat="43.47241" lon="1.48801">
        <ele>202</ele>
        <time>2013-08-25T13:51:45Z</time>
      </trkpt>
      <trkpt lat="43.47241" lon="1.48794">
        <ele>202</ele>
        <time>2013-08-25T13:51:46Z</time>
      </trkpt>
      <trkpt lat="43.47248" lon="1.48742">
        <ele>199</ele>
        <time>2013-08-25T13:51:54Z</time>
      </trkpt>
      <trkpt lat="43.47253" lon="1.48704">
        <ele>200</ele>
        <time>2013-08-25T13:52:00Z</time>
      </trkpt>
      <trkpt lat="43.47255" lon="1.48699">
        <ele>200</ele>
        <time>2013-08-25T13:52:01Z</time>
      </trkpt>
      <trkpt lat="43.47256" lon="1.48693">
        <ele>200</ele>
        <time>2013-08-25T13:52:02Z</time>
      </trkpt>
      <trkpt lat="43.47257" lon="1.48686">
        <ele>200</ele>
        <time>2013-08-25T13:52:03Z</time>
      </trkpt>
      <trkpt lat="43.47258" lon="1.4868">
        <ele>199</ele>
        <time>2013-08-25T13:52:04Z</time>
      </trkpt>
      <trkpt lat="43.4726" lon="1.48674">
        <ele>199</ele>
        <time>2013-08-25T13:52:05Z</time>
      </trkpt>
      <trkpt lat="43.4727" lon="1.48617">
        <ele>198</ele>
        <time>2013-08-25T13:52:14Z</time>
      </trkpt>
      <trkpt lat="43.47285" lon="1.48558">
        <ele>198</ele>
        <time>2013-08-25T13:52:23Z</time>
      </trkpt>
      <trkpt lat="43.47302" lon="1.485">
        <ele>198</ele>
        <time>2013-08-25T13:52:32Z</time>
      </trkpt>
      <trkpt lat="43.47309" lon="1.48475">
        <ele>198</ele>
        <time>2013-08-25T13:52:36Z</time>
      </trkpt>
      <trkpt lat="43.47324" lon="1.48414">
        <ele>196</ele>
        <time>2013-08-25T13:52:45Z</time>
      </trkpt>
      <trkpt lat="43.47328" lon="1.48386">
        <ele>197</ele>
        <time>2013-08-25T13:52:49Z</time>
      </trkpt>
      <trkpt lat="43.47333" lon="1.48322">
        <ele>197</ele>
        <time>2013-08-25T13:52:58Z</time>
      </trkpt>
      <trkpt lat="43.47335" lon="1.48265">
        <ele>198</ele>
        <time>2013-08-25T13:53:06Z</time>
      </trkpt>
      <trkpt lat="43.47338" lon="1.48208">
        <ele>198</ele>
        <time>2013-08-25T13:53:14Z</time>
      </trkpt>
      <trkpt lat="43.47345" lon="1.48149">
        <ele>197</ele>
        <time>2013-08-25T13:53:23Z</time>
      </trkpt>
      <trkpt lat="43.47351" lon="1.48109">
        <ele>197</ele>
        <time>2013-08-25T13:53:29Z</time>
      </trkpt>
      <trkpt lat="43.47358" lon="1.48066">
        <ele>196</ele>
        <time>2013-08-25T13:53:36Z</time>
      </trkpt>
      <trkpt lat="43.47359" lon="1.4806">
        <ele>195</ele>
        <time>2013-08-25T13:53:37Z</time>
      </trkpt>
      <trkpt lat="43.47359" lon="1.48053">
        <ele>195</ele>
        <time>2013-08-25T13:53:38Z</time>
      </trkpt>
      <trkpt lat="43.47358" lon="1.48047">
        <ele>195</ele>
        <time>2013-08-25T13:53:39Z</time>
      </trkpt>
      <trkpt lat="43.47356" lon="1.48041">
        <ele>195</ele>
        <time>2013-08-25T13:53:40Z</time>
      </trkpt>
      <trkpt lat="43.47352" lon="1.48037">
        <ele>195</ele>
        <time>2013-08-25T13:53:41Z</time>
      </trkpt>
      <trkpt lat="43.47349" lon="1.48034">
        <ele>195</ele>
        <time>2013-08-25T13:53:42Z</time>
      </trkpt>
      <trkpt lat="43.47345" lon="1.48031">
        <ele>195</ele>
        <time>2013-08-25T13:53:43Z</time>
      </trkpt>
      <trkpt lat="43.47328" lon="1.48015">
        <ele>195</ele>
        <time>2013-08-25T13:53:49Z</time>
      </trkpt>
      <trkpt lat="43.47311" lon="1.48002">
        <ele>195</ele>
        <time>2013-08-25T13:53:56Z</time>
      </trkpt>
      <trkpt lat="43.47308" lon="1.48">
        <ele>194</ele>
        <time>2013-08-25T13:53:57Z</time>
      </trkpt>
      <trkpt lat="43.47304" lon="1.47996">
        <ele>194</ele>
        <time>2013-08-25T13:53:58Z</time>
      </trkpt>
      <trkpt lat="43.47296" lon="1.47989">
        <ele>194</ele>
        <time>2013-08-25T13:54:00Z</time>
      </trkpt>
      <trkpt lat="43.47275" lon="1.47973">
        <ele>195</ele>
        <time>2013-08-25T13:54:04Z</time>
      </trkpt>
      <trkpt lat="43.47247" lon="1.47947">
        <ele>198</ele>
        <time>2013-08-25T13:54:10Z</time>
      </trkpt>
      <trkpt lat="43.47229" lon="1.47933">
        <ele>198</ele>
        <time>2013-08-25T13:54:17Z</time>
      </trkpt>
      <trkpt lat="43.47213" lon="1.47924">
        <ele>199</ele>
        <time>2013-08-25T13:54:25Z</time>
      </trkpt>
      <trkpt lat="43.47202" lon="1.47918">
        <ele>199</ele>
        <time>2013-08-25T13:54:32Z</time>
      </trkpt>
      <trkpt lat="43.47188" lon="1.47913">
        <ele>202</ele>
        <time>2013-08-25T13:54:40Z</time>
      </trkpt>
      <trkpt lat="43.47172" lon="1.47905">
        <ele>203</ele>
        <time>2013-08-25T13:54:48Z</time>
      </trkpt>
      <trkpt lat="43.47158" lon="1.47892">
        <ele>207</ele>
        <time>2013-08-25T13:54:57Z</time>
      </trkpt>
      <trkpt lat="43.47142" lon="1.47878">
        <ele>209</ele>
        <time>2013-08-25T13:55:06Z</time>
      </trkpt>
      <trkpt lat="43.4714" lon="1.47877">
        <ele>209</ele>
        <time>2013-08-25T13:55:07Z</time>
      </trkpt>
      <trkpt lat="43.47122" lon="1.47861">
        <ele>211</ele>
        <time>2013-08-25T13:55:16Z</time>
      </trkpt>
      <trkpt lat="43.47105" lon="1.47849">
        <ele>213</ele>
        <time>2013-08-25T13:55:24Z</time>
      </trkpt>
      <trkpt lat="43.47089" lon="1.47839">
        <ele>217</ele>
        <time>2013-08-25T13:55:32Z</time>
      </trkpt>
      <trkpt lat="43.47071" lon="1.4783">
        <ele>221</ele>
        <time>2013-08-25T13:55:41Z</time>
      </trkpt>
      <trkpt lat="43.47069" lon="1.47831">
        <ele>222</ele>
        <time>2013-08-25T13:55:42Z</time>
      </trkpt>
      <trkpt lat="43.47067" lon="1.47831">
        <ele>222</ele>
        <time>2013-08-25T13:55:43Z</time>
      </trkpt>
      <trkpt lat="43.47049" lon="1.47833">
        <ele>219</ele>
        <time>2013-08-25T13:55:51Z</time>
      </trkpt>
      <trkpt lat="43.47032" lon="1.47839">
        <ele>220</ele>
        <time>2013-08-25T13:56:00Z</time>
      </trkpt>
      <trkpt lat="43.47018" lon="1.4784">
        <ele>221</ele>
        <time>2013-08-25T13:56:07Z</time>
      </trkpt>
      <trkpt lat="43.47005" lon="1.47836">
        <ele>223</ele>
        <time>2013-08-25T13:56:14Z</time>
      </trkpt>
      <trkpt lat="43.46995" lon="1.47825">
        <ele>227</ele>
        <time>2013-08-25T13:56:22Z</time>
      </trkpt>
      <trkpt lat="43.46986" lon="1.47811">
        <ele>229</ele>
        <time>2013-08-25T13:56:30Z</time>
      </trkpt>
      <trkpt lat="43.46974" lon="1.47799">
        <ele>231</ele>
        <time>2013-08-25T13:56:37Z</time>
      </trkpt>
      <trkpt lat="43.46959" lon="1.47783">
        <ele>232</ele>
        <time>2013-08-25T13:56:46Z</time>
      </trkpt>
      <trkpt lat="43.46949" lon="1.47768">
        <ele>233</ele>
        <time>2013-08-25T13:56:55Z</time>
      </trkpt>
      <trkpt lat="43.46937" lon="1.47756">
        <ele>235</ele>
        <time>2013-08-25T13:57:04Z</time>
      </trkpt>
      <trkpt lat="43.46926" lon="1.47749">
        <ele>239</ele>
        <time>2013-08-25T13:57:11Z</time>
      </trkpt>
      <trkpt lat="43.46916" lon="1.4774">
        <ele>240</ele>
        <time>2013-08-25T13:57:19Z</time>
      </trkpt>
      <trkpt lat="43.4691" lon="1.47738">
        <ele>240</ele>
        <time>2013-08-25T13:57:25Z</time>
      </trkpt>
      <trkpt lat="43.46908" lon="1.47737">
        <ele>241</ele>
        <time>2013-08-25T13:57:38Z</time>
      </trkpt>
      <trkpt lat="43.46907" lon="1.47738">
        <ele>241</ele>
        <time>2013-08-25T13:57:42Z</time>
      </trkpt>
      <trkpt lat="43.46906" lon="1.47739">
        <ele>241</ele>
        <time>2013-08-25T13:57:43Z</time>
      </trkpt>
      <trkpt lat="43.46904" lon="1.4774">
        <ele>241</ele>
        <time>2013-08-25T13:57:44Z</time>
      </trkpt>
      <trkpt lat="43.46899" lon="1.47744">
        <ele>241</ele>
        <time>2013-08-25T13:57:47Z</time>
      </trkpt>
      <trkpt lat="43.46888" lon="1.47758">
        <ele>240</ele>
        <time>2013-08-25T13:57:55Z</time>
      </trkpt>
      <trkpt lat="43.46869" lon="1.47777">
        <ele>240</ele>
        <time>2013-08-25T13:58:05Z</time>
      </trkpt>
      <trkpt lat="43.46852" lon="1.47795">
        <ele>240</ele>
        <time>2013-08-25T13:58:15Z</time>
      </trkpt>
      <trkpt lat="43.46849" lon="1.47797">
        <ele>240</ele>
        <time>2013-08-25T13:58:21Z</time>
      </trkpt>
      <trkpt lat="43.46854" lon="1.47793">
        <ele>240</ele>
        <time>2013-08-25T13:58:25Z</time>
      </trkpt>
      <trkpt lat="43.46874" lon="1.47773">
        <ele>240</ele>
        <time>2013-08-25T13:58:34Z</time>
      </trkpt>
      <trkpt lat="43.46902" lon="1.47745">
        <ele>241</ele>
        <time>2013-08-25T13:58:44Z</time>
      </trkpt>
      <trkpt lat="43.46909" lon="1.47738">
        <ele>241</ele>
        <time>2013-08-25T13:58:49Z</time>
      </trkpt>
      <trkpt lat="43.46909" lon="1.47737">
        <ele>241</ele>
        <time>2013-08-25T13:58:57Z</time>
      </trkpt>
      <trkpt lat="43.46909" lon="1.47737">
        <ele>241</ele>
        <time>2013-08-25T13:59:09Z</time>
      </trkpt>
      <trkpt lat="43.46909" lon="1.47736">
        <ele>241</ele>
        <time>2013-08-25T13:59:24Z</time>
      </trkpt>
      <trkpt lat="43.46909" lon="1.47736">
        <ele>241</ele>
        <time>2013-08-25T13:59:36Z</time>
      </trkpt>
      <trkpt lat="43.46908" lon="1.47736">
        <ele>241</ele>
        <time>2013-08-25T13:59:51Z</time>
      </trkpt>
      <trkpt lat="43.46908" lon="1.47735">
        <ele>241</ele>
        <time>2013-08-25T14:00:08Z</time>
      </trkpt>
      <trkpt lat="43.46908" lon="1.47735">
        <ele>241</ele>
        <time>2013-08-25T14:00:19Z</time>
      </trkpt>
      <trkpt lat="43.46908" lon="1.47735">
        <ele>241</ele>
        <time>2013-08-25T14:00:32Z</time>
      </trkpt>
      <trkpt lat="43.46908" lon="1.47734">
        <ele>241</ele>
        <time>2013-08-25T14:00:42Z</time>
      </trkpt>
      <trkpt lat="43.46909" lon="1.47736">
        <ele>241</ele>
        <time>2013-08-25T14:00:44Z</time>
      </trkpt>
      <trkpt lat="43.46908" lon="1.47739">
        <ele>241</ele>
        <time>2013-08-25T14:00:49Z</time>
      </trkpt>
      <trkpt lat="43.46907" lon="1.47738">
        <ele>241</ele>
        <time>2013-08-25T14:00:50Z</time>
      </trkpt>
      <trkpt lat="43.46905" lon="1.47736">
        <ele>241</ele>
        <time>2013-08-25T14:00:53Z</time>
      </trkpt>
      <trkpt lat="43.46904" lon="1.47731">
        <ele>241</ele>
        <time>2013-08-25T14:00:56Z</time>
      </trkpt>
      <trkpt lat="43.46895" lon="1.47723">
        <ele>241</ele>
        <time>2013-08-25T14:01:03Z</time>
      </trkpt>
      <trkpt lat="43.46883" lon="1.47714">
        <ele>241</ele>
        <time>2013-08-25T14:01:11Z</time>
      </trkpt>
      <trkpt lat="43.46868" lon="1.47699">
        <ele>241</ele>
        <time>2013-08-25T14:01:19Z</time>
      </trkpt>
      <trkpt lat="43.46845" lon="1.47674">
        <ele>240</ele>
        <time>2013-08-25T14:01:25Z</time>
      </trkpt>
      <trkpt lat="43.46805" lon="1.47633">
        <ele>240</ele>
        <time>2013-08-25T14:01:33Z</time>
      </trkpt>
      <trkpt lat="43.46785" lon="1.4761">
        <ele>240</ele>
        <time>2013-08-25T14:01:39Z</time>
      </trkpt>
      <trkpt lat="43.46769" lon="1.47592">
        <ele>241</ele>
        <time>2013-08-25T14:01:47Z</time>
      </trkpt>
      <trkpt lat="43.46758" lon="1.47576">
        <ele>241</ele>
        <time>2013-08-25T14:01:54Z</time>
      </trkpt>
      <trkpt lat="43.46753" lon="1.47567">
        <ele>241</ele>
        <time>2013-08-25T14:02:00Z</time>
      </trkpt>
      <trkpt lat="43.46744" lon="1.47554">
        <ele>245</ele>
        <time>2013-08-25T14:02:08Z</time>
      </trkpt>
      <trkpt lat="43.46737" lon="1.47546">
        <ele>245</ele>
        <time>2013-08-25T14:02:14Z</time>
      </trkpt>
      <trkpt lat="43.4673" lon="1.47536">
        <ele>246</ele>
        <time>2013-08-25T14:02:21Z</time>
      </trkpt>
      <trkpt lat="43.46727" lon="1.47529">
        <ele>246</ele>
        <time>2013-08-25T14:02:27Z</time>
      </trkpt>
      <trkpt lat="43.46718" lon="1.47515">
        <ele>246</ele>
        <time>2013-08-25T14:02:34Z</time>
      </trkpt>
      <trkpt lat="43.46706" lon="1.47499">
        <ele>248</ele>
        <time>2013-08-25T14:02:42Z</time>
      </trkpt>
      <trkpt lat="43.46696" lon="1.47487">
        <ele>249</ele>
        <time>2013-08-25T14:02:50Z</time>
      </trkpt>
      <trkpt lat="43.46684" lon="1.47474">
        <ele>250</ele>
        <time>2013-08-25T14:02:59Z</time>
      </trkpt>
      <trkpt lat="43.46674" lon="1.47462">
        <ele>250</ele>
        <time>2013-08-25T14:03:08Z</time>
      </trkpt>
      <trkpt lat="43.4666" lon="1.47445">
        <ele>253</ele>
        <time>2013-08-25T14:03:19Z</time>
      </trkpt>
      <trkpt lat="43.46647" lon="1.47429">
        <ele>253</ele>
        <time>2013-08-25T14:03:30Z</time>
      </trkpt>
      <trkpt lat="43.46639" lon="1.47418">
        <ele>254</ele>
        <time>2013-08-25T14:03:38Z</time>
      </trkpt>
      <trkpt lat="43.46639" lon="1.47418">
        <ele>254</ele>
        <time>2013-08-25T14:03:48Z</time>
      </trkpt>
      <trkpt lat="43.46639" lon="1.47418">
        <ele>254</ele>
        <time>2013-08-25T14:04:00Z</time>
      </trkpt>
      <trkpt lat="43.46638" lon="1.47415">
        <ele>255</ele>
        <time>2013-08-25T14:04:07Z</time>
      </trkpt>
      <trkpt lat="43.4663" lon="1.47403">
        <ele>255</ele>
        <time>2013-08-25T14:04:14Z</time>
      </trkpt>
      <trkpt lat="43.46622" lon="1.47388">
        <ele>256</ele>
        <time>2013-08-25T14:04:21Z</time>
      </trkpt>
      <trkpt lat="43.46612" lon="1.47372">
        <ele>256</ele>
        <time>2013-08-25T14:04:28Z</time>
      </trkpt>
      <trkpt lat="43.46601" lon="1.47358">
        <ele>257</ele>
        <time>2013-08-25T14:04:37Z</time>
      </trkpt>
      <trkpt lat="43.46593" lon="1.47345">
        <ele>259</ele>
        <time>2013-08-25T14:04:46Z</time>
      </trkpt>
      <trkpt lat="43.46584" lon="1.47332">
        <ele>261</ele>
        <time>2013-08-25T14:04:55Z</time>
      </trkpt>
      <trkpt lat="43.46583" lon="1.4733">
        <ele>261</ele>
        <time>2013-08-25T14:04:56Z</time>
      </trkpt>
      <trkpt lat="43.46575" lon="1.47321">
        <ele>262</ele>
        <time>2013-08-25T14:05:03Z</time>
      </trkpt>
      <trkpt lat="43.46565" lon="1.47308">
        <ele>263</ele>
        <time>2013-08-25T14:05:12Z</time>
      </trkpt>
      <trkpt lat="43.46551" lon="1.47294">
        <ele>264</ele>
        <time>2013-08-25T14:05:21Z</time>
      </trkpt>
      <trkpt lat="43.46535" lon="1.4728">
        <ele>264</ele>
        <time>2013-08-25T14:05:32Z</time>
      </trkpt>
      <trkpt lat="43.4652" lon="1.4726">
        <ele>265</ele>
        <time>2013-08-25T14:05:39Z</time>
      </trkpt>
      <trkpt lat="43.46493" lon="1.47226">
        <ele>264</ele>
        <time>2013-08-25T14:05:46Z</time>
      </trkpt>
      <trkpt lat="43.46471" lon="1.4718">
        <ele>263</ele>
        <time>2013-08-25T14:05:53Z</time>
      </trkpt>
      <trkpt lat="43.46464" lon="1.47164">
        <ele>263</ele>
        <time>2013-08-25T14:05:56Z</time>
      </trkpt>
      <trkpt lat="43.46452" lon="1.47134">
        <ele>262</ele>
        <time>2013-08-25T14:06:03Z</time>
      </trkpt>
      <trkpt lat="43.46438" lon="1.47103">
        <ele>262</ele>
        <time>2013-08-25T14:06:12Z</time>
      </trkpt>
      <trkpt lat="43.46422" lon="1.47072">
        <ele>261</ele>
        <time>2013-08-25T14:06:22Z</time>
      </trkpt>
      <trkpt lat="43.46415" lon="1.47058">
        <ele>261</ele>
        <time>2013-08-25T14:06:29Z</time>
      </trkpt>
      <trkpt lat="43.46413" lon="1.47057">
        <ele>261</ele>
        <time>2013-08-25T14:06:30Z</time>
      </trkpt>
      <trkpt lat="43.46412" lon="1.47057">
        <ele>261</ele>
        <time>2013-08-25T14:06:31Z</time>
      </trkpt>
      <trkpt lat="43.4641" lon="1.47058">
        <ele>261</ele>
        <time>2013-08-25T14:06:32Z</time>
      </trkpt>
      <trkpt lat="43.46409" lon="1.47058">
        <ele>261</ele>
        <time>2013-08-25T14:06:33Z</time>
      </trkpt>
      <trkpt lat="43.46408" lon="1.47058">
        <ele>261</ele>
        <time>2013-08-25T14:06:34Z</time>
      </trkpt>
      <trkpt lat="43.46407" lon="1.47057">
        <ele>261</ele>
        <time>2013-08-25T14:06:35Z</time>
      </trkpt>
      <trkpt lat="43.46394" lon="1.47052">
        <ele>261</ele>
        <time>2013-08-25T14:06:43Z</time>
      </trkpt>
      <trkpt lat="43.4638" lon="1.47042">
        <ele>261</ele>
        <time>2013-08-25T14:06:51Z</time>
      </trkpt>
      <trkpt lat="43.46368" lon="1.47035">
        <ele>261</ele>
        <time>2013-08-25T14:06:58Z</time>
      </trkpt>
      <trkpt lat="43.46353" lon="1.47025">
        <ele>261</ele>
        <time>2013-08-25T14:07:06Z</time>
      </trkpt>
      <trkpt lat="43.46335" lon="1.47013">
        <ele>262</ele>
        <time>2013-08-25T14:07:15Z</time>
      </trkpt>
      <trkpt lat="43.46325" lon="1.47006">
        <ele>263</ele>
        <time>2013-08-25T14:07:21Z</time>
      </trkpt>
    </trkseg>
  </trk>
  <trk>
    <name><![CDATA[Tracé actuel: 25 AOU 2013 15:47]]></name>
    <trkseg>
      <trkpt lat="43.46181" lon="1.46992">
        <ele>274</ele>
        <time>2013-08-25T14:08:54Z</time>
      </trkpt>
      <trkpt lat="43.46179" lon="1.47012">
        <ele>275</ele>
        <time>2013-08-25T14:09:03Z</time>
      </trkpt>
      <trkpt lat="43.46184" lon="1.47038">
        <ele>275</ele>
        <time>2013-08-25T14:09:12Z</time>
      </trkpt>
      <trkpt lat="43.46184" lon="1.47057">
        <ele>275</ele>
        <time>2013-08-25T14:09:19Z</time>
      </trkpt>
      <trkpt lat="43.46181" lon="1.47078">
        <ele>276</ele>
        <time>2013-08-25T14:09:28Z</time>
      </trkpt>
      <trkpt lat="43.46173" lon="1.471">
        <ele>276</ele>
        <time>2013-08-25T14:09:37Z</time>
      </trkpt>
      <trkpt lat="43.46166" lon="1.47123">
        <ele>279</ele>
        <time>2013-08-25T14:09:46Z</time>
      </trkpt>
      <trkpt lat="43.46158" lon="1.47144">
        <ele>279</ele>
        <time>2013-08-25T14:09:55Z</time>
      </trkpt>
      <trkpt lat="43.46151" lon="1.4716">
        <ele>279</ele>
        <time>2013-08-25T14:10:02Z</time>
      </trkpt>
      <trkpt lat="43.46141" lon="1.47182">
        <ele>279</ele>
        <time>2013-08-25T14:10:12Z</time>
      </trkpt>
      <trkpt lat="43.46132" lon="1.47201">
        <ele>279</ele>
        <time>2013-08-25T14:10:20Z</time>
      </trkpt>
      <trkpt lat="43.46122" lon="1.47227">
        <ele>279</ele>
        <time>2013-08-25T14:10:30Z</time>
      </trkpt>
      <trkpt lat="43.46111" lon="1.4725">
        <ele>280</ele>
        <time>2013-08-25T14:10:39Z</time>
      </trkpt>
      <trkpt lat="43.46101" lon="1.47268">
        <ele>280</ele>
        <time>2013-08-25T14:10:47Z</time>
      </trkpt>
      <trkpt lat="43.46088" lon="1.47294">
        <ele>280</ele>
        <time>2013-08-25T14:10:57Z</time>
      </trkpt>
      <trkpt lat="43.46081" lon="1.47309">
        <ele>281</ele>
        <time>2013-08-25T14:11:04Z</time>
      </trkpt>
      <trkpt lat="43.46072" lon="1.47328">
        <ele>282</ele>
        <time>2013-08-25T14:11:12Z</time>
      </trkpt>
      <trkpt lat="43.46061" lon="1.47353">
        <ele>281</ele>
        <time>2013-08-25T14:11:20Z</time>
      </trkpt>
      <trkpt lat="43.46043" lon="1.47396">
        <ele>281</ele>
        <time>2013-08-25T14:11:32Z</time>
      </trkpt>
      <trkpt lat="43.46031" lon="1.47426">
        <ele>280</ele>
        <time>2013-08-25T14:11:40Z</time>
      </trkpt>
      <trkpt lat="43.46016" lon="1.47465">
        <ele>280</ele>
        <time>2013-08-25T14:11:51Z</time>
      </trkpt>
      <trkpt lat="43.46005" lon="1.47486">
        <ele>281</ele>
        <time>2013-08-25T14:11:58Z</time>
      </trkpt>
      <trkpt lat="43.45982" lon="1.47515">
        <ele>280</ele>
        <time>2013-08-25T14:12:05Z</time>
      </trkpt>
      <trkpt lat="43.45954" lon="1.47561">
        <ele>279</ele>
        <time>2013-08-25T14:12:14Z</time>
      </trkpt>
      <trkpt lat="43.45932" lon="1.47604">
        <ele>278</ele>
        <time>2013-08-25T14:12:23Z</time>
      </trkpt>
      <trkpt lat="43.45927" lon="1.47613">
        <ele>278</ele>
        <time>2013-08-25T14:12:26Z</time>
      </trkpt>
      <trkpt lat="43.45917" lon="1.4761">
        <ele>278</ele>
        <time>2013-08-25T14:12:29Z</time>
      </trkpt>
      <trkpt lat="43.45913" lon="1.47606">
        <ele>278</ele>
        <time>2013-08-25T14:12:30Z</time>
      </trkpt>
      <trkpt lat="43.45908" lon="1.476">
        <ele>278</ele>
        <time>2013-08-25T14:12:31Z</time>
      </trkpt>
      <trkpt lat="43.45903" lon="1.47595">
        <ele>278</ele>
        <time>2013-08-25T14:12:32Z</time>
      </trkpt>
      <trkpt lat="43.45896" lon="1.4759">
        <ele>278</ele>
        <time>2013-08-25T14:12:33Z</time>
      </trkpt>
      <trkpt lat="43.45863" lon="1.47561">
        <ele>274</ele>
        <time>2013-08-25T14:12:37Z</time>
      </trkpt>
      <trkpt lat="43.45806" lon="1.47504">
        <ele>267</ele>
        <time>2013-08-25T14:12:43Z</time>
      </trkpt>
      <trkpt lat="43.45786" lon="1.47483">
        <ele>264</ele>
        <time>2013-08-25T14:12:46Z</time>
      </trkpt>
      <trkpt lat="43.45781" lon="1.47479">
        <ele>264</ele>
        <time>2013-08-25T14:12:47Z</time>
      </trkpt>
      <trkpt lat="43.45777" lon="1.47477">
        <ele>264</ele>
        <time>2013-08-25T14:12:48Z</time>
      </trkpt>
      <trkpt lat="43.45774" lon="1.47476">
        <ele>264</ele>
        <time>2013-08-25T14:12:49Z</time>
      </trkpt>
      <trkpt lat="43.45772" lon="1.47476">
        <ele>264</ele>
        <time>2013-08-25T14:12:50Z</time>
      </trkpt>
      <trkpt lat="43.45769" lon="1.47477">
        <ele>264</ele>
        <time>2013-08-25T14:12:51Z</time>
      </trkpt>
      <trkpt lat="43.45767" lon="1.47479">
        <ele>264</ele>
        <time>2013-08-25T14:12:52Z</time>
      </trkpt>
      <trkpt lat="43.45766" lon="1.47481">
        <ele>264</ele>
        <time>2013-08-25T14:12:53Z</time>
      </trkpt>
      <trkpt lat="43.45765" lon="1.47483">
        <ele>264</ele>
        <time>2013-08-25T14:12:54Z</time>
      </trkpt>
      <trkpt lat="43.45758" lon="1.47504">
        <ele>265</ele>
        <time>2013-08-25T14:13:01Z</time>
      </trkpt>
      <trkpt lat="43.45748" lon="1.47523">
        <ele>265</ele>
        <time>2013-08-25T14:13:07Z</time>
      </trkpt>
      <trkpt lat="43.45738" lon="1.47551">
        <ele>265</ele>
        <time>2013-08-25T14:13:15Z</time>
      </trkpt>
      <trkpt lat="43.45729" lon="1.47571">
        <ele>265</ele>
        <time>2013-08-25T14:13:22Z</time>
      </trkpt>
      <trkpt lat="43.45719" lon="1.47592">
        <ele>266</ele>
        <time>2013-08-25T14:13:29Z</time>
      </trkpt>
      <trkpt lat="43.45708" lon="1.47615">
        <ele>266</ele>
        <time>2013-08-25T14:13:36Z</time>
      </trkpt>
      <trkpt lat="43.45694" lon="1.47648">
        <ele>266</ele>
        <time>2013-08-25T14:13:44Z</time>
      </trkpt>
      <trkpt lat="43.45691" lon="1.47658">
        <ele>266</ele>
        <time>2013-08-25T14:13:46Z</time>
      </trkpt>
      <trkpt lat="43.45677" lon="1.47707">
        <ele>268</ele>
        <time>2013-08-25T14:13:54Z</time>
      </trkpt>
      <trkpt lat="43.45676" lon="1.47714">
        <ele>268</ele>
        <time>2013-08-25T14:13:55Z</time>
      </trkpt>
      <trkpt lat="43.45674" lon="1.4772">
        <ele>267</ele>
        <time>2013-08-25T14:13:56Z</time>
      </trkpt>
      <trkpt lat="43.45665" lon="1.4776">
        <ele>265</ele>
        <time>2013-08-25T14:14:02Z</time>
      </trkpt>
      <trkpt lat="43.45655" lon="1.47798">
        <ele>264</ele>
        <time>2013-08-25T14:14:08Z</time>
      </trkpt>
      <trkpt lat="43.45653" lon="1.47804">
        <ele>264</ele>
        <time>2013-08-25T14:14:09Z</time>
      </trkpt>
      <trkpt lat="43.45652" lon="1.4781">
        <ele>264</ele>
        <time>2013-08-25T14:14:10Z</time>
      </trkpt>
      <trkpt lat="43.4565" lon="1.47815">
        <ele>264</ele>
        <time>2013-08-25T14:14:11Z</time>
      </trkpt>
      <trkpt lat="43.45648" lon="1.47821">
        <ele>265</ele>
        <time>2013-08-25T14:14:12Z</time>
      </trkpt>
      <trkpt lat="43.45634" lon="1.47864">
        <ele>266</ele>
        <time>2013-08-25T14:14:20Z</time>
      </trkpt>
      <trkpt lat="43.45627" lon="1.479">
        <ele>266</ele>
        <time>2013-08-25T14:14:27Z</time>
      </trkpt>
      <trkpt lat="43.45621" lon="1.47931">
        <ele>267</ele>
        <time>2013-08-25T14:14:34Z</time>
      </trkpt>
      <trkpt lat="43.45616" lon="1.47968">
        <ele>267</ele>
        <time>2013-08-25T14:14:41Z</time>
      </trkpt>
      <trkpt lat="43.45606" lon="1.48005">
        <ele>267</ele>
        <time>2013-08-25T14:14:48Z</time>
      </trkpt>
      <trkpt lat="43.45597" lon="1.48043">
        <ele>267</ele>
        <time>2013-08-25T14:14:54Z</time>
      </trkpt>
      <trkpt lat="43.45585" lon="1.48088">
        <ele>266</ele>
        <time>2013-08-25T14:15:01Z</time>
      </trkpt>
      <trkpt lat="43.45577" lon="1.48126">
        <ele>261</ele>
        <time>2013-08-25T14:15:06Z</time>
      </trkpt>
      <trkpt lat="43.45565" lon="1.48173">
        <ele>262</ele>
        <time>2013-08-25T14:15:13Z</time>
      </trkpt>
      <trkpt lat="43.45557" lon="1.48204">
        <ele>262</ele>
        <time>2013-08-25T14:15:19Z</time>
      </trkpt>
      <trkpt lat="43.4555" lon="1.48235">
        <ele>262</ele>
        <time>2013-08-25T14:15:25Z</time>
      </trkpt>
      <trkpt lat="43.45542" lon="1.48269">
        <ele>265</ele>
        <time>2013-08-25T14:15:32Z</time>
      </trkpt>
      <trkpt lat="43.45528" lon="1.48306">
        <ele>265</ele>
        <time>2013-08-25T14:15:40Z</time>
      </trkpt>
      <trkpt lat="43.45509" lon="1.48337">
        <ele>267</ele>
        <time>2013-08-25T14:15:48Z</time>
      </trkpt>
      <trkpt lat="43.45491" lon="1.48368">
        <ele>268</ele>
        <time>2013-08-25T14:15:56Z</time>
      </trkpt>
      <trkpt lat="43.45481" lon="1.48384">
        <ele>269</ele>
        <time>2013-08-25T14:16:01Z</time>
      </trkpt>
      <trkpt lat="43.45479" lon="1.48386">
        <ele>269</ele>
        <time>2013-08-25T14:16:02Z</time>
      </trkpt>
      <trkpt lat="43.45477" lon="1.48389">
        <ele>269</ele>
        <time>2013-08-25T14:16:03Z</time>
      </trkpt>
      <trkpt lat="43.45475" lon="1.4839">
        <ele>269</ele>
        <time>2013-08-25T14:16:04Z</time>
      </trkpt>
      <trkpt lat="43.45472" lon="1.48392">
        <ele>269</ele>
        <time>2013-08-25T14:16:05Z</time>
      </trkpt>
      <trkpt lat="43.4546" lon="1.48404">
        <ele>269</ele>
        <time>2013-08-25T14:16:11Z</time>
      </trkpt>
      <trkpt lat="43.45452" lon="1.48416">
        <ele>270</ele>
        <time>2013-08-25T14:16:17Z</time>
      </trkpt>
      <trkpt lat="43.4544" lon="1.48424">
        <ele>272</ele>
        <time>2013-08-25T14:16:23Z</time>
      </trkpt>
      <trkpt lat="43.45427" lon="1.48433">
        <ele>272</ele>
        <time>2013-08-25T14:16:31Z</time>
      </trkpt>
      <trkpt lat="43.45417" lon="1.4844">
        <ele>272</ele>
        <time>2013-08-25T14:16:41Z</time>
      </trkpt>
      <trkpt lat="43.45413" lon="1.48445">
        <ele>273</ele>
        <time>2013-08-25T14:16:48Z</time>
      </trkpt>
      <trkpt lat="43.45406" lon="1.48453">
        <ele>273</ele>
        <time>2013-08-25T14:16:57Z</time>
      </trkpt>
      <trkpt lat="43.45396" lon="1.48457">
        <ele>273</ele>
        <time>2013-08-25T14:17:04Z</time>
      </trkpt>
      <trkpt lat="43.45383" lon="1.48465">
        <ele>273</ele>
        <time>2013-08-25T14:17:12Z</time>
      </trkpt>
      <trkpt lat="43.45375" lon="1.48473">
        <ele>273</ele>
        <time>2013-08-25T14:17:18Z</time>
      </trkpt>
      <trkpt lat="43.45362" lon="1.48485">
        <ele>274</ele>
        <time>2013-08-25T14:17:25Z</time>
      </trkpt>
      <trkpt lat="43.45348" lon="1.48499">
        <ele>275</ele>
        <time>2013-08-25T14:17:33Z</time>
      </trkpt>
      <trkpt lat="43.45339" lon="1.48493">
        <ele>275</ele>
        <time>2013-08-25T14:17:40Z</time>
      </trkpt>
      <trkpt lat="43.45326" lon="1.4848">
        <ele>272</ele>
        <time>2013-08-25T14:17:45Z</time>
      </trkpt>
      <trkpt lat="43.45292" lon="1.48465">
        <ele>269</ele>
        <time>2013-08-25T14:17:52Z</time>
      </trkpt>
      <trkpt lat="43.45248" lon="1.48446">
        <ele>262</ele>
        <time>2013-08-25T14:17:57Z</time>
      </trkpt>
      <trkpt lat="43.45177" lon="1.48415">
        <ele>259</ele>
        <time>2013-08-25T14:18:05Z</time>
      </trkpt>
      <trkpt lat="43.45149" lon="1.48391">
        <ele>257</ele>
        <time>2013-08-25T14:18:09Z</time>
      </trkpt>
      <trkpt lat="43.45099" lon="1.4834">
        <ele>255</ele>
        <time>2013-08-25T14:18:16Z</time>
      </trkpt>
      <trkpt lat="43.4504" lon="1.48284">
        <ele>250</ele>
        <time>2013-08-25T14:18:24Z</time>
      </trkpt>
      <trkpt lat="43.45006" lon="1.48246">
        <ele>248</ele>
        <time>2013-08-25T14:18:30Z</time>
      </trkpt>
      <trkpt lat="43.44998" lon="1.48238">
        <ele>245</ele>
        <time>2013-08-25T14:18:35Z</time>
      </trkpt>
      <trkpt lat="43.44987" lon="1.48223">
        <ele>243</ele>
        <time>2013-08-25T14:18:42Z</time>
      </trkpt>
      <trkpt lat="43.44986" lon="1.4822">
        <ele>243</ele>
        <time>2013-08-25T14:18:44Z</time>
      </trkpt>
      <trkpt lat="43.44984" lon="1.48206">
        <ele>243</ele>
        <time>2013-08-25T14:18:50Z</time>
      </trkpt>
      <trkpt lat="43.44982" lon="1.48206">
        <ele>243</ele>
        <time>2013-08-25T14:18:52Z</time>
      </trkpt>
      <trkpt lat="43.44983" lon="1.48214">
        <ele>243</ele>
        <time>2013-08-25T14:18:57Z</time>
      </trkpt>
      <trkpt lat="43.4498" lon="1.48228">
        <ele>243</ele>
        <time>2013-08-25T14:19:03Z</time>
      </trkpt>
      <trkpt lat="43.4498" lon="1.48234">
        <ele>243</ele>
        <time>2013-08-25T14:19:08Z</time>
      </trkpt>
      <trkpt lat="43.44981" lon="1.48239">
        <ele>243</ele>
        <time>2013-08-25T14:19:17Z</time>
      </trkpt>
      <trkpt lat="43.44979" lon="1.48259">
        <ele>243</ele>
        <time>2013-08-25T14:19:24Z</time>
      </trkpt>
      <trkpt lat="43.44976" lon="1.48283">
        <ele>243</ele>
        <time>2013-08-25T14:19:30Z</time>
      </trkpt>
      <trkpt lat="43.44972" lon="1.4831">
        <ele>243</ele>
        <time>2013-08-25T14:19:36Z</time>
      </trkpt>
      <trkpt lat="43.44969" lon="1.48332">
        <ele>243</ele>
        <time>2013-08-25T14:19:40Z</time>
      </trkpt>
      <trkpt lat="43.44965" lon="1.48357">
        <ele>243</ele>
        <time>2013-08-25T14:19:44Z</time>
      </trkpt>
      <trkpt lat="43.4496" lon="1.48387">
        <ele>243</ele>
        <time>2013-08-25T14:19:48Z</time>
      </trkpt>
      <trkpt lat="43.44954" lon="1.48429">
        <ele>244</ele>
        <time>2013-08-25T14:19:54Z</time>
      </trkpt>
      <trkpt lat="43.44953" lon="1.48435">
        <ele>244</ele>
        <time>2013-08-25T14:19:55Z</time>
      </trkpt>
      <trkpt lat="43.4495" lon="1.4847">
        <ele>244</ele>
        <time>2013-08-25T14:20:00Z</time>
      </trkpt>
      <trkpt lat="43.44949" lon="1.48488">
        <ele>244</ele>
        <time>2013-08-25T14:20:03Z</time>
      </trkpt>
      <trkpt lat="43.44942" lon="1.48495">
        <ele>243</ele>
        <time>2013-08-25T14:20:07Z</time>
      </trkpt>
      <trkpt lat="43.44931" lon="1.48491">
        <ele>243</ele>
        <time>2013-08-25T14:20:13Z</time>
      </trkpt>
      <trkpt lat="43.44931" lon="1.48494">
        <ele>243</ele>
        <time>2013-08-25T14:20:22Z</time>
      </trkpt>
      <trkpt lat="43.44925" lon="1.48492">
        <ele>242</ele>
        <time>2013-08-25T14:20:35Z</time>
      </trkpt>
      <trkpt lat="43.44923" lon="1.48492">
        <ele>242</ele>
        <time>2013-08-25T14:20:50Z</time>
      </trkpt>
      <trkpt lat="43.44923" lon="1.48491">
        <ele>242</ele>
        <time>2013-08-25T14:20:58Z</time>
      </trkpt>
      <trkpt lat="43.44922" lon="1.48491">
        <ele>242</ele>
        <time>2013-08-25T14:21:09Z</time>
      </trkpt>
      <trkpt lat="43.44922" lon="1.48491">
        <ele>242</ele>
        <time>2013-08-25T14:21:11Z</time>
      </trkpt>
      <trkpt lat="43.44912" lon="1.48488">
        <ele>241</ele>
        <time>2013-08-25T14:21:18Z</time>
      </trkpt>
      <trkpt lat="43.44899" lon="1.48487">
        <ele>241</ele>
        <time>2013-08-25T14:21:25Z</time>
      </trkpt>
      <trkpt lat="43.44894" lon="1.48491">
        <ele>241</ele>
        <time>2013-08-25T14:21:31Z</time>
      </trkpt>
      <trkpt lat="43.44892" lon="1.48491">
        <ele>241</ele>
        <time>2013-08-25T14:21:34Z</time>
      </trkpt>
      <trkpt lat="43.44887" lon="1.48483">
        <ele>241</ele>
        <time>2013-08-25T14:21:40Z</time>
      </trkpt>
      <trkpt lat="43.44886" lon="1.48474">
        <ele>241</ele>
        <time>2013-08-25T14:21:46Z</time>
      </trkpt>
      <trkpt lat="43.44882" lon="1.48457">
        <ele>241</ele>
        <time>2013-08-25T14:21:54Z</time>
      </trkpt>
      <trkpt lat="43.4488" lon="1.48445">
        <ele>241</ele>
        <time>2013-08-25T14:22:01Z</time>
      </trkpt>
      <trkpt lat="43.44876" lon="1.48442">
        <ele>241</ele>
        <time>2013-08-25T14:22:14Z</time>
      </trkpt>
      <trkpt lat="43.44874" lon="1.48441">
        <ele>241</ele>
        <time>2013-08-25T14:22:27Z</time>
      </trkpt>
      <trkpt lat="43.44873" lon="1.4844">
        <ele>241</ele>
        <time>2013-08-25T14:22:33Z</time>
      </trkpt>
      <trkpt lat="43.44873" lon="1.48435">
        <ele>241</ele>
        <time>2013-08-25T14:22:35Z</time>
      </trkpt>
      <trkpt lat="43.44874" lon="1.48429">
        <ele>241</ele>
        <time>2013-08-25T14:22:38Z</time>
      </trkpt>
      <trkpt lat="43.44876" lon="1.48414">
        <ele>240</ele>
        <time>2013-08-25T14:22:44Z</time>
      </trkpt>
      <trkpt lat="43.44878" lon="1.48412">
        <ele>240</ele>
        <time>2013-08-25T14:22:47Z</time>
      </trkpt>
      <trkpt lat="43.44876" lon="1.48399">
        <ele>240</ele>
        <time>2013-08-25T14:22:52Z</time>
      </trkpt>
      <trkpt lat="43.44865" lon="1.48385">
        <ele>240</ele>
        <time>2013-08-25T14:23:00Z</time>
      </trkpt>
      <trkpt lat="43.44863" lon="1.48383">
        <ele>240</ele>
        <time>2013-08-25T14:23:01Z</time>
      </trkpt>
      <trkpt lat="43.44845" lon="1.48375">
        <ele>240</ele>
        <time>2013-08-25T14:23:10Z</time>
      </trkpt>
      <trkpt lat="43.44827" lon="1.48365">
        <ele>241</ele>
        <time>2013-08-25T14:23:16Z</time>
      </trkpt>
      <trkpt lat="43.44818" lon="1.48367">
        <ele>241</ele>
        <time>2013-08-25T14:23:21Z</time>
      </trkpt>
      <trkpt lat="43.44804" lon="1.48368">
        <ele>241</ele>
        <time>2013-08-25T14:23:28Z</time>
      </trkpt>
      <trkpt lat="43.4479" lon="1.48372">
        <ele>242</ele>
        <time>2013-08-25T14:23:35Z</time>
      </trkpt>
      <trkpt lat="43.44775" lon="1.48376">
        <ele>242</ele>
        <time>2013-08-25T14:23:42Z</time>
      </trkpt>
      <trkpt lat="43.44763" lon="1.48385">
        <ele>242</ele>
        <time>2013-08-25T14:23:48Z</time>
      </trkpt>
      <trkpt lat="43.44755" lon="1.48397">
        <ele>243</ele>
        <time>2013-08-25T14:23:55Z</time>
      </trkpt>
      <trkpt lat="43.44754" lon="1.48398">
        <ele>243</ele>
        <time>2013-08-25T14:24:00Z</time>
      </trkpt>
      <trkpt lat="43.44753" lon="1.48398">
        <ele>243</ele>
        <time>2013-08-25T14:24:13Z</time>
      </trkpt>
      <trkpt lat="43.44753" lon="1.48398">
        <ele>243</ele>
        <time>2013-08-25T14:24:25Z</time>
      </trkpt>
      <trkpt lat="43.44752" lon="1.48398">
        <ele>243</ele>
        <time>2013-08-25T14:24:41Z</time>
      </trkpt>
      <trkpt lat="43.44753" lon="1.48399">
        <ele>243</ele>
        <time>2013-08-25T14:24:59Z</time>
      </trkpt>
      <trkpt lat="43.44752" lon="1.48398">
        <ele>243</ele>
        <time>2013-08-25T14:25:13Z</time>
      </trkpt>
      <trkpt lat="43.44752" lon="1.48399">
        <ele>243</ele>
        <time>2013-08-25T14:25:24Z</time>
      </trkpt>
      <trkpt lat="43.44752" lon="1.48398">
        <ele>243</ele>
        <time>2013-08-25T14:25:36Z</time>
      </trkpt>
      <trkpt lat="43.44752" lon="1.48398">
        <ele>243</ele>
        <time>2013-08-25T14:25:49Z</time>
      </trkpt>
      <trkpt lat="43.44752" lon="1.48398">
        <ele>243</ele>
        <time>2013-08-25T14:26:07Z</time>
      </trkpt>
      <trkpt lat="43.44752" lon="1.48398">
        <ele>243</ele>
        <time>2013-08-25T14:26:16Z</time>
      </trkpt>
      <trkpt lat="43.44752" lon="1.48398">
        <ele>243</ele>
        <time>2013-08-25T14:26:30Z</time>
      </trkpt>
      <trkpt lat="43.44751" lon="1.48398">
        <ele>243</ele>
        <time>2013-08-25T14:26:43Z</time>
      </trkpt>
      <trkpt lat="43.44751" lon="1.48398">
        <ele>243</ele>
        <time>2013-08-25T14:27:02Z</time>
      </trkpt>
      <trkpt lat="43.44751" lon="1.48398">
        <ele>243</ele>
        <time>2013-08-25T14:27:23Z</time>
      </trkpt>
      <trkpt lat="43.44751" lon="1.484">
        <ele>243</ele>
        <time>2013-08-25T14:27:29Z</time>
      </trkpt>
      <trkpt lat="43.44748" lon="1.48411">
        <ele>243</ele>
        <time>2013-08-25T14:27:35Z</time>
      </trkpt>
      <trkpt lat="43.44741" lon="1.48439">
        <ele>244</ele>
        <time>2013-08-25T14:27:45Z</time>
      </trkpt>
      <trkpt lat="43.44737" lon="1.48462">
        <ele>244</ele>
        <time>2013-08-25T14:27:53Z</time>
      </trkpt>
      <trkpt lat="43.44733" lon="1.48486">
        <ele>245</ele>
        <time>2013-08-25T14:28:02Z</time>
      </trkpt>
      <trkpt lat="43.44729" lon="1.4851">
        <ele>246</ele>
        <time>2013-08-25T14:28:11Z</time>
      </trkpt>
      <trkpt lat="43.44722" lon="1.48538">
        <ele>247</ele>
        <time>2013-08-25T14:28:22Z</time>
      </trkpt>
      <trkpt lat="43.44718" lon="1.48562">
        <ele>247</ele>
        <time>2013-08-25T14:28:31Z</time>
      </trkpt>
      <trkpt lat="43.44714" lon="1.48585">
        <ele>249</ele>
        <time>2013-08-25T14:28:39Z</time>
      </trkpt>
      <trkpt lat="43.44709" lon="1.48609">
        <ele>249</ele>
        <time>2013-08-25T14:28:48Z</time>
      </trkpt>
      <trkpt lat="43.44704" lon="1.48633">
        <ele>249</ele>
        <time>2013-08-25T14:28:58Z</time>
      </trkpt>
      <trkpt lat="43.44699" lon="1.48658">
        <ele>250</ele>
        <time>2013-08-25T14:29:08Z</time>
      </trkpt>
      <trkpt lat="43.44692" lon="1.48688">
        <ele>251</ele>
        <time>2013-08-25T14:29:19Z</time>
      </trkpt>
      <trkpt lat="43.44681" lon="1.48714">
        <ele>252</ele>
        <time>2013-08-25T14:29:29Z</time>
      </trkpt>
      <trkpt lat="43.44669" lon="1.48735">
        <ele>253</ele>
        <time>2013-08-25T14:29:38Z</time>
      </trkpt>
      <trkpt lat="43.44662" lon="1.48758">
        <ele>254</ele>
        <time>2013-08-25T14:29:47Z</time>
      </trkpt>
      <trkpt lat="43.44657" lon="1.48778">
        <ele>254</ele>
        <time>2013-08-25T14:29:55Z</time>
      </trkpt>
      <trkpt lat="43.44657" lon="1.48781">
        <ele>254</ele>
        <time>2013-08-25T14:30:01Z</time>
      </trkpt>
      <trkpt lat="43.44655" lon="1.48791">
        <ele>254</ele>
        <time>2013-08-25T14:30:06Z</time>
      </trkpt>
      <trkpt lat="43.44653" lon="1.48809">
        <ele>254</ele>
        <time>2013-08-25T14:30:13Z</time>
      </trkpt>
      <trkpt lat="43.44653" lon="1.48811">
        <ele>254</ele>
        <time>2013-08-25T14:30:19Z</time>
      </trkpt>
      <trkpt lat="43.44652" lon="1.4881">
        <ele>254</ele>
        <time>2013-08-25T14:30:29Z</time>
      </trkpt>
      <trkpt lat="43.44653" lon="1.48811">
        <ele>254</ele>
        <time>2013-08-25T14:30:45Z</time>
      </trkpt>
      <trkpt lat="43.44652" lon="1.48811">
        <ele>254</ele>
        <time>2013-08-25T14:31:00Z</time>
      </trkpt>
      <trkpt lat="43.44652" lon="1.48811">
        <ele>254</ele>
        <time>2013-08-25T14:31:06Z</time>
      </trkpt>
      <trkpt lat="43.44648" lon="1.48828">
        <ele>255</ele>
        <time>2013-08-25T14:31:14Z</time>
      </trkpt>
      <trkpt lat="43.44643" lon="1.4885">
        <ele>256</ele>
        <time>2013-08-25T14:31:22Z</time>
      </trkpt>
      <trkpt lat="43.44638" lon="1.48874">
        <ele>256</ele>
        <time>2013-08-25T14:31:31Z</time>
      </trkpt>
      <trkpt lat="43.44635" lon="1.48906">
        <ele>257</ele>
        <time>2013-08-25T14:31:42Z</time>
      </trkpt>
      <trkpt lat="43.4464" lon="1.48931">
        <ele>257</ele>
        <time>2013-08-25T14:31:47Z</time>
      </trkpt>
      <trkpt lat="43.4465" lon="1.4895">
        <ele>257</ele>
        <time>2013-08-25T14:31:54Z</time>
      </trkpt>
      <trkpt lat="43.4466" lon="1.48966">
        <ele>257</ele>
        <time>2013-08-25T14:32:00Z</time>
      </trkpt>
      <trkpt lat="43.44674" lon="1.48987">
        <ele>257</ele>
        <time>2013-08-25T14:32:08Z</time>
      </trkpt>
      <trkpt lat="43.44683" lon="1.49">
        <ele>257</ele>
        <time>2013-08-25T14:32:12Z</time>
      </trkpt>
      <trkpt lat="43.44686" lon="1.49004">
        <ele>256</ele>
        <time>2013-08-25T14:32:13Z</time>
      </trkpt>
      <trkpt lat="43.4469" lon="1.49009">
        <ele>256</ele>
        <time>2013-08-25T14:32:14Z</time>
      </trkpt>
      <trkpt lat="43.44693" lon="1.49014">
        <ele>255</ele>
        <time>2013-08-25T14:32:15Z</time>
      </trkpt>
      <trkpt lat="43.44695" lon="1.49021">
        <ele>255</ele>
        <time>2013-08-25T14:32:16Z</time>
      </trkpt>
      <trkpt lat="43.44697" lon="1.49028">
        <ele>255</ele>
        <time>2013-08-25T14:32:17Z</time>
      </trkpt>
      <trkpt lat="43.44698" lon="1.49034">
        <ele>255</ele>
        <time>2013-08-25T14:32:18Z</time>
      </trkpt>
      <trkpt lat="43.44697" lon="1.49038">
        <ele>255</ele>
        <time>2013-08-25T14:32:19Z</time>
      </trkpt>
      <trkpt lat="43.44696" lon="1.49043">
        <ele>255</ele>
        <time>2013-08-25T14:32:20Z</time>
      </trkpt>
      <trkpt lat="43.44691" lon="1.49072">
        <ele>255</ele>
        <time>2013-08-25T14:32:28Z</time>
      </trkpt>
      <trkpt lat="43.44684" lon="1.49104">
        <ele>255</ele>
        <time>2013-08-25T14:32:37Z</time>
      </trkpt>
      <trkpt lat="43.44678" lon="1.49129">
        <ele>255</ele>
        <time>2013-08-25T14:32:44Z</time>
      </trkpt>
      <trkpt lat="43.44673" lon="1.49153">
        <ele>255</ele>
        <time>2013-08-25T14:32:51Z</time>
      </trkpt>
      <trkpt lat="43.44664" lon="1.4919">
        <ele>254</ele>
        <time>2013-08-25T14:33:01Z</time>
      </trkpt>
      <trkpt lat="43.44658" lon="1.49229">
        <ele>255</ele>
        <time>2013-08-25T14:33:10Z</time>
      </trkpt>
      <trkpt lat="43.44654" lon="1.49258">
        <ele>256</ele>
        <time>2013-08-25T14:33:17Z</time>
      </trkpt>
      <trkpt lat="43.44647" lon="1.49292">
        <ele>255</ele>
        <time>2013-08-25T14:33:26Z</time>
      </trkpt>
      <trkpt lat="43.4464" lon="1.49327">
        <ele>256</ele>
        <time>2013-08-25T14:33:34Z</time>
      </trkpt>
      <trkpt lat="43.44631" lon="1.49377">
        <ele>256</ele>
        <time>2013-08-25T14:33:43Z</time>
      </trkpt>
      <trkpt lat="43.4462" lon="1.49431">
        <ele>256</ele>
        <time>2013-08-25T14:33:52Z</time>
      </trkpt>
      <trkpt lat="43.44601" lon="1.49487">
        <ele>257</ele>
        <time>2013-08-25T14:34:02Z</time>
      </trkpt>
      <trkpt lat="43.44585" lon="1.49526">
        <ele>258</ele>
        <time>2013-08-25T14:34:10Z</time>
      </trkpt>
      <trkpt lat="43.44565" lon="1.49578">
        <ele>256</ele>
        <time>2013-08-25T14:34:21Z</time>
      </trkpt>
      <trkpt lat="43.44546" lon="1.49623">
        <ele>258</ele>
        <time>2013-08-25T14:34:31Z</time>
      </trkpt>
      <trkpt lat="43.44528" lon="1.49669">
        <ele>260</ele>
        <time>2013-08-25T14:34:41Z</time>
      </trkpt>
      <trkpt lat="43.44511" lon="1.49711">
        <ele>260</ele>
        <time>2013-08-25T14:34:51Z</time>
      </trkpt>
      <trkpt lat="43.44491" lon="1.49761">
        <ele>260</ele>
        <time>2013-08-25T14:35:03Z</time>
      </trkpt>
      <trkpt lat="43.44475" lon="1.498">
        <ele>259</ele>
        <time>2013-08-25T14:35:12Z</time>
      </trkpt>
      <trkpt lat="43.44453" lon="1.49846">
        <ele>258</ele>
        <time>2013-08-25T14:35:23Z</time>
      </trkpt>
      <trkpt lat="43.4443" lon="1.4989">
        <ele>258</ele>
        <time>2013-08-25T14:35:35Z</time>
      </trkpt>
      <trkpt lat="43.44414" lon="1.49916">
        <ele>259</ele>
        <time>2013-08-25T14:35:44Z</time>
      </trkpt>
      <trkpt lat="43.44402" lon="1.4994">
        <ele>258</ele>
        <time>2013-08-25T14:35:51Z</time>
      </trkpt>
      <trkpt lat="43.44386" lon="1.49976">
        <ele>257</ele>
        <time>2013-08-25T14:36:00Z</time>
      </trkpt>
      <trkpt lat="43.44375" lon="1.50017">
        <ele>255</ele>
        <time>2013-08-25T14:36:07Z</time>
      </trkpt>
      <trkpt lat="43.44374" lon="1.50025">
        <ele>255</ele>
        <time>2013-08-25T14:36:08Z</time>
      </trkpt>
      <trkpt lat="43.44373" lon="1.50034">
        <ele>255</ele>
        <time>2013-08-25T14:36:09Z</time>
      </trkpt>
      <trkpt lat="43.44373" lon="1.50044">
        <ele>254</ele>
        <time>2013-08-25T14:36:10Z</time>
      </trkpt>
      <trkpt lat="43.44373" lon="1.50117">
        <ele>249</ele>
        <time>2013-08-25T14:36:16Z</time>
      </trkpt>
      <trkpt lat="43.44374" lon="1.50218">
        <ele>242</ele>
        <time>2013-08-25T14:36:23Z</time>
      </trkpt>
      <trkpt lat="43.44369" lon="1.50269">
        <ele>237</ele>
        <time>2013-08-25T14:36:27Z</time>
      </trkpt>
      <trkpt lat="43.44362" lon="1.50318">
        <ele>236</ele>
        <time>2013-08-25T14:36:32Z</time>
      </trkpt>
      <trkpt lat="43.44357" lon="1.50335">
        <ele>234</ele>
        <time>2013-08-25T14:36:36Z</time>
      </trkpt>
      <trkpt lat="43.44353" lon="1.50339">
        <ele>234</ele>
        <time>2013-08-25T14:36:37Z</time>
      </trkpt>
      <trkpt lat="43.44351" lon="1.50342">
        <ele>234</ele>
        <time>2013-08-25T14:36:38Z</time>
      </trkpt>
      <trkpt lat="43.44348" lon="1.50346">
        <ele>234</ele>
        <time>2013-08-25T14:36:39Z</time>
      </trkpt>
      <trkpt lat="43.44347" lon="1.50349">
        <ele>234</ele>
        <time>2013-08-25T14:36:40Z</time>
      </trkpt>
      <trkpt lat="43.44345" lon="1.50352">
        <ele>234</ele>
        <time>2013-08-25T14:36:41Z</time>
      </trkpt>
      <trkpt lat="43.44344" lon="1.50355">
        <ele>234</ele>
        <time>2013-08-25T14:36:42Z</time>
      </trkpt>
      <trkpt lat="43.44343" lon="1.50358">
        <ele>234</ele>
        <time>2013-08-25T14:36:43Z</time>
      </trkpt>
      <trkpt lat="43.44342" lon="1.50361">
        <ele>234</ele>
        <time>2013-08-25T14:36:44Z</time>
      </trkpt>
      <trkpt lat="43.44341" lon="1.50365">
        <ele>234</ele>
        <time>2013-08-25T14:36:45Z</time>
      </trkpt>
      <trkpt lat="43.44339" lon="1.50369">
        <ele>234</ele>
        <time>2013-08-25T14:36:46Z</time>
      </trkpt>
      <trkpt lat="43.44337" lon="1.50373">
        <ele>234</ele>
        <time>2013-08-25T14:36:47Z</time>
      </trkpt>
      <trkpt lat="43.44335" lon="1.50377">
        <ele>233</ele>
        <time>2013-08-25T14:36:48Z</time>
      </trkpt>
      <trkpt lat="43.44334" lon="1.50382">
        <ele>233</ele>
        <time>2013-08-25T14:36:49Z</time>
      </trkpt>
      <trkpt lat="43.44332" lon="1.50386">
        <ele>230</ele>
        <time>2013-08-25T14:36:50Z</time>
      </trkpt>
      <trkpt lat="43.44331" lon="1.50391">
        <ele>230</ele>
        <time>2013-08-25T14:36:51Z</time>
      </trkpt>
      <trkpt lat="43.44328" lon="1.50395">
        <ele>231</ele>
        <time>2013-08-25T14:36:52Z</time>
      </trkpt>
      <trkpt lat="43.44324" lon="1.50399">
        <ele>231</ele>
        <time>2013-08-25T14:36:53Z</time>
      </trkpt>
      <trkpt lat="43.44303" lon="1.50419">
        <ele>227</ele>
        <time>2013-08-25T14:36:57Z</time>
      </trkpt>
      <trkpt lat="43.44282" lon="1.50438">
        <ele>225</ele>
        <time>2013-08-25T14:37:00Z</time>
      </trkpt>
      <trkpt lat="43.44262" lon="1.50471">
        <ele>224</ele>
        <time>2013-08-25T14:37:06Z</time>
      </trkpt>
      <trkpt lat="43.44252" lon="1.50492">
        <ele>221</ele>
        <time>2013-08-25T14:37:11Z</time>
      </trkpt>
      <trkpt lat="43.44247" lon="1.50508">
        <ele>217</ele>
        <time>2013-08-25T14:37:15Z</time>
      </trkpt>
      <trkpt lat="43.44238" lon="1.50534">
        <ele>213</ele>
        <time>2013-08-25T14:37:20Z</time>
      </trkpt>
      <trkpt lat="43.44248" lon="1.50575">
        <ele>209</ele>
        <time>2013-08-25T14:37:26Z</time>
      </trkpt>
      <trkpt lat="43.44257" lon="1.50595">
        <ele>209</ele>
        <time>2013-08-25T14:37:29Z</time>
      </trkpt>
      <trkpt lat="43.44269" lon="1.50617">
        <ele>209</ele>
        <time>2013-08-25T14:37:34Z</time>
      </trkpt>
      <trkpt lat="43.44273" lon="1.50619">
        <ele>209</ele>
        <time>2013-08-25T14:37:36Z</time>
      </trkpt>
      <trkpt lat="43.44275" lon="1.50623">
        <ele>209</ele>
        <time>2013-08-25T14:37:38Z</time>
      </trkpt>
      <trkpt lat="43.44279" lon="1.50624">
        <ele>210</ele>
        <time>2013-08-25T14:37:42Z</time>
      </trkpt>
      <trkpt lat="43.44275" lon="1.50624">
        <ele>209</ele>
        <time>2013-08-25T14:37:46Z</time>
      </trkpt>
      <trkpt lat="43.44267" lon="1.50621">
        <ele>209</ele>
        <time>2013-08-25T14:37:53Z</time>
      </trkpt>
      <trkpt lat="43.44263" lon="1.50609">
        <ele>209</ele>
        <time>2013-08-25T14:38:00Z</time>
      </trkpt>
      <trkpt lat="43.44256" lon="1.50599">
        <ele>209</ele>
        <time>2013-08-25T14:38:06Z</time>
      </trkpt>
      <trkpt lat="43.44254" lon="1.50595">
        <ele>209</ele>
        <time>2013-08-25T14:38:12Z</time>
      </trkpt>
      <trkpt lat="43.44255" lon="1.50595">
        <ele>209</ele>
        <time>2013-08-25T14:38:13Z</time>
      </trkpt>
      <trkpt lat="43.44261" lon="1.50607">
        <ele>209</ele>
        <time>2013-08-25T14:38:21Z</time>
      </trkpt>
      <trkpt lat="43.44262" lon="1.50608">
        <ele>209</ele>
        <time>2013-08-25T14:38:22Z</time>
      </trkpt>
      <trkpt lat="43.44264" lon="1.50615">
        <ele>209</ele>
        <time>2013-08-25T14:38:26Z</time>
      </trkpt>
      <trkpt lat="43.44266" lon="1.50619">
        <ele>209</ele>
        <time>2013-08-25T14:38:33Z</time>
      </trkpt>
      <trkpt lat="43.44267" lon="1.50619">
        <ele>209</ele>
        <time>2013-08-25T14:38:44Z</time>
      </trkpt>
      <trkpt lat="43.44268" lon="1.50619">
        <ele>209</ele>
        <time>2013-08-25T14:38:56Z</time>
      </trkpt>
      <trkpt lat="43.44272" lon="1.50623">
        <ele>209</ele>
        <time>2013-08-25T14:39:04Z</time>
      </trkpt>
      <trkpt lat="43.44288" lon="1.50635">
        <ele>209</ele>
        <time>2013-08-25T14:39:11Z</time>
      </trkpt>
      <trkpt lat="43.44305" lon="1.50649">
        <ele>209</ele>
        <time>2013-08-25T14:39:19Z</time>
      </trkpt>
      <trkpt lat="43.4433" lon="1.50658">
        <ele>208</ele>
        <time>2013-08-25T14:39:29Z</time>
      </trkpt>
      <trkpt lat="43.44345" lon="1.50658">
        <ele>210</ele>
        <time>2013-08-25T14:39:35Z</time>
      </trkpt>
      <trkpt lat="43.44366" lon="1.50653">
        <ele>211</ele>
        <time>2013-08-25T14:39:43Z</time>
      </trkpt>
      <trkpt lat="43.44389" lon="1.50638">
        <ele>212</ele>
        <time>2013-08-25T14:39:52Z</time>
      </trkpt>
      <trkpt lat="43.44409" lon="1.5062">
        <ele>212</ele>
        <time>2013-08-25T14:40:00Z</time>
      </trkpt>
      <trkpt lat="43.44428" lon="1.50603">
        <ele>212</ele>
        <time>2013-08-25T14:40:08Z</time>
      </trkpt>
      <trkpt lat="43.44444" lon="1.50587">
        <ele>212</ele>
        <time>2013-08-25T14:40:15Z</time>
      </trkpt>
      <trkpt lat="43.44458" lon="1.50577">
        <ele>214</ele>
        <time>2013-08-25T14:40:21Z</time>
      </trkpt>
      <trkpt lat="43.44472" lon="1.5059">
        <ele>210</ele>
        <time>2013-08-25T14:40:28Z</time>
      </trkpt>
      <trkpt lat="43.44474" lon="1.50595">
        <ele>210</ele>
        <time>2013-08-25T14:40:31Z</time>
      </trkpt>
      <trkpt lat="43.44472" lon="1.5062">
        <ele>211</ele>
        <time>2013-08-25T14:40:41Z</time>
      </trkpt>
      <trkpt lat="43.44467" lon="1.50639">
        <ele>211</ele>
        <time>2013-08-25T14:40:50Z</time>
      </trkpt>
      <trkpt lat="43.44461" lon="1.50657">
        <ele>211</ele>
        <time>2013-08-25T14:40:59Z</time>
      </trkpt>
      <trkpt lat="43.44457" lon="1.50672">
        <ele>213</ele>
        <time>2013-08-25T14:41:07Z</time>
      </trkpt>
      <trkpt lat="43.44454" lon="1.50689">
        <ele>213</ele>
        <time>2013-08-25T14:41:15Z</time>
      </trkpt>
      <trkpt lat="43.44454" lon="1.50699">
        <ele>213</ele>
        <time>2013-08-25T14:41:20Z</time>
      </trkpt>
      <trkpt lat="43.44447" lon="1.50722">
        <ele>214</ele>
        <time>2013-08-25T14:41:31Z</time>
      </trkpt>
      <trkpt lat="43.44441" lon="1.50743">
        <ele>215</ele>
        <time>2013-08-25T14:41:40Z</time>
      </trkpt>
      <trkpt lat="43.44433" lon="1.50764">
        <ele>219</ele>
        <time>2013-08-25T14:41:50Z</time>
      </trkpt>
      <trkpt lat="43.44425" lon="1.50785">
        <ele>220</ele>
        <time>2013-08-25T14:41:59Z</time>
      </trkpt>
      <trkpt lat="43.44419" lon="1.50806">
        <ele>221</ele>
        <time>2013-08-25T14:42:07Z</time>
      </trkpt>
      <trkpt lat="43.44409" lon="1.50832">
        <ele>221</ele>
        <time>2013-08-25T14:42:17Z</time>
      </trkpt>
      <trkpt lat="43.444" lon="1.50855">
        <ele>223</ele>
        <time>2013-08-25T14:42:26Z</time>
      </trkpt>
      <trkpt lat="43.44394" lon="1.50874">
        <ele>223</ele>
        <time>2013-08-25T14:42:33Z</time>
      </trkpt>
      <trkpt lat="43.44387" lon="1.50897">
        <ele>224</ele>
        <time>2013-08-25T14:42:42Z</time>
      </trkpt>
      <trkpt lat="43.44383" lon="1.50915">
        <ele>224</ele>
        <time>2013-08-25T14:42:49Z</time>
      </trkpt>
    </trkseg>
  </trk>
  <trk>
    <name><![CDATA[Tracé actuel: 25 AOU 2013 15:47]]></name>
    <trkseg>
      <trkpt lat="43.44372" lon="1.50923">
        <ele>227</ele>
        <time>2013-08-25T14:43:31Z</time>
      </trkpt>
      <trkpt lat="43.44378" lon="1.50932">
        <ele>227</ele>
        <time>2013-08-25T14:43:46Z</time>
      </trkpt>
      <trkpt lat="43.44378" lon="1.50931">
        <ele>227</ele>
        <time>2013-08-25T14:44:04Z</time>
      </trkpt>
      <trkpt lat="43.44378" lon="1.5093">
        <ele>227</ele>
        <time>2013-08-25T14:44:20Z</time>
      </trkpt>
      <trkpt lat="43.44377" lon="1.50931">
        <ele>227</ele>
        <time>2013-08-25T14:44:26Z</time>
      </trkpt>
      <trkpt lat="43.44373" lon="1.50948">
        <ele>227</ele>
        <time>2013-08-25T14:44:34Z</time>
      </trkpt>
      <trkpt lat="43.44372" lon="1.5095">
        <ele>227</ele>
        <time>2013-08-25T14:44:35Z</time>
      </trkpt>
      <trkpt lat="43.44369" lon="1.50963">
        <ele>228</ele>
        <time>2013-08-25T14:44:40Z</time>
      </trkpt>
      <trkpt lat="43.44367" lon="1.50967">
        <ele>228</ele>
        <time>2013-08-25T14:44:46Z</time>
      </trkpt>
      <trkpt lat="43.44366" lon="1.50968">
        <ele>228</ele>
        <time>2013-08-25T14:44:55Z</time>
      </trkpt>
      <trkpt lat="43.44367" lon="1.50969">
        <ele>228</ele>
        <time>2013-08-25T14:45:06Z</time>
      </trkpt>
      <trkpt lat="43.44367" lon="1.5097">
        <ele>228</ele>
        <time>2013-08-25T14:45:16Z</time>
      </trkpt>
      <trkpt lat="43.44364" lon="1.50986">
        <ele>228</ele>
        <time>2013-08-25T14:45:23Z</time>
      </trkpt>
      <trkpt lat="43.44363" lon="1.50988">
        <ele>228</ele>
        <time>2013-08-25T14:45:24Z</time>
      </trkpt>
      <trkpt lat="43.4436" lon="1.51003">
        <ele>230</ele>
        <time>2013-08-25T14:45:32Z</time>
      </trkpt>
      <trkpt lat="43.44358" lon="1.51016">
        <ele>230</ele>
        <time>2013-08-25T14:45:38Z</time>
      </trkpt>
      <trkpt lat="43.44358" lon="1.5102">
        <ele>230</ele>
        <time>2013-08-25T14:45:40Z</time>
      </trkpt>
      <trkpt lat="43.44357" lon="1.51037">
        <ele>231</ele>
        <time>2013-08-25T14:45:49Z</time>
      </trkpt>
      <trkpt lat="43.44357" lon="1.51041">
        <ele>231</ele>
        <time>2013-08-25T14:45:52Z</time>
      </trkpt>
      <trkpt lat="43.44355" lon="1.51052">
        <ele>231</ele>
        <time>2013-08-25T14:45:59Z</time>
      </trkpt>
      <trkpt lat="43.44355" lon="1.51054">
        <ele>231</ele>
        <time>2013-08-25T14:46:00Z</time>
      </trkpt>
      <trkpt lat="43.44355" lon="1.51059">
        <ele>231</ele>
        <time>2013-08-25T14:46:03Z</time>
      </trkpt>
      <trkpt lat="43.44353" lon="1.51071">
        <ele>232</ele>
        <time>2013-08-25T14:46:10Z</time>
      </trkpt>
      <trkpt lat="43.44354" lon="1.51076">
        <ele>232</ele>
        <time>2013-08-25T14:46:12Z</time>
      </trkpt>
      <trkpt lat="43.44349" lon="1.51095">
        <ele>233</ele>
        <time>2013-08-25T14:46:21Z</time>
      </trkpt>
      <trkpt lat="43.44349" lon="1.51118">
        <ele>232</ele>
        <time>2013-08-25T14:46:28Z</time>
      </trkpt>
      <trkpt lat="43.44353" lon="1.51156">
        <ele>232</ele>
        <time>2013-08-25T14:46:36Z</time>
      </trkpt>
      <trkpt lat="43.44359" lon="1.51207">
        <ele>232</ele>
        <time>2013-08-25T14:46:45Z</time>
      </trkpt>
      <trkpt lat="43.44359" lon="1.51213">
        <ele>232</ele>
        <time>2013-08-25T14:46:46Z</time>
      </trkpt>
      <trkpt lat="43.44366" lon="1.5127">
        <ele>233</ele>
        <time>2013-08-25T14:46:56Z</time>
      </trkpt>
      <trkpt lat="43.4437" lon="1.51295">
        <ele>234</ele>
        <time>2013-08-25T14:47:03Z</time>
      </trkpt>
      <trkpt lat="43.44373" lon="1.51322">
        <ele>234</ele>
        <time>2013-08-25T14:47:12Z</time>
      </trkpt>
      <trkpt lat="43.44376" lon="1.51338">
        <ele>236</ele>
        <time>2013-08-25T14:47:18Z</time>
      </trkpt>
      <trkpt lat="43.44376" lon="1.51341">
        <ele>236</ele>
        <time>2013-08-25T14:47:19Z</time>
      </trkpt>
      <trkpt lat="43.44378" lon="1.51351">
        <ele>236</ele>
        <time>2013-08-25T14:47:21Z</time>
      </trkpt>
      <trkpt lat="43.44379" lon="1.51357">
        <ele>236</ele>
        <time>2013-08-25T14:47:22Z</time>
      </trkpt>
      <trkpt lat="43.44388" lon="1.51401">
        <ele>236</ele>
        <time>2013-08-25T14:47:27Z</time>
      </trkpt>
      <trkpt lat="43.44404" lon="1.51476">
        <ele>240</ele>
        <time>2013-08-25T14:47:35Z</time>
      </trkpt>
      <trkpt lat="43.44407" lon="1.51514">
        <ele>242</ele>
        <time>2013-08-25T14:47:41Z</time>
      </trkpt>
      <trkpt lat="43.44404" lon="1.5155">
        <ele>243</ele>
        <time>2013-08-25T14:47:49Z</time>
      </trkpt>
      <trkpt lat="43.444" lon="1.51561">
        <ele>243</ele>
        <time>2013-08-25T14:47:54Z</time>
      </trkpt>
      <trkpt lat="43.44396" lon="1.5156">
        <ele>243</ele>
        <time>2013-08-25T14:48:00Z</time>
      </trkpt>
      <trkpt lat="43.44397" lon="1.5156">
        <ele>243</ele>
        <time>2013-08-25T14:48:01Z</time>
      </trkpt>
      <trkpt lat="43.44399" lon="1.51561">
        <ele>243</ele>
        <time>2013-08-25T14:48:02Z</time>
      </trkpt>
      <trkpt lat="43.44401" lon="1.51562">
        <ele>243</ele>
        <time>2013-08-25T14:48:03Z</time>
      </trkpt>
      <trkpt lat="43.44402" lon="1.51564">
        <ele>243</ele>
        <time>2013-08-25T14:48:04Z</time>
      </trkpt>
      <trkpt lat="43.44403" lon="1.51565">
        <ele>243</ele>
        <time>2013-08-25T14:48:05Z</time>
      </trkpt>
      <trkpt lat="43.44404" lon="1.51566">
        <ele>243</ele>
        <time>2013-08-25T14:48:06Z</time>
      </trkpt>
      <trkpt lat="43.44404" lon="1.51568">
        <ele>243</ele>
        <time>2013-08-25T14:48:07Z</time>
      </trkpt>
      <trkpt lat="43.44403" lon="1.5157">
        <ele>243</ele>
        <time>2013-08-25T14:48:08Z</time>
      </trkpt>
      <trkpt lat="43.44402" lon="1.5157">
        <ele>243</ele>
        <time>2013-08-25T14:48:09Z</time>
      </trkpt>
      <trkpt lat="43.44401" lon="1.51569">
        <ele>243</ele>
        <time>2013-08-25T14:48:10Z</time>
      </trkpt>
      <trkpt lat="43.44401" lon="1.51568">
        <ele>243</ele>
        <time>2013-08-25T14:48:11Z</time>
      </trkpt>
      <trkpt lat="43.44401" lon="1.51566">
        <ele>243</ele>
        <time>2013-08-25T14:48:12Z</time>
      </trkpt>
      <trkpt lat="43.44402" lon="1.51564">
        <ele>243</ele>
        <time>2013-08-25T14:48:13Z</time>
      </trkpt>
      <trkpt lat="43.44403" lon="1.51563">
        <ele>243</ele>
        <time>2013-08-25T14:48:14Z</time>
      </trkpt>
      <trkpt lat="43.44405" lon="1.51563">
        <ele>243</ele>
        <time>2013-08-25T14:48:15Z</time>
      </trkpt>
      <trkpt lat="43.44406" lon="1.51562">
        <ele>243</ele>
        <time>2013-08-25T14:48:16Z</time>
      </trkpt>
      <trkpt lat="43.44405" lon="1.51555">
        <ele>243</ele>
        <time>2013-08-25T14:48:20Z</time>
      </trkpt>
      <trkpt lat="43.444" lon="1.5156">
        <ele>243</ele>
        <time>2013-08-25T14:48:25Z</time>
      </trkpt>
      <trkpt lat="43.44396" lon="1.51562">
        <ele>243</ele>
        <time>2013-08-25T14:48:32Z</time>
      </trkpt>
      <trkpt lat="43.44396" lon="1.51564">
        <ele>243</ele>
        <time>2013-08-25T14:48:33Z</time>
      </trkpt>
      <trkpt lat="43.44402" lon="1.51567">
        <ele>243</ele>
        <time>2013-08-25T14:48:39Z</time>
      </trkpt>
      <trkpt lat="43.44407" lon="1.51568">
        <ele>243</ele>
        <time>2013-08-25T14:48:43Z</time>
      </trkpt>
      <trkpt lat="43.44401" lon="1.51561">
        <ele>243</ele>
        <time>2013-08-25T14:48:48Z</time>
      </trkpt>
      <trkpt lat="43.44392" lon="1.51563">
        <ele>243</ele>
        <time>2013-08-25T14:48:54Z</time>
      </trkpt>
      <trkpt lat="43.44389" lon="1.51562">
        <ele>243</ele>
        <time>2013-08-25T14:48:56Z</time>
      </trkpt>
    </trkseg>
  </trk>
  <trk>
    <name><![CDATA[Tracé actuel: 25 AOU 2013 15:47]]></name>
    <trkseg>
      <trkpt lat="43.4439" lon="1.51563">
        <ele>243</ele>
        <time>2013-08-25T14:52:46Z</time>
      </trkpt>
      <trkpt lat="43.44444" lon="1.51594">
        <ele>243</ele>
        <time>2013-08-25T14:52:55Z</time>
      </trkpt>
      <trkpt lat="43.44494" lon="1.51612">
        <ele>242</ele>
        <time>2013-08-25T14:53:04Z</time>
      </trkpt>
      <trkpt lat="43.4454" lon="1.5162">
        <ele>242</ele>
        <time>2013-08-25T14:53:13Z</time>
      </trkpt>
      <trkpt lat="43.44581" lon="1.51628">
        <ele>243</ele>
        <time>2013-08-25T14:53:22Z</time>
      </trkpt>
      <trkpt lat="43.44612" lon="1.51639">
        <ele>246</ele>
        <time>2013-08-25T14:53:31Z</time>
      </trkpt>
      <trkpt lat="43.44634" lon="1.51652">
        <ele>247</ele>
        <time>2013-08-25T14:53:38Z</time>
      </trkpt>
      <trkpt lat="43.44651" lon="1.51663">
        <ele>249</ele>
        <time>2013-08-25T14:53:44Z</time>
      </trkpt>
      <trkpt lat="43.44655" lon="1.51666">
        <ele>249</ele>
        <time>2013-08-25T14:53:45Z</time>
      </trkpt>
      <trkpt lat="43.4466" lon="1.51668">
        <ele>250</ele>
        <time>2013-08-25T14:53:46Z</time>
      </trkpt>
      <trkpt lat="43.44665" lon="1.51672">
        <ele>251</ele>
        <time>2013-08-25T14:53:47Z</time>
      </trkpt>
      <trkpt lat="43.4467" lon="1.51675">
        <ele>251</ele>
        <time>2013-08-25T14:53:48Z</time>
      </trkpt>
      <trkpt lat="43.44676" lon="1.51679">
        <ele>251</ele>
        <time>2013-08-25T14:53:49Z</time>
      </trkpt>
      <trkpt lat="43.44681" lon="1.51682">
        <ele>251</ele>
        <time>2013-08-25T14:53:50Z</time>
      </trkpt>
      <trkpt lat="43.44685" lon="1.51686">
        <ele>251</ele>
        <time>2013-08-25T14:53:51Z</time>
      </trkpt>
      <trkpt lat="43.44704" lon="1.51704">
        <ele>252</ele>
        <time>2013-08-25T14:53:57Z</time>
      </trkpt>
      <trkpt lat="43.44724" lon="1.51726">
        <ele>252</ele>
        <time>2013-08-25T14:54:04Z</time>
      </trkpt>
      <trkpt lat="43.44745" lon="1.51741">
        <ele>253</ele>
        <time>2013-08-25T14:54:11Z</time>
      </trkpt>
      <trkpt lat="43.44765" lon="1.51752">
        <ele>254</ele>
        <time>2013-08-25T14:54:19Z</time>
      </trkpt>
      <trkpt lat="43.44778" lon="1.51763">
        <ele>255</ele>
        <time>2013-08-25T14:54:26Z</time>
      </trkpt>
      <trkpt lat="43.44778" lon="1.51766">
        <ele>255</ele>
        <time>2013-08-25T14:54:27Z</time>
      </trkpt>
      <trkpt lat="43.44776" lon="1.51767">
        <ele>255</ele>
        <time>2013-08-25T14:54:28Z</time>
      </trkpt>
      <trkpt lat="43.44775" lon="1.51767">
        <ele>255</ele>
        <time>2013-08-25T14:54:29Z</time>
      </trkpt>
      <trkpt lat="43.44773" lon="1.51766">
        <ele>255</ele>
        <time>2013-08-25T14:54:30Z</time>
      </trkpt>
      <trkpt lat="43.44772" lon="1.51768">
        <ele>255</ele>
        <time>2013-08-25T14:54:32Z</time>
      </trkpt>
      <trkpt lat="43.4477" lon="1.51774">
        <ele>255</ele>
        <time>2013-08-25T14:54:39Z</time>
      </trkpt>
      <trkpt lat="43.4477" lon="1.51774">
        <ele>255</ele>
        <time>2013-08-25T14:54:52Z</time>
      </trkpt>
      <trkpt lat="43.44771" lon="1.51774">
        <ele>255</ele>
        <time>2013-08-25T14:55:06Z</time>
      </trkpt>
      <trkpt lat="43.4477" lon="1.51774">
        <ele>255</ele>
        <time>2013-08-25T14:55:18Z</time>
      </trkpt>
      <trkpt lat="43.44771" lon="1.51773">
        <ele>255</ele>
        <time>2013-08-25T14:55:29Z</time>
      </trkpt>
      <trkpt lat="43.44771" lon="1.51773">
        <ele>255</ele>
        <time>2013-08-25T14:55:51Z</time>
      </trkpt>
      <trkpt lat="43.44771" lon="1.51773">
        <ele>255</ele>
        <time>2013-08-25T14:56:04Z</time>
      </trkpt>
      <trkpt lat="43.44771" lon="1.51774">
        <ele>255</ele>
        <time>2013-08-25T14:56:18Z</time>
      </trkpt>
      <trkpt lat="43.44771" lon="1.51774">
        <ele>255</ele>
        <time>2013-08-25T14:56:36Z</time>
      </trkpt>
      <trkpt lat="43.44772" lon="1.51772">
        <ele>255</ele>
        <time>2013-08-25T14:56:53Z</time>
      </trkpt>
      <trkpt lat="43.44771" lon="1.51771">
        <ele>255</ele>
        <time>2013-08-25T14:57:09Z</time>
      </trkpt>
      <trkpt lat="43.44771" lon="1.51772">
        <ele>255</ele>
        <time>2013-08-25T14:57:25Z</time>
      </trkpt>
      <trkpt lat="43.44771" lon="1.51773">
        <ele>255</ele>
        <time>2013-08-25T14:57:37Z</time>
      </trkpt>
      <trkpt lat="43.44771" lon="1.51775">
        <ele>255</ele>
        <time>2013-08-25T14:57:51Z</time>
      </trkpt>
      <trkpt lat="43.44771" lon="1.51774">
        <ele>255</ele>
        <time>2013-08-25T14:58:06Z</time>
      </trkpt>
      <trkpt lat="43.4477" lon="1.51773">
        <ele>255</ele>
        <time>2013-08-25T14:58:22Z</time>
      </trkpt>
      <trkpt lat="43.4477" lon="1.51772">
        <ele>255</ele>
        <time>2013-08-25T14:58:38Z</time>
      </trkpt>
      <trkpt lat="43.4477" lon="1.51772">
        <ele>255</ele>
        <time>2013-08-25T14:58:57Z</time>
      </trkpt>
      <trkpt lat="43.4477" lon="1.51773">
        <ele>255</ele>
        <time>2013-08-25T14:59:14Z</time>
      </trkpt>
      <trkpt lat="43.4477" lon="1.51772">
        <ele>255</ele>
        <time>2013-08-25T14:59:30Z</time>
      </trkpt>
      <trkpt lat="43.44769" lon="1.51773">
        <ele>255</ele>
        <time>2013-08-25T14:59:44Z</time>
      </trkpt>
      <trkpt lat="43.44768" lon="1.51774">
        <ele>255</ele>
        <time>2013-08-25T15:00:02Z</time>
      </trkpt>
      <trkpt lat="43.44767" lon="1.51773">
        <ele>255</ele>
        <time>2013-08-25T15:00:19Z</time>
      </trkpt>
      <trkpt lat="43.44768" lon="1.51773">
        <ele>255</ele>
        <time>2013-08-25T15:00:36Z</time>
      </trkpt>
      <trkpt lat="43.44768" lon="1.51773">
        <ele>255</ele>
        <time>2013-08-25T15:00:56Z</time>
      </trkpt>
      <trkpt lat="43.44768" lon="1.51771">
        <ele>255</ele>
        <time>2013-08-25T15:01:19Z</time>
      </trkpt>
      <trkpt lat="43.44769" lon="1.51771">
        <ele>255</ele>
        <time>2013-08-25T15:01:37Z</time>
      </trkpt>
      <trkpt lat="43.4477" lon="1.51772">
        <ele>255</ele>
        <time>2013-08-25T15:01:57Z</time>
      </trkpt>
      <trkpt lat="43.44771" lon="1.51772">
        <ele>255</ele>
        <time>2013-08-25T15:02:15Z</time>
      </trkpt>
      <trkpt lat="43.44772" lon="1.51773">
        <ele>255</ele>
        <time>2013-08-25T15:02:34Z</time>
      </trkpt>
      <trkpt lat="43.44772" lon="1.51772">
        <ele>255</ele>
        <time>2013-08-25T15:02:55Z</time>
      </trkpt>
      <trkpt lat="43.44772" lon="1.51772">
        <ele>255</ele>
        <time>2013-08-25T15:03:10Z</time>
      </trkpt>
      <trkpt lat="43.44772" lon="1.51772">
        <ele>255</ele>
        <time>2013-08-25T15:03:21Z</time>
      </trkpt>
      <trkpt lat="43.44771" lon="1.51772">
        <ele>255</ele>
        <time>2013-08-25T15:03:32Z</time>
      </trkpt>
      <trkpt lat="43.44771" lon="1.51771">
        <ele>255</ele>
        <time>2013-08-25T15:03:48Z</time>
      </trkpt>
      <trkpt lat="43.44771" lon="1.51772">
        <ele>255</ele>
        <time>2013-08-25T15:03:57Z</time>
      </trkpt>
      <trkpt lat="43.44771" lon="1.51773">
        <ele>255</ele>
        <time>2013-08-25T15:03:59Z</time>
      </trkpt>
      <trkpt lat="43.44776" lon="1.51776">
        <ele>255</ele>
        <time>2013-08-25T15:04:06Z</time>
      </trkpt>
      <trkpt lat="43.44776" lon="1.51775">
        <ele>255</ele>
        <time>2013-08-25T15:04:07Z</time>
      </trkpt>
      <trkpt lat="43.44782" lon="1.51781">
        <ele>255</ele>
        <time>2013-08-25T15:04:13Z</time>
      </trkpt>
      <trkpt lat="43.44781" lon="1.51787">
        <ele>256</ele>
        <time>2013-08-25T15:04:16Z</time>
      </trkpt>
      <trkpt lat="43.44782" lon="1.51809">
        <ele>256</ele>
        <time>2013-08-25T15:04:25Z</time>
      </trkpt>
      <trkpt lat="43.44781" lon="1.51832">
        <ele>256</ele>
        <time>2013-08-25T15:04:33Z</time>
      </trkpt>
      <trkpt lat="43.4478" lon="1.51846">
        <ele>257</ele>
        <time>2013-08-25T15:04:38Z</time>
      </trkpt>
      <trkpt lat="43.44773" lon="1.51854">
        <ele>257</ele>
        <time>2013-08-25T15:04:42Z</time>
      </trkpt>
      <trkpt lat="43.44753" lon="1.51862">
        <ele>257</ele>
        <time>2013-08-25T15:04:50Z</time>
      </trkpt>
      <trkpt lat="43.44738" lon="1.51867">
        <ele>257</ele>
        <time>2013-08-25T15:04:56Z</time>
      </trkpt>
      <trkpt lat="43.44718" lon="1.51874">
        <ele>257</ele>
        <time>2013-08-25T15:05:03Z</time>
      </trkpt>
      <trkpt lat="43.44697" lon="1.5188">
        <ele>257</ele>
        <time>2013-08-25T15:05:10Z</time>
      </trkpt>
      <trkpt lat="43.44661" lon="1.5189">
        <ele>256</ele>
        <time>2013-08-25T15:05:21Z</time>
      </trkpt>
      <trkpt lat="43.4464" lon="1.51896">
        <ele>255</ele>
        <time>2013-08-25T15:05:28Z</time>
      </trkpt>
      <trkpt lat="43.44623" lon="1.51901">
        <ele>255</ele>
        <time>2013-08-25T15:05:32Z</time>
      </trkpt>
      <trkpt lat="43.44586" lon="1.51904">
        <ele>253</ele>
        <time>2013-08-25T15:05:38Z</time>
      </trkpt>
      <trkpt lat="43.44526" lon="1.51899">
        <ele>250</ele>
        <time>2013-08-25T15:05:46Z</time>
      </trkpt>
      <trkpt lat="43.44456" lon="1.51886">
        <ele>248</ele>
        <time>2013-08-25T15:05:56Z</time>
      </trkpt>
      <trkpt lat="43.4445" lon="1.51883">
        <ele>248</ele>
        <time>2013-08-25T15:05:57Z</time>
      </trkpt>
      <trkpt lat="43.44445" lon="1.51879">
        <ele>248</ele>
        <time>2013-08-25T15:05:58Z</time>
      </trkpt>
      <trkpt lat="43.4444" lon="1.51876">
        <ele>248</ele>
        <time>2013-08-25T15:05:59Z</time>
      </trkpt>
      <trkpt lat="43.44402" lon="1.5184">
        <ele>247</ele>
        <time>2013-08-25T15:06:08Z</time>
      </trkpt>
      <trkpt lat="43.44371" lon="1.51806">
        <ele>246</ele>
        <time>2013-08-25T15:06:16Z</time>
      </trkpt>
      <trkpt lat="43.44333" lon="1.51781">
        <ele>243</ele>
        <time>2013-08-25T15:06:23Z</time>
      </trkpt>
      <trkpt lat="43.44294" lon="1.51767">
        <ele>241</ele>
        <time>2013-08-25T15:06:28Z</time>
      </trkpt>
      <trkpt lat="43.44257" lon="1.51752">
        <ele>238</ele>
        <time>2013-08-25T15:06:33Z</time>
      </trkpt>
      <trkpt lat="43.44247" lon="1.51749">
        <ele>237</ele>
        <time>2013-08-25T15:06:37Z</time>
      </trkpt>
      <trkpt lat="43.44238" lon="1.51745">
        <ele>237</ele>
        <time>2013-08-25T15:06:43Z</time>
      </trkpt>
      <trkpt lat="43.44237" lon="1.51743">
        <ele>237</ele>
        <time>2013-08-25T15:06:44Z</time>
      </trkpt>
      <trkpt lat="43.44237" lon="1.51743">
        <ele>237</ele>
        <time>2013-08-25T15:06:50Z</time>
      </trkpt>
      <trkpt lat="43.44234" lon="1.51743">
        <ele>237</ele>
        <time>2013-08-25T15:06:59Z</time>
      </trkpt>
      <trkpt lat="43.44233" lon="1.51745">
        <ele>237</ele>
        <time>2013-08-25T15:07:01Z</time>
      </trkpt>
      <trkpt lat="43.44233" lon="1.51746">
        <ele>237</ele>
        <time>2013-08-25T15:07:02Z</time>
      </trkpt>
      <trkpt lat="43.44234" lon="1.51746">
        <ele>237</ele>
        <time>2013-08-25T15:07:03Z</time>
      </trkpt>
      <trkpt lat="43.44235" lon="1.51746">
        <ele>237</ele>
        <time>2013-08-25T15:07:04Z</time>
      </trkpt>
      <trkpt lat="43.44237" lon="1.51745">
        <ele>237</ele>
        <time>2013-08-25T15:07:05Z</time>
      </trkpt>
      <trkpt lat="43.44237" lon="1.51745">
        <ele>237</ele>
        <time>2013-08-25T15:07:06Z</time>
      </trkpt>
      <trkpt lat="43.44238" lon="1.51745">
        <ele>237</ele>
        <time>2013-08-25T15:07:07Z</time>
      </trkpt>
      <trkpt lat="43.44239" lon="1.51746">
        <ele>237</ele>
        <time>2013-08-25T15:07:08Z</time>
      </trkpt>
      <trkpt lat="43.44242" lon="1.5175">
        <ele>237</ele>
        <time>2013-08-25T15:07:12Z</time>
      </trkpt>
      <trkpt lat="43.44242" lon="1.51751">
        <ele>236</ele>
        <time>2013-08-25T15:07:13Z</time>
      </trkpt>
      <trkpt lat="43.44238" lon="1.51761">
        <ele>235</ele>
        <time>2013-08-25T15:07:16Z</time>
      </trkpt>
      <trkpt lat="43.44234" lon="1.51765">
        <ele>234</ele>
        <time>2013-08-25T15:07:17Z</time>
      </trkpt>
      <trkpt lat="43.44229" lon="1.51769">
        <ele>234</ele>
        <time>2013-08-25T15:07:18Z</time>
      </trkpt>
      <trkpt lat="43.44224" lon="1.51774">
        <ele>233</ele>
        <time>2013-08-25T15:07:19Z</time>
      </trkpt>
      <trkpt lat="43.44218" lon="1.5178">
        <ele>233</ele>
        <time>2013-08-25T15:07:20Z</time>
      </trkpt>
      <trkpt lat="43.44208" lon="1.5179">
        <ele>232</ele>
        <time>2013-08-25T15:07:22Z</time>
      </trkpt>
      <trkpt lat="43.44204" lon="1.51796">
        <ele>232</ele>
        <time>2013-08-25T15:07:23Z</time>
      </trkpt>
      <trkpt lat="43.442" lon="1.51803">
        <ele>231</ele>
        <time>2013-08-25T15:07:24Z</time>
      </trkpt>
      <trkpt lat="43.44171" lon="1.51864">
        <ele>226</ele>
        <time>2013-08-25T15:07:31Z</time>
      </trkpt>
      <trkpt lat="43.44141" lon="1.51926">
        <ele>215</ele>
        <time>2013-08-25T15:07:37Z</time>
      </trkpt>
      <trkpt lat="43.44137" lon="1.51934">
        <ele>214</ele>
        <time>2013-08-25T15:07:38Z</time>
      </trkpt>
      <trkpt lat="43.44111" lon="1.51949">
        <ele>212</ele>
        <time>2013-08-25T15:07:43Z</time>
      </trkpt>
      <trkpt lat="43.44106" lon="1.51947">
        <ele>212</ele>
        <time>2013-08-25T15:07:44Z</time>
      </trkpt>
      <trkpt lat="43.4407" lon="1.51926">
        <ele>209</ele>
        <time>2013-08-25T15:07:50Z</time>
      </trkpt>
      <trkpt lat="43.44019" lon="1.51892">
        <ele>206</ele>
        <time>2013-08-25T15:07:57Z</time>
      </trkpt>
      <trkpt lat="43.44011" lon="1.51885">
        <ele>206</ele>
        <time>2013-08-25T15:07:59Z</time>
      </trkpt>
      <trkpt lat="43.43995" lon="1.5189">
        <ele>205</ele>
        <time>2013-08-25T15:08:05Z</time>
      </trkpt>
      <trkpt lat="43.43986" lon="1.51889">
        <ele>205</ele>
        <time>2013-08-25T15:08:09Z</time>
      </trkpt>
      <trkpt lat="43.43972" lon="1.51893">
        <ele>205</ele>
        <time>2013-08-25T15:08:16Z</time>
      </trkpt>
      <trkpt lat="43.43969" lon="1.51894">
        <ele>206</ele>
        <time>2013-08-25T15:08:23Z</time>
      </trkpt>
      <trkpt lat="43.4397" lon="1.51895">
        <ele>205</ele>
        <time>2013-08-25T15:08:41Z</time>
      </trkpt>
      <trkpt lat="43.4397" lon="1.51895">
        <ele>205</ele>
        <time>2013-08-25T15:08:53Z</time>
      </trkpt>
      <trkpt lat="43.43968" lon="1.51896">
        <ele>206</ele>
        <time>2013-08-25T15:08:59Z</time>
      </trkpt>
      <trkpt lat="43.43967" lon="1.51896">
        <ele>206</ele>
        <time>2013-08-25T15:09:09Z</time>
      </trkpt>
      <trkpt lat="43.43967" lon="1.51896">
        <ele>206</ele>
        <time>2013-08-25T15:09:19Z</time>
      </trkpt>
      <trkpt lat="43.43965" lon="1.51896">
        <ele>206</ele>
        <time>2013-08-25T15:09:30Z</time>
      </trkpt>
      <trkpt lat="43.43955" lon="1.51899">
        <ele>206</ele>
        <time>2013-08-25T15:09:37Z</time>
      </trkpt>
      <trkpt lat="43.43944" lon="1.51904">
        <ele>206</ele>
        <time>2013-08-25T15:09:45Z</time>
      </trkpt>
      <trkpt lat="43.43931" lon="1.51908">
        <ele>207</ele>
        <time>2013-08-25T15:09:53Z</time>
      </trkpt>
      <trkpt lat="43.4392" lon="1.51909">
        <ele>207</ele>
        <time>2013-08-25T15:10:00Z</time>
      </trkpt>
      <trkpt lat="43.43907" lon="1.5191">
        <ele>208</ele>
        <time>2013-08-25T15:10:08Z</time>
      </trkpt>
      <trkpt lat="43.43897" lon="1.5191">
        <ele>209</ele>
        <time>2013-08-25T15:10:15Z</time>
      </trkpt>
      <trkpt lat="43.43883" lon="1.51909">
        <ele>209</ele>
        <time>2013-08-25T15:10:23Z</time>
      </trkpt>
      <trkpt lat="43.43868" lon="1.51908">
        <ele>209</ele>
        <time>2013-08-25T15:10:31Z</time>
      </trkpt>
      <trkpt lat="43.43848" lon="1.51906">
        <ele>210</ele>
        <time>2013-08-25T15:10:41Z</time>
      </trkpt>
      <trkpt lat="43.43833" lon="1.51903">
        <ele>210</ele>
        <time>2013-08-25T15:10:49Z</time>
      </trkpt>
      <trkpt lat="43.43812" lon="1.51902">
        <ele>213</ele>
        <time>2013-08-25T15:11:00Z</time>
      </trkpt>
      <trkpt lat="43.43795" lon="1.51901">
        <ele>213</ele>
        <time>2013-08-25T15:11:09Z</time>
      </trkpt>
      <trkpt lat="43.43776" lon="1.51898">
        <ele>214</ele>
        <time>2013-08-25T15:11:19Z</time>
      </trkpt>
      <trkpt lat="43.4375" lon="1.51895">
        <ele>218</ele>
        <time>2013-08-25T15:11:31Z</time>
      </trkpt>
      <trkpt lat="43.43733" lon="1.51893">
        <ele>218</ele>
        <time>2013-08-25T15:11:39Z</time>
      </trkpt>
      <trkpt lat="43.43718" lon="1.51891">
        <ele>219</ele>
        <time>2013-08-25T15:11:47Z</time>
      </trkpt>
      <trkpt lat="43.43701" lon="1.5189">
        <ele>220</ele>
        <time>2013-08-25T15:11:56Z</time>
      </trkpt>
      <trkpt lat="43.43686" lon="1.51889">
        <ele>220</ele>
        <time>2013-08-25T15:12:04Z</time>
      </trkpt>
      <trkpt lat="43.43671" lon="1.51885">
        <ele>221</ele>
        <time>2013-08-25T15:12:13Z</time>
      </trkpt>
      <trkpt lat="43.43656" lon="1.51885">
        <ele>227</ele>
        <time>2013-08-25T15:12:22Z</time>
      </trkpt>
      <trkpt lat="43.4364" lon="1.51883">
        <ele>228</ele>
        <time>2013-08-25T15:12:32Z</time>
      </trkpt>
      <trkpt lat="43.43628" lon="1.51882">
        <ele>228</ele>
        <time>2013-08-25T15:12:40Z</time>
      </trkpt>
      <trkpt lat="43.43617" lon="1.5188">
        <ele>229</ele>
        <time>2013-08-25T15:12:47Z</time>
      </trkpt>
      <trkpt lat="43.43603" lon="1.51879">
        <ele>230</ele>
        <time>2013-08-25T15:12:57Z</time>
      </trkpt>
      <trkpt lat="43.43592" lon="1.51878">
        <ele>230</ele>
        <time>2013-08-25T15:13:05Z</time>
      </trkpt>
      <trkpt lat="43.43581" lon="1.51879">
        <ele>236</ele>
        <time>2013-08-25T15:13:13Z</time>
      </trkpt>
      <trkpt lat="43.43567" lon="1.51882">
        <ele>237</ele>
        <time>2013-08-25T15:13:24Z</time>
      </trkpt>
      <trkpt lat="43.43556" lon="1.51885">
        <ele>237</ele>
        <time>2013-08-25T15:13:32Z</time>
      </trkpt>
      <trkpt lat="43.43541" lon="1.5189">
        <ele>238</ele>
        <time>2013-08-25T15:13:43Z</time>
      </trkpt>
      <trkpt lat="43.43527" lon="1.51893">
        <ele>238</ele>
        <time>2013-08-25T15:13:52Z</time>
      </trkpt>
      <trkpt lat="43.43518" lon="1.51894">
        <ele>239</ele>
        <time>2013-08-25T15:13:59Z</time>
      </trkpt>
      <trkpt lat="43.43518" lon="1.51895">
        <ele>239</ele>
        <time>2013-08-25T15:14:06Z</time>
      </trkpt>
      <trkpt lat="43.43518" lon="1.51895">
        <ele>239</ele>
        <time>2013-08-25T15:14:21Z</time>
      </trkpt>
      <trkpt lat="43.4352" lon="1.51896">
        <ele>239</ele>
        <time>2013-08-25T15:14:27Z</time>
      </trkpt>
      <trkpt lat="43.4352" lon="1.51896">
        <ele>239</ele>
        <time>2013-08-25T15:14:38Z</time>
      </trkpt>
      <trkpt lat="43.43519" lon="1.51896">
        <ele>239</ele>
        <time>2013-08-25T15:14:51Z</time>
      </trkpt>
      <trkpt lat="43.43519" lon="1.51896">
        <ele>239</ele>
        <time>2013-08-25T15:15:01Z</time>
      </trkpt>
      <trkpt lat="43.43519" lon="1.51896">
        <ele>239</ele>
        <time>2013-08-25T15:15:17Z</time>
      </trkpt>
      <trkpt lat="43.43519" lon="1.51896">
        <ele>239</ele>
        <time>2013-08-25T15:15:33Z</time>
      </trkpt>
      <trkpt lat="43.43519" lon="1.51896">
        <ele>239</ele>
        <time>2013-08-25T15:15:50Z</time>
      </trkpt>
      <trkpt lat="43.43519" lon="1.51896">
        <ele>239</ele>
        <time>2013-08-25T15:16:06Z</time>
      </trkpt>
      <trkpt lat="43.43519" lon="1.51896">
        <ele>239</ele>
        <time>2013-08-25T15:16:22Z</time>
      </trkpt>
      <trkpt lat="43.43519" lon="1.51896">
        <ele>239</ele>
        <time>2013-08-25T15:16:34Z</time>
      </trkpt>
      <trkpt lat="43.43519" lon="1.51896">
        <ele>239</ele>
        <time>2013-08-25T15:16:50Z</time>
      </trkpt>
      <trkpt lat="43.43519" lon="1.51896">
        <ele>239</ele>
        <time>2013-08-25T15:17:04Z</time>
      </trkpt>
      <trkpt lat="43.43519" lon="1.51896">
        <ele>239</ele>
        <time>2013-08-25T15:17:16Z</time>
      </trkpt>
      <trkpt lat="43.43518" lon="1.51896">
        <ele>239</ele>
        <time>2013-08-25T15:17:22Z</time>
      </trkpt>
      <trkpt lat="43.43518" lon="1.51896">
        <ele>239</ele>
        <time>2013-08-25T15:17:25Z</time>
      </trkpt>
      <trkpt lat="43.43516" lon="1.519">
        <ele>240</ele>
        <time>2013-08-25T15:17:29Z</time>
      </trkpt>
      <trkpt lat="43.43513" lon="1.51907">
        <ele>240</ele>
        <time>2013-08-25T15:17:32Z</time>
      </trkpt>
      <trkpt lat="43.43511" lon="1.51924">
        <ele>241</ele>
        <time>2013-08-25T15:17:38Z</time>
      </trkpt>
      <trkpt lat="43.43507" lon="1.51956">
        <ele>241</ele>
        <time>2013-08-25T15:17:49Z</time>
      </trkpt>
      <trkpt lat="43.43502" lon="1.51985">
        <ele>241</ele>
        <time>2013-08-25T15:17:58Z</time>
      </trkpt>
      <trkpt lat="43.435" lon="1.5201">
        <ele>243</ele>
        <time>2013-08-25T15:18:06Z</time>
      </trkpt>
      <trkpt lat="43.43495" lon="1.52043">
        <ele>243</ele>
        <time>2013-08-25T15:18:16Z</time>
      </trkpt>
      <trkpt lat="43.43491" lon="1.52069">
        <ele>244</ele>
        <time>2013-08-25T15:18:24Z</time>
      </trkpt>
      <trkpt lat="43.43489" lon="1.52095">
        <ele>245</ele>
        <time>2013-08-25T15:18:32Z</time>
      </trkpt>
      <trkpt lat="43.43486" lon="1.52123">
        <ele>245</ele>
        <time>2013-08-25T15:18:41Z</time>
      </trkpt>
      <trkpt lat="43.43481" lon="1.52154">
        <ele>246</ele>
        <time>2013-08-25T15:18:51Z</time>
      </trkpt>
      <trkpt lat="43.43478" lon="1.52177">
        <ele>247</ele>
        <time>2013-08-25T15:18:59Z</time>
      </trkpt>
      <trkpt lat="43.43474" lon="1.52205">
        <ele>246</ele>
        <time>2013-08-25T15:19:08Z</time>
      </trkpt>
      <trkpt lat="43.4347" lon="1.52237">
        <ele>246</ele>
        <time>2013-08-25T15:19:18Z</time>
      </trkpt>
      <trkpt lat="43.43466" lon="1.52261">
        <ele>246</ele>
        <time>2013-08-25T15:19:26Z</time>
      </trkpt>
      <trkpt lat="43.43463" lon="1.52277">
        <ele>246</ele>
        <time>2013-08-25T15:19:32Z</time>
      </trkpt>
      <trkpt lat="43.43461" lon="1.52293">
        <ele>246</ele>
        <time>2013-08-25T15:19:37Z</time>
      </trkpt>
      <trkpt lat="43.43456" lon="1.52321">
        <ele>246</ele>
        <time>2013-08-25T15:19:46Z</time>
      </trkpt>
      <trkpt lat="43.43453" lon="1.52341">
        <ele>246</ele>
        <time>2013-08-25T15:19:52Z</time>
      </trkpt>
      <trkpt lat="43.43448" lon="1.5237">
        <ele>247</ele>
        <time>2013-08-25T15:20:01Z</time>
      </trkpt>
      <trkpt lat="43.43443" lon="1.524">
        <ele>248</ele>
        <time>2013-08-25T15:20:10Z</time>
      </trkpt>
      <trkpt lat="43.43437" lon="1.52434">
        <ele>249</ele>
        <time>2013-08-25T15:20:21Z</time>
      </trkpt>
      <trkpt lat="43.43431" lon="1.52464">
        <ele>250</ele>
        <time>2013-08-25T15:20:31Z</time>
      </trkpt>
      <trkpt lat="43.43422" lon="1.52494">
        <ele>253</ele>
        <time>2013-08-25T15:20:41Z</time>
      </trkpt>
      <trkpt lat="43.43418" lon="1.52512">
        <ele>253</ele>
        <time>2013-08-25T15:20:48Z</time>
      </trkpt>
      <trkpt lat="43.43411" lon="1.52533">
        <ele>253</ele>
        <time>2013-08-25T15:20:56Z</time>
      </trkpt>
      <trkpt lat="43.43406" lon="1.52551">
        <ele>253</ele>
        <time>2013-08-25T15:21:03Z</time>
      </trkpt>
      <trkpt lat="43.43399" lon="1.52575">
        <ele>254</ele>
        <time>2013-08-25T15:21:11Z</time>
      </trkpt>
      <trkpt lat="43.4339" lon="1.52602">
        <ele>254</ele>
        <time>2013-08-25T15:21:19Z</time>
      </trkpt>
      <trkpt lat="43.43378" lon="1.52643">
        <ele>254</ele>
        <time>2013-08-25T15:21:29Z</time>
      </trkpt>
      <trkpt lat="43.43367" lon="1.52679">
        <ele>255</ele>
        <time>2013-08-25T15:21:38Z</time>
      </trkpt>
      <trkpt lat="43.43358" lon="1.52706">
        <ele>255</ele>
        <time>2013-08-25T15:21:45Z</time>
      </trkpt>
      <trkpt lat="43.43346" lon="1.52734">
        <ele>256</ele>
        <time>2013-08-25T15:21:52Z</time>
      </trkpt>
      <trkpt lat="43.43327" lon="1.52767">
        <ele>257</ele>
        <time>2013-08-25T15:22:00Z</time>
      </trkpt>
      <trkpt lat="43.433" lon="1.52802">
        <ele>256</ele>
        <time>2013-08-25T15:22:08Z</time>
      </trkpt>
      <trkpt lat="43.43292" lon="1.52813">
        <ele>255</ele>
        <time>2013-08-25T15:22:10Z</time>
      </trkpt>
      <trkpt lat="43.4328" lon="1.52837">
        <ele>256</ele>
        <time>2013-08-25T15:22:14Z</time>
      </trkpt>
      <trkpt lat="43.43277" lon="1.52843">
        <ele>255</ele>
        <time>2013-08-25T15:22:15Z</time>
      </trkpt>
      <trkpt lat="43.43275" lon="1.5285">
        <ele>255</ele>
        <time>2013-08-25T15:22:16Z</time>
      </trkpt>
      <trkpt lat="43.43269" lon="1.52879">
        <ele>255</ele>
        <time>2013-08-25T15:22:20Z</time>
      </trkpt>
      <trkpt lat="43.43268" lon="1.52886">
        <ele>255</ele>
        <time>2013-08-25T15:22:21Z</time>
      </trkpt>
      <trkpt lat="43.43269" lon="1.52894">
        <ele>255</ele>
        <time>2013-08-25T15:22:22Z</time>
      </trkpt>
      <trkpt lat="43.43277" lon="1.52954">
        <ele>254</ele>
        <time>2013-08-25T15:22:31Z</time>
      </trkpt>
      <trkpt lat="43.43289" lon="1.53008">
        <ele>251</ele>
        <time>2013-08-25T15:22:39Z</time>
      </trkpt>
      <trkpt lat="43.43305" lon="1.5309">
        <ele>250</ele>
        <time>2013-08-25T15:22:49Z</time>
      </trkpt>
      <trkpt lat="43.43318" lon="1.53153">
        <ele>251</ele>
        <time>2013-08-25T15:22:57Z</time>
      </trkpt>
      <trkpt lat="43.43327" lon="1.53196">
        <ele>251</ele>
        <time>2013-08-25T15:23:04Z</time>
      </trkpt>
      <trkpt lat="43.43337" lon="1.53248">
        <ele>255</ele>
        <time>2013-08-25T15:23:14Z</time>
      </trkpt>
      <trkpt lat="43.43342" lon="1.53277">
        <ele>255</ele>
        <time>2013-08-25T15:23:20Z</time>
      </trkpt>
      <trkpt lat="43.43355" lon="1.53325">
        <ele>256</ele>
        <time>2013-08-25T15:23:30Z</time>
      </trkpt>
      <trkpt lat="43.43368" lon="1.53368">
        <ele>255</ele>
        <time>2013-08-25T15:23:37Z</time>
      </trkpt>
      <trkpt lat="43.43378" lon="1.53405">
        <ele>255</ele>
        <time>2013-08-25T15:23:42Z</time>
      </trkpt>
      <trkpt lat="43.43385" lon="1.53454">
        <ele>255</ele>
        <time>2013-08-25T15:23:49Z</time>
      </trkpt>
      <trkpt lat="43.43389" lon="1.53489">
        <ele>255</ele>
        <time>2013-08-25T15:23:56Z</time>
      </trkpt>
      <trkpt lat="43.43391" lon="1.53519">
        <ele>256</ele>
        <time>2013-08-25T15:24:04Z</time>
      </trkpt>
      <trkpt lat="43.43392" lon="1.53539">
        <ele>256</ele>
        <time>2013-08-25T15:24:12Z</time>
      </trkpt>
      <trkpt lat="43.43392" lon="1.53547">
        <ele>256</ele>
        <time>2013-08-25T15:24:16Z</time>
      </trkpt>
      <trkpt lat="43.43392" lon="1.53561">
        <ele>256</ele>
        <time>2013-08-25T15:24:22Z</time>
      </trkpt>
      <trkpt lat="43.43395" lon="1.53591">
        <ele>259</ele>
        <time>2013-08-25T15:24:32Z</time>
      </trkpt>
      <trkpt lat="43.43398" lon="1.53624">
        <ele>259</ele>
        <time>2013-08-25T15:24:43Z</time>
      </trkpt>
      <trkpt lat="43.434" lon="1.53656">
        <ele>260</ele>
        <time>2013-08-25T15:24:54Z</time>
      </trkpt>
      <trkpt lat="43.43402" lon="1.53686">
        <ele>262</ele>
        <time>2013-08-25T15:25:04Z</time>
      </trkpt>
      <trkpt lat="43.43405" lon="1.53724">
        <ele>262</ele>
        <time>2013-08-25T15:25:16Z</time>
      </trkpt>
      <trkpt lat="43.43408" lon="1.53753">
        <ele>265</ele>
        <time>2013-08-25T15:25:25Z</time>
      </trkpt>
      <trkpt lat="43.4341" lon="1.53791">
        <ele>265</ele>
        <time>2013-08-25T15:25:37Z</time>
      </trkpt>
      <trkpt lat="43.43411" lon="1.53812">
        <ele>265</ele>
        <time>2013-08-25T15:25:43Z</time>
      </trkpt>
      <trkpt lat="43.43412" lon="1.5385">
        <ele>266</ele>
        <time>2013-08-25T15:25:52Z</time>
      </trkpt>
      <trkpt lat="43.43414" lon="1.53894">
        <ele>264</ele>
        <time>2013-08-25T15:26:00Z</time>
      </trkpt>
      <trkpt lat="43.4342" lon="1.53952">
        <ele>262</ele>
        <time>2013-08-25T15:26:07Z</time>
      </trkpt>
      <trkpt lat="43.43433" lon="1.54028">
        <ele>262</ele>
        <time>2013-08-25T15:26:15Z</time>
      </trkpt>
      <trkpt lat="43.43443" lon="1.54088">
        <ele>263</ele>
        <time>2013-08-25T15:26:22Z</time>
      </trkpt>
      <trkpt lat="43.43443" lon="1.54096">
        <ele>263</ele>
        <time>2013-08-25T15:26:23Z</time>
      </trkpt>
      <trkpt lat="43.43436" lon="1.54157">
        <ele>264</ele>
        <time>2013-08-25T15:26:32Z</time>
      </trkpt>
      <trkpt lat="43.43424" lon="1.54227">
        <ele>265</ele>
        <time>2013-08-25T15:26:44Z</time>
      </trkpt>
      <trkpt lat="43.43419" lon="1.54284">
        <ele>266</ele>
        <time>2013-08-25T15:26:55Z</time>
      </trkpt>
      <trkpt lat="43.43426" lon="1.54319">
        <ele>267</ele>
        <time>2013-08-25T15:27:02Z</time>
      </trkpt>
      <trkpt lat="43.43438" lon="1.54344">
        <ele>268</ele>
        <time>2013-08-25T15:27:09Z</time>
      </trkpt>
      <trkpt lat="43.4345" lon="1.54364">
        <ele>267</ele>
        <time>2013-08-25T15:27:15Z</time>
      </trkpt>
      <trkpt lat="43.4346" lon="1.54386">
        <ele>267</ele>
        <time>2013-08-25T15:27:20Z</time>
      </trkpt>
      <trkpt lat="43.43463" lon="1.54391">
        <ele>267</ele>
        <time>2013-08-25T15:27:21Z</time>
      </trkpt>
      <trkpt lat="43.4347" lon="1.54411">
        <ele>267</ele>
        <time>2013-08-25T15:27:25Z</time>
      </trkpt>
      <trkpt lat="43.43471" lon="1.54417">
        <ele>267</ele>
        <time>2013-08-25T15:27:26Z</time>
      </trkpt>
      <trkpt lat="43.43473" lon="1.54461">
        <ele>266</ele>
        <time>2013-08-25T15:27:34Z</time>
      </trkpt>
      <trkpt lat="43.43476" lon="1.54516">
        <ele>266</ele>
        <time>2013-08-25T15:27:43Z</time>
      </trkpt>
      <trkpt lat="43.43476" lon="1.54579">
        <ele>266</ele>
        <time>2013-08-25T15:27:52Z</time>
      </trkpt>
      <trkpt lat="43.43479" lon="1.54642">
        <ele>266</ele>
        <time>2013-08-25T15:28:00Z</time>
      </trkpt>
      <trkpt lat="43.43478" lon="1.54714">
        <ele>263</ele>
        <time>2013-08-25T15:28:08Z</time>
      </trkpt>
      <trkpt lat="43.43482" lon="1.54809">
        <ele>260</ele>
        <time>2013-08-25T15:28:17Z</time>
      </trkpt>
      <trkpt lat="43.43486" lon="1.54831">
        <ele>258</ele>
        <time>2013-08-25T15:28:19Z</time>
      </trkpt>
      <trkpt lat="43.43489" lon="1.54842">
        <ele>258</ele>
        <time>2013-08-25T15:28:20Z</time>
      </trkpt>
      <trkpt lat="43.43493" lon="1.54852">
        <ele>258</ele>
        <time>2013-08-25T15:28:21Z</time>
      </trkpt>
      <trkpt lat="43.43498" lon="1.54862">
        <ele>259</ele>
        <time>2013-08-25T15:28:22Z</time>
      </trkpt>
      <trkpt lat="43.43503" lon="1.54872">
        <ele>256</ele>
        <time>2013-08-25T15:28:23Z</time>
      </trkpt>
      <trkpt lat="43.43509" lon="1.54881">
        <ele>256</ele>
        <time>2013-08-25T15:28:24Z</time>
      </trkpt>
      <trkpt lat="43.43516" lon="1.5489">
        <ele>256</ele>
        <time>2013-08-25T15:28:25Z</time>
      </trkpt>
      <trkpt lat="43.43523" lon="1.54898">
        <ele>256</ele>
        <time>2013-08-25T15:28:26Z</time>
      </trkpt>
      <trkpt lat="43.4353" lon="1.54905">
        <ele>256</ele>
        <time>2013-08-25T15:28:27Z</time>
      </trkpt>
      <trkpt lat="43.43567" lon="1.5494">
        <ele>257</ele>
        <time>2013-08-25T15:28:33Z</time>
      </trkpt>
      <trkpt lat="43.43594" lon="1.54969">
        <ele>258</ele>
        <time>2013-08-25T15:28:40Z</time>
      </trkpt>
      <trkpt lat="43.43608" lon="1.54979">
        <ele>258</ele>
        <time>2013-08-25T15:28:44Z</time>
      </trkpt>
      <trkpt lat="43.4361" lon="1.54983">
        <ele>258</ele>
        <time>2013-08-25T15:28:45Z</time>
      </trkpt>
      <trkpt lat="43.43613" lon="1.54986">
        <ele>258</ele>
        <time>2013-08-25T15:28:46Z</time>
      </trkpt>
      <trkpt lat="43.43616" lon="1.5499">
        <ele>258</ele>
        <time>2013-08-25T15:28:47Z</time>
      </trkpt>
      <trkpt lat="43.43619" lon="1.54993">
        <ele>258</ele>
        <time>2013-08-25T15:28:48Z</time>
      </trkpt>
      <trkpt lat="43.43644" lon="1.55016">
        <ele>259</ele>
        <time>2013-08-25T15:28:56Z</time>
      </trkpt>
      <trkpt lat="43.43654" lon="1.55025">
        <ele>259</ele>
        <time>2013-08-25T15:28:59Z</time>
      </trkpt>
      <trkpt lat="43.43657" lon="1.55029">
        <ele>259</ele>
        <time>2013-08-25T15:29:00Z</time>
      </trkpt>
      <trkpt lat="43.4366" lon="1.55033">
        <ele>259</ele>
        <time>2013-08-25T15:29:01Z</time>
      </trkpt>
      <trkpt lat="43.43664" lon="1.55037">
        <ele>259</ele>
        <time>2013-08-25T15:29:02Z</time>
      </trkpt>
      <trkpt lat="43.43669" lon="1.55041">
        <ele>257</ele>
        <time>2013-08-25T15:29:03Z</time>
      </trkpt>
      <trkpt lat="43.43678" lon="1.55051">
        <ele>257</ele>
        <time>2013-08-25T15:29:05Z</time>
      </trkpt>
      <trkpt lat="43.43722" lon="1.55107">
        <ele>257</ele>
        <time>2013-08-25T15:29:14Z</time>
      </trkpt>
      <trkpt lat="43.43745" lon="1.55138">
        <ele>258</ele>
        <time>2013-08-25T15:29:19Z</time>
      </trkpt>
      <trkpt lat="43.43774" lon="1.55177">
        <ele>261</ele>
        <time>2013-08-25T15:29:25Z</time>
      </trkpt>
      <trkpt lat="43.43787" lon="1.55195">
        <ele>262</ele>
        <time>2013-08-25T15:29:30Z</time>
      </trkpt>
      <trkpt lat="43.43797" lon="1.55215">
        <ele>263</ele>
        <time>2013-08-25T15:29:37Z</time>
      </trkpt>
      <trkpt lat="43.43802" lon="1.5522">
        <ele>263</ele>
        <time>2013-08-25T15:29:40Z</time>
      </trkpt>
      <trkpt lat="43.43804" lon="1.5522">
        <ele>263</ele>
        <time>2013-08-25T15:29:41Z</time>
      </trkpt>
      <trkpt lat="43.43806" lon="1.5522">
        <ele>263</ele>
        <time>2013-08-25T15:29:42Z</time>
      </trkpt>
      <trkpt lat="43.43808" lon="1.55221">
        <ele>263</ele>
        <time>2013-08-25T15:29:43Z</time>
      </trkpt>
      <trkpt lat="43.4381" lon="1.55223">
        <ele>263</ele>
        <time>2013-08-25T15:29:44Z</time>
      </trkpt>
      <trkpt lat="43.43811" lon="1.55225">
        <ele>263</ele>
        <time>2013-08-25T15:29:45Z</time>
      </trkpt>
      <trkpt lat="43.43812" lon="1.55228">
        <ele>263</ele>
        <time>2013-08-25T15:29:46Z</time>
      </trkpt>
      <trkpt lat="43.43813" lon="1.5523">
        <ele>264</ele>
        <time>2013-08-25T15:29:47Z</time>
      </trkpt>
      <trkpt lat="43.43814" lon="1.55231">
        <ele>264</ele>
        <time>2013-08-25T15:29:48Z</time>
      </trkpt>
      <trkpt lat="43.43816" lon="1.5523">
        <ele>264</ele>
        <time>2013-08-25T15:29:49Z</time>
      </trkpt>
      <trkpt lat="43.43817" lon="1.55229">
        <ele>264</ele>
        <time>2013-08-25T15:29:50Z</time>
      </trkpt>
      <trkpt lat="43.43816" lon="1.55227">
        <ele>264</ele>
        <time>2013-08-25T15:29:51Z</time>
      </trkpt>
      <trkpt lat="43.43806" lon="1.55216">
        <ele>263</ele>
        <time>2013-08-25T15:29:59Z</time>
      </trkpt>
      <trkpt lat="43.43801" lon="1.55209">
        <ele>263</ele>
        <time>2013-08-25T15:30:04Z</time>
      </trkpt>
      <trkpt lat="43.43796" lon="1.55212">
        <ele>263</ele>
        <time>2013-08-25T15:30:10Z</time>
      </trkpt>
      <trkpt lat="43.43792" lon="1.55205">
        <ele>263</ele>
        <time>2013-08-25T15:30:13Z</time>
      </trkpt>
      <trkpt lat="43.43786" lon="1.55187">
        <ele>262</ele>
        <time>2013-08-25T15:30:19Z</time>
      </trkpt>
      <trkpt lat="43.43784" lon="1.55184">
        <ele>262</ele>
        <time>2013-08-25T15:30:21Z</time>
      </trkpt>
      <trkpt lat="43.43783" lon="1.5519">
        <ele>262</ele>
        <time>2013-08-25T15:30:26Z</time>
      </trkpt>
      <trkpt lat="43.43784" lon="1.55191">
        <ele>262</ele>
        <time>2013-08-25T15:30:27Z</time>
      </trkpt>
      <trkpt lat="43.43793" lon="1.55207">
        <ele>263</ele>
        <time>2013-08-25T15:30:36Z</time>
      </trkpt>
      <trkpt lat="43.43795" lon="1.55214">
        <ele>263</ele>
        <time>2013-08-25T15:30:39Z</time>
      </trkpt>
      <trkpt lat="43.43802" lon="1.55218">
        <ele>263</ele>
        <time>2013-08-25T15:30:45Z</time>
      </trkpt>
      <trkpt lat="43.43805" lon="1.55223">
        <ele>263</ele>
        <time>2013-08-25T15:30:49Z</time>
      </trkpt>
      <trkpt lat="43.43807" lon="1.55223">
        <ele>263</ele>
        <time>2013-08-25T15:30:51Z</time>
      </trkpt>
      <trkpt lat="43.43803" lon="1.55213">
        <ele>263</ele>
        <time>2013-08-25T15:30:57Z</time>
      </trkpt>
      <trkpt lat="43.43798" lon="1.55216">
        <ele>263</ele>
        <time>2013-08-25T15:31:01Z</time>
      </trkpt>
      <trkpt lat="43.43806" lon="1.55223">
        <ele>263</ele>
        <time>2013-08-25T15:31:07Z</time>
      </trkpt>
      <trkpt lat="43.43816" lon="1.55233">
        <ele>264</ele>
        <time>2013-08-25T15:31:13Z</time>
      </trkpt>
      <trkpt lat="43.43833" lon="1.55248">
        <ele>265</ele>
        <time>2013-08-25T15:31:21Z</time>
      </trkpt>
      <trkpt lat="43.4385" lon="1.55264">
        <ele>266</ele>
        <time>2013-08-25T15:31:29Z</time>
      </trkpt>
      <trkpt lat="43.43861" lon="1.55272">
        <ele>266</ele>
        <time>2013-08-25T15:31:34Z</time>
      </trkpt>
      <trkpt lat="43.43877" lon="1.55287">
        <ele>267</ele>
        <time>2013-08-25T15:31:41Z</time>
      </trkpt>
      <trkpt lat="43.43883" lon="1.55293">
        <ele>267</ele>
        <time>2013-08-25T15:31:44Z</time>
      </trkpt>
      <trkpt lat="43.43893" lon="1.55304">
        <ele>267</ele>
        <time>2013-08-25T15:31:49Z</time>
      </trkpt>
      <trkpt lat="43.439" lon="1.55307">
        <ele>268</ele>
        <time>2013-08-25T15:31:52Z</time>
      </trkpt>
      <trkpt lat="43.43909" lon="1.55318">
        <ele>268</ele>
        <time>2013-08-25T15:31:58Z</time>
      </trkpt>
      <trkpt lat="43.43911" lon="1.5532">
        <ele>268</ele>
        <time>2013-08-25T15:31:59Z</time>
      </trkpt>
      <trkpt lat="43.43924" lon="1.55334">
        <ele>269</ele>
        <time>2013-08-25T15:32:06Z</time>
      </trkpt>
      <trkpt lat="43.43937" lon="1.55354">
        <ele>268</ele>
        <time>2013-08-25T15:32:14Z</time>
      </trkpt>
      <trkpt lat="43.43947" lon="1.55361">
        <ele>268</ele>
        <time>2013-08-25T15:32:19Z</time>
      </trkpt>
      <trkpt lat="43.43953" lon="1.55369">
        <ele>268</ele>
        <time>2013-08-25T15:32:25Z</time>
      </trkpt>
      <trkpt lat="43.43955" lon="1.55379">
        <ele>267</ele>
        <time>2013-08-25T15:32:31Z</time>
      </trkpt>
      <trkpt lat="43.43963" lon="1.55387">
        <ele>267</ele>
        <time>2013-08-25T15:32:37Z</time>
      </trkpt>
      <trkpt lat="43.43981" lon="1.55407">
        <ele>267</ele>
        <time>2013-08-25T15:32:42Z</time>
      </trkpt>
      <trkpt lat="43.44011" lon="1.55439">
        <ele>262</ele>
        <time>2013-08-25T15:32:47Z</time>
      </trkpt>
      <trkpt lat="43.44057" lon="1.55487">
        <ele>258</ele>
        <time>2013-08-25T15:32:53Z</time>
      </trkpt>
      <trkpt lat="43.4412" lon="1.55553">
        <ele>252</ele>
        <time>2013-08-25T15:33:00Z</time>
      </trkpt>
      <trkpt lat="43.44194" lon="1.55635">
        <ele>245</ele>
        <time>2013-08-25T15:33:08Z</time>
      </trkpt>
      <trkpt lat="43.44227" lon="1.55692">
        <ele>245</ele>
        <time>2013-08-25T15:33:13Z</time>
      </trkpt>
      <trkpt lat="43.44234" lon="1.55701">
        <ele>246</ele>
        <time>2013-08-25T15:33:14Z</time>
      </trkpt>
      <trkpt lat="43.44242" lon="1.55708">
        <ele>246</ele>
        <time>2013-08-25T15:33:15Z</time>
      </trkpt>
      <trkpt lat="43.44249" lon="1.55713">
        <ele>246</ele>
        <time>2013-08-25T15:33:16Z</time>
      </trkpt>
      <trkpt lat="43.44257" lon="1.55716">
        <ele>246</ele>
        <time>2013-08-25T15:33:17Z</time>
      </trkpt>
      <trkpt lat="43.44264" lon="1.55718">
        <ele>246</ele>
        <time>2013-08-25T15:33:18Z</time>
      </trkpt>
      <trkpt lat="43.44291" lon="1.55724">
        <ele>246</ele>
        <time>2013-08-25T15:33:23Z</time>
      </trkpt>
      <trkpt lat="43.44296" lon="1.55725">
        <ele>246</ele>
        <time>2013-08-25T15:33:24Z</time>
      </trkpt>
      <trkpt lat="43.443" lon="1.55725">
        <ele>246</ele>
        <time>2013-08-25T15:33:25Z</time>
      </trkpt>
      <trkpt lat="43.44305" lon="1.55726">
        <ele>246</ele>
        <time>2013-08-25T15:33:26Z</time>
      </trkpt>
      <trkpt lat="43.4431" lon="1.55728">
        <ele>246</ele>
        <time>2013-08-25T15:33:27Z</time>
      </trkpt>
      <trkpt lat="43.44315" lon="1.55729">
        <ele>246</ele>
        <time>2013-08-25T15:33:28Z</time>
      </trkpt>
      <trkpt lat="43.44349" lon="1.55737">
        <ele>246</ele>
        <time>2013-08-25T15:33:34Z</time>
      </trkpt>
      <trkpt lat="43.44374" lon="1.55746">
        <ele>246</ele>
        <time>2013-08-25T15:33:41Z</time>
      </trkpt>
      <trkpt lat="43.44403" lon="1.55761">
        <ele>247</ele>
        <time>2013-08-25T15:33:49Z</time>
      </trkpt>
      <trkpt lat="43.44406" lon="1.55765">
        <ele>247</ele>
        <time>2013-08-25T15:33:50Z</time>
      </trkpt>
      <trkpt lat="43.44414" lon="1.55774">
        <ele>247</ele>
        <time>2013-08-25T15:33:52Z</time>
      </trkpt>
      <trkpt lat="43.44419" lon="1.55778">
        <ele>246</ele>
        <time>2013-08-25T15:33:53Z</time>
      </trkpt>
      <trkpt lat="43.44428" lon="1.5579">
        <ele>246</ele>
        <time>2013-08-25T15:33:55Z</time>
      </trkpt>
      <trkpt lat="43.44433" lon="1.55794">
        <ele>246</ele>
        <time>2013-08-25T15:33:56Z</time>
      </trkpt>
      <trkpt lat="43.44437" lon="1.55796">
        <ele>246</ele>
        <time>2013-08-25T15:33:57Z</time>
      </trkpt>
      <trkpt lat="43.4444" lon="1.55796">
        <ele>246</ele>
        <time>2013-08-25T15:33:58Z</time>
      </trkpt>
      <trkpt lat="43.44443" lon="1.55796">
        <ele>246</ele>
        <time>2013-08-25T15:33:59Z</time>
      </trkpt>
      <trkpt lat="43.44445" lon="1.55795">
        <ele>246</ele>
        <time>2013-08-25T15:34:00Z</time>
      </trkpt>
      <trkpt lat="43.44447" lon="1.55794">
        <ele>246</ele>
        <time>2013-08-25T15:34:01Z</time>
      </trkpt>
      <trkpt lat="43.44448" lon="1.55793">
        <ele>246</ele>
        <time>2013-08-25T15:34:02Z</time>
      </trkpt>
      <trkpt lat="43.4445" lon="1.55793">
        <ele>246</ele>
        <time>2013-08-25T15:34:03Z</time>
      </trkpt>
      <trkpt lat="43.44451" lon="1.55792">
        <ele>246</ele>
        <time>2013-08-25T15:34:04Z</time>
      </trkpt>
      <trkpt lat="43.44452" lon="1.55791">
        <ele>246</ele>
        <time>2013-08-25T15:34:05Z</time>
      </trkpt>
      <trkpt lat="43.44452" lon="1.5579">
        <ele>246</ele>
        <time>2013-08-25T15:34:06Z</time>
      </trkpt>
      <trkpt lat="43.44451" lon="1.55789">
        <ele>246</ele>
        <time>2013-08-25T15:34:07Z</time>
      </trkpt>
      <trkpt lat="43.4445" lon="1.55789">
        <ele>246</ele>
        <time>2013-08-25T15:34:08Z</time>
      </trkpt>
      <trkpt lat="43.44449" lon="1.5579">
        <ele>246</ele>
        <time>2013-08-25T15:34:09Z</time>
      </trkpt>
      <trkpt lat="43.44448" lon="1.55791">
        <ele>246</ele>
        <time>2013-08-25T15:34:10Z</time>
      </trkpt>
      <trkpt lat="43.44447" lon="1.55793">
        <ele>246</ele>
        <time>2013-08-25T15:34:11Z</time>
      </trkpt>
      <trkpt lat="43.44446" lon="1.55794">
        <ele>246</ele>
        <time>2013-08-25T15:34:12Z</time>
      </trkpt>
      <trkpt lat="43.44442" lon="1.55796">
        <ele>246</ele>
        <time>2013-08-25T15:34:14Z</time>
      </trkpt>
      <trkpt lat="43.4444" lon="1.55797">
        <ele>246</ele>
        <time>2013-08-25T15:34:15Z</time>
      </trkpt>
      <trkpt lat="43.44438" lon="1.55797">
        <ele>246</ele>
        <time>2013-08-25T15:34:16Z</time>
      </trkpt>
      <trkpt lat="43.44437" lon="1.55798">
        <ele>246</ele>
        <time>2013-08-25T15:34:17Z</time>
      </trkpt>
      <trkpt lat="43.44437" lon="1.55799">
        <ele>246</ele>
        <time>2013-08-25T15:34:18Z</time>
      </trkpt>
      <trkpt lat="43.44438" lon="1.55802">
        <ele>246</ele>
        <time>2013-08-25T15:34:19Z</time>
      </trkpt>
      <trkpt lat="43.4444" lon="1.55803">
        <ele>246</ele>
        <time>2013-08-25T15:34:20Z</time>
      </trkpt>
      <trkpt lat="43.44443" lon="1.55802">
        <ele>246</ele>
        <time>2013-08-25T15:34:21Z</time>
      </trkpt>
      <trkpt lat="43.44444" lon="1.55801">
        <ele>246</ele>
        <time>2013-08-25T15:34:22Z</time>
      </trkpt>
      <trkpt lat="43.44445" lon="1.55799">
        <ele>246</ele>
        <time>2013-08-25T15:34:23Z</time>
      </trkpt>
      <trkpt lat="43.44446" lon="1.55797">
        <ele>246</ele>
        <time>2013-08-25T15:34:24Z</time>
      </trkpt>
      <trkpt lat="43.44446" lon="1.55796">
        <ele>246</ele>
        <time>2013-08-25T15:34:25Z</time>
      </trkpt>
      <trkpt lat="43.44446" lon="1.55794">
        <ele>246</ele>
        <time>2013-08-25T15:34:26Z</time>
      </trkpt>
      <trkpt lat="43.44446" lon="1.55792">
        <ele>246</ele>
        <time>2013-08-25T15:34:27Z</time>
      </trkpt>
      <trkpt lat="43.44447" lon="1.55791">
        <ele>246</ele>
        <time>2013-08-25T15:34:28Z</time>
      </trkpt>
      <trkpt lat="43.44448" lon="1.55791">
        <ele>246</ele>
        <time>2013-08-25T15:34:29Z</time>
      </trkpt>
      <trkpt lat="43.4445" lon="1.55791">
        <ele>246</ele>
        <time>2013-08-25T15:34:30Z</time>
      </trkpt>
      <trkpt lat="43.44451" lon="1.55791">
        <ele>246</ele>
        <time>2013-08-25T15:34:31Z</time>
      </trkpt>
      <trkpt lat="43.44452" lon="1.55789">
        <ele>246</ele>
        <time>2013-08-25T15:34:32Z</time>
      </trkpt>
      <trkpt lat="43.44453" lon="1.55788">
        <ele>246</ele>
        <time>2013-08-25T15:34:33Z</time>
      </trkpt>
      <trkpt lat="43.44453" lon="1.55786">
        <ele>246</ele>
        <time>2013-08-25T15:34:34Z</time>
      </trkpt>
      <trkpt lat="43.44454" lon="1.55782">
        <ele>246</ele>
        <time>2013-08-25T15:34:37Z</time>
      </trkpt>
      <trkpt lat="43.44455" lon="1.55782">
        <ele>246</ele>
        <time>2013-08-25T15:34:38Z</time>
      </trkpt>
      <trkpt lat="43.44457" lon="1.55782">
        <ele>246</ele>
        <time>2013-08-25T15:34:39Z</time>
      </trkpt>
      <trkpt lat="43.44458" lon="1.55781">
        <ele>246</ele>
        <time>2013-08-25T15:34:40Z</time>
      </trkpt>
      <trkpt lat="43.44459" lon="1.5578">
        <ele>246</ele>
        <time>2013-08-25T15:34:41Z</time>
      </trkpt>
      <trkpt lat="43.4446" lon="1.55778">
        <ele>246</ele>
        <time>2013-08-25T15:34:42Z</time>
      </trkpt>
      <trkpt lat="43.4446" lon="1.55776">
        <ele>246</ele>
        <time>2013-08-25T15:34:43Z</time>
      </trkpt>
      <trkpt lat="43.44461" lon="1.55774">
        <ele>246</ele>
        <time>2013-08-25T15:34:44Z</time>
      </trkpt>
      <trkpt lat="43.44461" lon="1.55773">
        <ele>246</ele>
        <time>2013-08-25T15:34:45Z</time>
      </trkpt>
      <trkpt lat="43.44462" lon="1.55772">
        <ele>246</ele>
        <time>2013-08-25T15:34:46Z</time>
      </trkpt>
      <trkpt lat="43.44463" lon="1.55771">
        <ele>246</ele>
        <time>2013-08-25T15:34:47Z</time>
      </trkpt>
      <trkpt lat="43.44465" lon="1.5577">
        <ele>246</ele>
        <time>2013-08-25T15:34:48Z</time>
      </trkpt>
      <trkpt lat="43.44473" lon="1.5576">
        <ele>246</ele>
        <time>2013-08-25T15:34:55Z</time>
      </trkpt>
      <trkpt lat="43.44484" lon="1.55744">
        <ele>246</ele>
        <time>2013-08-25T15:35:03Z</time>
      </trkpt>
      <trkpt lat="43.44498" lon="1.55723">
        <ele>246</ele>
        <time>2013-08-25T15:35:12Z</time>
      </trkpt>
      <trkpt lat="43.44512" lon="1.55704">
        <ele>246</ele>
        <time>2013-08-25T15:35:20Z</time>
      </trkpt>
      <trkpt lat="43.44529" lon="1.55681">
        <ele>246</ele>
        <time>2013-08-25T15:35:30Z</time>
      </trkpt>
      <trkpt lat="43.44543" lon="1.55659">
        <ele>246</ele>
        <time>2013-08-25T15:35:39Z</time>
      </trkpt>
      <trkpt lat="43.44563" lon="1.5563">
        <ele>246</ele>
        <time>2013-08-25T15:35:51Z</time>
      </trkpt>
      <trkpt lat="43.44582" lon="1.55605">
        <ele>246</ele>
        <time>2013-08-25T15:36:01Z</time>
      </trkpt>
      <trkpt lat="43.44591" lon="1.55591">
        <ele>246</ele>
        <time>2013-08-25T15:36:07Z</time>
      </trkpt>
      <trkpt lat="43.44605" lon="1.55582">
        <ele>245</ele>
        <time>2013-08-25T15:36:13Z</time>
      </trkpt>
      <trkpt lat="43.44636" lon="1.55567">
        <ele>243</ele>
        <time>2013-08-25T15:36:19Z</time>
      </trkpt>
      <trkpt lat="43.44671" lon="1.5556">
        <ele>237</ele>
        <time>2013-08-25T15:36:23Z</time>
      </trkpt>
      <trkpt lat="43.4473" lon="1.5555">
        <ele>233</ele>
        <time>2013-08-25T15:36:28Z</time>
      </trkpt>
      <trkpt lat="43.44813" lon="1.55538">
        <ele>227</ele>
        <time>2013-08-25T15:36:35Z</time>
      </trkpt>
      <trkpt lat="43.44857" lon="1.55534">
        <ele>226</ele>
        <time>2013-08-25T15:36:40Z</time>
      </trkpt>
      <trkpt lat="43.44883" lon="1.55537">
        <ele>226</ele>
        <time>2013-08-25T15:36:45Z</time>
      </trkpt>
      <trkpt lat="43.44904" lon="1.55541">
        <ele>226</ele>
        <time>2013-08-25T15:36:51Z</time>
      </trkpt>
      <trkpt lat="43.44907" lon="1.55542">
        <ele>226</ele>
        <time>2013-08-25T15:36:52Z</time>
      </trkpt>
      <trkpt lat="43.44907" lon="1.55557">
        <ele>227</ele>
        <time>2013-08-25T15:36:56Z</time>
      </trkpt>
      <trkpt lat="43.44887" lon="1.55589">
        <ele>229</ele>
        <time>2013-08-25T15:37:06Z</time>
      </trkpt>
      <trkpt lat="43.44871" lon="1.55617">
        <ele>229</ele>
        <time>2013-08-25T15:37:15Z</time>
      </trkpt>
      <trkpt lat="43.44866" lon="1.55639">
        <ele>230</ele>
        <time>2013-08-25T15:37:22Z</time>
      </trkpt>
      <trkpt lat="43.44877" lon="1.55653">
        <ele>230</ele>
        <time>2013-08-25T15:37:29Z</time>
      </trkpt>
      <trkpt lat="43.44887" lon="1.55662">
        <ele>230</ele>
        <time>2013-08-25T15:37:37Z</time>
      </trkpt>
      <trkpt lat="43.44887" lon="1.55663">
        <ele>230</ele>
        <time>2013-08-25T15:37:53Z</time>
      </trkpt>
      <trkpt lat="43.44887" lon="1.55663">
        <ele>230</ele>
        <time>2013-08-25T15:38:10Z</time>
      </trkpt>
      <trkpt lat="43.44887" lon="1.55663">
        <ele>230</ele>
        <time>2013-08-25T15:38:28Z</time>
      </trkpt>
      <trkpt lat="43.44887" lon="1.55663">
        <ele>230</ele>
        <time>2013-08-25T15:38:45Z</time>
      </trkpt>
      <trkpt lat="43.44887" lon="1.55664">
        <ele>230</ele>
        <time>2013-08-25T15:38:52Z</time>
      </trkpt>
      <trkpt lat="43.44887" lon="1.55663">
        <ele>230</ele>
        <time>2013-08-25T15:39:03Z</time>
      </trkpt>
      <trkpt lat="43.44887" lon="1.55663">
        <ele>230</ele>
        <time>2013-08-25T15:39:22Z</time>
      </trkpt>
      <trkpt lat="43.44887" lon="1.55663">
        <ele>230</ele>
        <time>2013-08-25T15:39:38Z</time>
      </trkpt>
      <trkpt lat="43.44888" lon="1.55664">
        <ele>230</ele>
        <time>2013-08-25T15:39:39Z</time>
      </trkpt>
      <trkpt lat="43.44896" lon="1.5567">
        <ele>230</ele>
        <time>2013-08-25T15:39:45Z</time>
      </trkpt>
      <trkpt lat="43.44897" lon="1.55672">
        <ele>230</ele>
        <time>2013-08-25T15:39:46Z</time>
      </trkpt>
      <trkpt lat="43.44915" lon="1.55686">
        <ele>229</ele>
        <time>2013-08-25T15:39:56Z</time>
      </trkpt>
      <trkpt lat="43.44933" lon="1.55699">
        <ele>227</ele>
        <time>2013-08-25T15:40:02Z</time>
      </trkpt>
      <trkpt lat="43.44961" lon="1.5572">
        <ele>226</ele>
        <time>2013-08-25T15:40:07Z</time>
      </trkpt>
      <trkpt lat="43.45021" lon="1.55772">
        <ele>220</ele>
        <time>2013-08-25T15:40:16Z</time>
      </trkpt>
      <trkpt lat="43.45039" lon="1.55788">
        <ele>219</ele>
        <time>2013-08-25T15:40:19Z</time>
      </trkpt>
      <trkpt lat="43.45066" lon="1.55815">
        <ele>219</ele>
        <time>2013-08-25T15:40:25Z</time>
      </trkpt>
      <trkpt lat="43.451" lon="1.55847">
        <ele>217</ele>
        <time>2013-08-25T15:40:34Z</time>
      </trkpt>
      <trkpt lat="43.45129" lon="1.55875">
        <ele>217</ele>
        <time>2013-08-25T15:40:41Z</time>
      </trkpt>
      <trkpt lat="43.45162" lon="1.55907">
        <ele>216</ele>
        <time>2013-08-25T15:40:47Z</time>
      </trkpt>
      <trkpt lat="43.45213" lon="1.55952">
        <ele>213</ele>
        <time>2013-08-25T15:40:55Z</time>
      </trkpt>
      <trkpt lat="43.45218" lon="1.55957">
        <ele>213</ele>
        <time>2013-08-25T15:40:56Z</time>
      </trkpt>
      <trkpt lat="43.45234" lon="1.55981">
        <ele>213</ele>
        <time>2013-08-25T15:41:01Z</time>
      </trkpt>
      <trkpt lat="43.45249" lon="1.56002">
        <ele>213</ele>
        <time>2013-08-25T15:41:07Z</time>
      </trkpt>
      <trkpt lat="43.45264" lon="1.55993">
        <ele>212</ele>
        <time>2013-08-25T15:41:13Z</time>
      </trkpt>
      <trkpt lat="43.45273" lon="1.55982">
        <ele>212</ele>
        <time>2013-08-25T15:41:19Z</time>
      </trkpt>
      <trkpt lat="43.45275" lon="1.55979">
        <ele>212</ele>
        <time>2013-08-25T15:41:20Z</time>
      </trkpt>
      <trkpt lat="43.45287" lon="1.55962">
        <ele>212</ele>
        <time>2013-08-25T15:41:29Z</time>
      </trkpt>
      <trkpt lat="43.453" lon="1.55939">
        <ele>212</ele>
        <time>2013-08-25T15:41:39Z</time>
      </trkpt>
      <trkpt lat="43.45314" lon="1.55916">
        <ele>211</ele>
        <time>2013-08-25T15:41:48Z</time>
      </trkpt>
      <trkpt lat="43.45331" lon="1.55886">
        <ele>211</ele>
        <time>2013-08-25T15:41:58Z</time>
      </trkpt>
      <trkpt lat="43.45344" lon="1.55857">
        <ele>209</ele>
        <time>2013-08-25T15:42:05Z</time>
      </trkpt>
      <trkpt lat="43.45361" lon="1.55815">
        <ele>208</ele>
        <time>2013-08-25T15:42:12Z</time>
      </trkpt>
      <trkpt lat="43.45376" lon="1.55761">
        <ele>207</ele>
        <time>2013-08-25T15:42:19Z</time>
      </trkpt>
      <trkpt lat="43.45388" lon="1.5572">
        <ele>204</ele>
        <time>2013-08-25T15:42:25Z</time>
      </trkpt>
      <trkpt lat="43.45392" lon="1.5571">
        <ele>204</ele>
        <time>2013-08-25T15:42:27Z</time>
      </trkpt>
      <trkpt lat="43.45394" lon="1.55705">
        <ele>204</ele>
        <time>2013-08-25T15:42:28Z</time>
      </trkpt>
      <trkpt lat="43.45398" lon="1.55701">
        <ele>204</ele>
        <time>2013-08-25T15:42:29Z</time>
      </trkpt>
      <trkpt lat="43.45402" lon="1.55698">
        <ele>203</ele>
        <time>2013-08-25T15:42:30Z</time>
      </trkpt>
      <trkpt lat="43.45406" lon="1.55696">
        <ele>203</ele>
        <time>2013-08-25T15:42:31Z</time>
      </trkpt>
      <trkpt lat="43.45412" lon="1.55695">
        <ele>203</ele>
        <time>2013-08-25T15:42:32Z</time>
      </trkpt>
      <trkpt lat="43.45417" lon="1.55695">
        <ele>202</ele>
        <time>2013-08-25T15:42:33Z</time>
      </trkpt>
      <trkpt lat="43.45424" lon="1.55696">
        <ele>202</ele>
        <time>2013-08-25T15:42:34Z</time>
      </trkpt>
      <trkpt lat="43.4543" lon="1.55698">
        <ele>202</ele>
        <time>2013-08-25T15:42:35Z</time>
      </trkpt>
      <trkpt lat="43.45436" lon="1.55701">
        <ele>202</ele>
        <time>2013-08-25T15:42:36Z</time>
      </trkpt>
      <trkpt lat="43.45476" lon="1.5573">
        <ele>201</ele>
        <time>2013-08-25T15:42:42Z</time>
      </trkpt>
      <trkpt lat="43.45529" lon="1.55771">
        <ele>199</ele>
        <time>2013-08-25T15:42:50Z</time>
      </trkpt>
      <trkpt lat="43.45562" lon="1.55787">
        <ele>198</ele>
        <time>2013-08-25T15:42:56Z</time>
      </trkpt>
      <trkpt lat="43.45567" lon="1.55788">
        <ele>198</ele>
        <time>2013-08-25T15:42:57Z</time>
      </trkpt>
      <trkpt lat="43.45572" lon="1.55788">
        <ele>198</ele>
        <time>2013-08-25T15:42:58Z</time>
      </trkpt>
      <trkpt lat="43.45581" lon="1.55787">
        <ele>197</ele>
        <time>2013-08-25T15:43:00Z</time>
      </trkpt>
      <trkpt lat="43.45596" lon="1.55783">
        <ele>194</ele>
        <time>2013-08-25T15:43:04Z</time>
      </trkpt>
      <trkpt lat="43.4563" lon="1.55779">
        <ele>193</ele>
        <time>2013-08-25T15:43:09Z</time>
      </trkpt>
      <trkpt lat="43.4566" lon="1.55775">
        <ele>192</ele>
        <time>2013-08-25T15:43:13Z</time>
      </trkpt>
      <trkpt lat="43.45667" lon="1.55775">
        <ele>188</ele>
        <time>2013-08-25T15:43:14Z</time>
      </trkpt>
      <trkpt lat="43.45688" lon="1.55775">
        <ele>187</ele>
        <time>2013-08-25T15:43:19Z</time>
      </trkpt>
      <trkpt lat="43.45698" lon="1.55783">
        <ele>187</ele>
        <time>2013-08-25T15:43:26Z</time>
      </trkpt>
      <trkpt lat="43.45706" lon="1.55787">
        <ele>186</ele>
        <time>2013-08-25T15:43:31Z</time>
      </trkpt>
      <trkpt lat="43.45728" lon="1.55792">
        <ele>185</ele>
        <time>2013-08-25T15:43:38Z</time>
      </trkpt>
      <trkpt lat="43.45753" lon="1.55798">
        <ele>181</ele>
        <time>2013-08-25T15:43:45Z</time>
      </trkpt>
      <trkpt lat="43.45783" lon="1.55802">
        <ele>181</ele>
        <time>2013-08-25T15:43:53Z</time>
      </trkpt>
      <trkpt lat="43.45793" lon="1.55802">
        <ele>180</ele>
        <time>2013-08-25T15:43:56Z</time>
      </trkpt>
      <trkpt lat="43.45806" lon="1.55804">
        <ele>180</ele>
        <time>2013-08-25T15:43:59Z</time>
      </trkpt>
      <trkpt lat="43.4584" lon="1.55806">
        <ele>177</ele>
        <time>2013-08-25T15:44:06Z</time>
      </trkpt>
      <trkpt lat="43.45879" lon="1.55805">
        <ele>176</ele>
        <time>2013-08-25T15:44:13Z</time>
      </trkpt>
      <trkpt lat="43.45931" lon="1.55803">
        <ele>173</ele>
        <time>2013-08-25T15:44:20Z</time>
      </trkpt>
      <trkpt lat="43.45959" lon="1.55803">
        <ele>173</ele>
        <time>2013-08-25T15:44:24Z</time>
      </trkpt>
      <trkpt lat="43.45983" lon="1.55798">
        <ele>173</ele>
        <time>2013-08-25T15:44:28Z</time>
      </trkpt>
      <trkpt lat="43.45987" lon="1.55795">
        <ele>173</ele>
        <time>2013-08-25T15:44:29Z</time>
      </trkpt>
      <trkpt lat="43.45991" lon="1.55791">
        <ele>173</ele>
        <time>2013-08-25T15:44:30Z</time>
      </trkpt>
      <trkpt lat="43.45994" lon="1.55788">
        <ele>173</ele>
        <time>2013-08-25T15:44:31Z</time>
      </trkpt>
      <trkpt lat="43.45995" lon="1.55783">
        <ele>173</ele>
        <time>2013-08-25T15:44:32Z</time>
      </trkpt>
      <trkpt lat="43.45995" lon="1.55779">
        <ele>173</ele>
        <time>2013-08-25T15:44:33Z</time>
      </trkpt>
      <trkpt lat="43.45996" lon="1.55774">
        <ele>173</ele>
        <time>2013-08-25T15:44:34Z</time>
      </trkpt>
      <trkpt lat="43.45992" lon="1.55746">
        <ele>173</ele>
        <time>2013-08-25T15:44:41Z</time>
      </trkpt>
      <trkpt lat="43.45989" lon="1.5573">
        <ele>173</ele>
        <time>2013-08-25T15:44:48Z</time>
      </trkpt>
      <trkpt lat="43.45989" lon="1.55729">
        <ele>174</ele>
        <time>2013-08-25T15:45:05Z</time>
      </trkpt>
      <trkpt lat="43.45986" lon="1.5571">
        <ele>174</ele>
        <time>2013-08-25T15:45:11Z</time>
      </trkpt>
      <trkpt lat="43.45976" lon="1.55661">
        <ele>175</ele>
        <time>2013-08-25T15:45:21Z</time>
      </trkpt>
      <trkpt lat="43.45959" lon="1.55609">
        <ele>175</ele>
        <time>2013-08-25T15:45:32Z</time>
      </trkpt>
      <trkpt lat="43.45945" lon="1.55569">
        <ele>175</ele>
        <time>2013-08-25T15:45:41Z</time>
      </trkpt>
      <trkpt lat="43.4593" lon="1.55524">
        <ele>175</ele>
        <time>2013-08-25T15:45:51Z</time>
      </trkpt>
      <trkpt lat="43.45916" lon="1.5548">
        <ele>175</ele>
        <time>2013-08-25T15:46:01Z</time>
      </trkpt>
      <trkpt lat="43.45909" lon="1.55433">
        <ele>176</ele>
        <time>2013-08-25T15:46:11Z</time>
      </trkpt>
      <trkpt lat="43.45913" lon="1.55409">
        <ele>176</ele>
        <time>2013-08-25T15:46:18Z</time>
      </trkpt>
      <trkpt lat="43.45923" lon="1.55386">
        <ele>179</ele>
        <time>2013-08-25T15:46:27Z</time>
      </trkpt>
      <trkpt lat="43.45931" lon="1.55367">
        <ele>180</ele>
        <time>2013-08-25T15:46:34Z</time>
      </trkpt>
      <trkpt lat="43.45939" lon="1.55339">
        <ele>180</ele>
        <time>2013-08-25T15:46:44Z</time>
      </trkpt>
      <trkpt lat="43.45936" lon="1.55317">
        <ele>184</ele>
        <time>2013-08-25T15:46:52Z</time>
      </trkpt>
      <trkpt lat="43.45928" lon="1.55294">
        <ele>186</ele>
        <time>2013-08-25T15:47:01Z</time>
      </trkpt>
      <trkpt lat="43.45927" lon="1.55292">
        <ele>186</ele>
        <time>2013-08-25T15:47:02Z</time>
      </trkpt>
      <trkpt lat="43.45919" lon="1.55277">
        <ele>187</ele>
        <time>2013-08-25T15:47:09Z</time>
      </trkpt>
      <trkpt lat="43.45911" lon="1.55263">
        <ele>186</ele>
        <time>2013-08-25T15:47:16Z</time>
      </trkpt>
      <trkpt lat="43.45906" lon="1.55253">
        <ele>186</ele>
        <time>2013-08-25T15:47:21Z</time>
      </trkpt>
      <trkpt lat="43.45905" lon="1.55252">
        <ele>186</ele>
        <time>2013-08-25T15:47:22Z</time>
      </trkpt>
      <trkpt lat="43.45904" lon="1.5525">
        <ele>186</ele>
        <time>2013-08-25T15:47:23Z</time>
      </trkpt>
      <trkpt lat="43.45894" lon="1.55237">
        <ele>190</ele>
        <time>2013-08-25T15:47:30Z</time>
      </trkpt>
      <trkpt lat="43.45883" lon="1.55224">
        <ele>191</ele>
        <time>2013-08-25T15:47:37Z</time>
      </trkpt>
      <trkpt lat="43.45877" lon="1.55213">
        <ele>192</ele>
        <time>2013-08-25T15:47:43Z</time>
      </trkpt>
      <trkpt lat="43.45874" lon="1.55207">
        <ele>192</ele>
        <time>2013-08-25T15:47:47Z</time>
      </trkpt>
      <trkpt lat="43.45873" lon="1.55205">
        <ele>192</ele>
        <time>2013-08-25T15:47:48Z</time>
      </trkpt>
      <trkpt lat="43.45872" lon="1.55203">
        <ele>192</ele>
        <time>2013-08-25T15:47:49Z</time>
      </trkpt>
      <trkpt lat="43.45861" lon="1.55187">
        <ele>192</ele>
        <time>2013-08-25T15:47:58Z</time>
      </trkpt>
      <trkpt lat="43.45848" lon="1.55168">
        <ele>192</ele>
        <time>2013-08-25T15:48:07Z</time>
      </trkpt>
      <trkpt lat="43.4584" lon="1.55152">
        <ele>195</ele>
        <time>2013-08-25T15:48:14Z</time>
      </trkpt>
      <trkpt lat="43.45831" lon="1.55133">
        <ele>195</ele>
        <time>2013-08-25T15:48:22Z</time>
      </trkpt>
      <trkpt lat="43.45824" lon="1.55115">
        <ele>196</ele>
        <time>2013-08-25T15:48:30Z</time>
      </trkpt>
      <trkpt lat="43.45819" lon="1.55107">
        <ele>196</ele>
        <time>2013-08-25T15:48:34Z</time>
      </trkpt>
      <trkpt lat="43.45819" lon="1.55105">
        <ele>196</ele>
        <time>2013-08-25T15:48:35Z</time>
      </trkpt>
      <trkpt lat="43.45818" lon="1.55103">
        <ele>196</ele>
        <time>2013-08-25T15:48:36Z</time>
      </trkpt>
      <trkpt lat="43.45817" lon="1.55101">
        <ele>196</ele>
        <time>2013-08-25T15:48:37Z</time>
      </trkpt>
      <trkpt lat="43.45816" lon="1.551">
        <ele>196</ele>
        <time>2013-08-25T15:48:38Z</time>
      </trkpt>
      <trkpt lat="43.45815" lon="1.55098">
        <ele>197</ele>
        <time>2013-08-25T15:48:39Z</time>
      </trkpt>
      <trkpt lat="43.45811" lon="1.55085">
        <ele>197</ele>
        <time>2013-08-25T15:48:46Z</time>
      </trkpt>
      <trkpt lat="43.45806" lon="1.55073">
        <ele>198</ele>
        <time>2013-08-25T15:48:53Z</time>
      </trkpt>
      <trkpt lat="43.45801" lon="1.55056">
        <ele>198</ele>
        <time>2013-08-25T15:49:01Z</time>
      </trkpt>
      <trkpt lat="43.45799" lon="1.55049">
        <ele>198</ele>
        <time>2013-08-25T15:49:04Z</time>
      </trkpt>
      <trkpt lat="43.45798" lon="1.55047">
        <ele>198</ele>
        <time>2013-08-25T15:49:05Z</time>
      </trkpt>
      <trkpt lat="43.45795" lon="1.55027">
        <ele>198</ele>
        <time>2013-08-25T15:49:14Z</time>
      </trkpt>
      <trkpt lat="43.45793" lon="1.55013">
        <ele>198</ele>
        <time>2013-08-25T15:49:21Z</time>
      </trkpt>
      <trkpt lat="43.45793" lon="1.55011">
        <ele>198</ele>
        <time>2013-08-25T15:49:22Z</time>
      </trkpt>
      <trkpt lat="43.45793" lon="1.55009">
        <ele>198</ele>
        <time>2013-08-25T15:49:23Z</time>
      </trkpt>
      <trkpt lat="43.45792" lon="1.55007">
        <ele>198</ele>
        <time>2013-08-25T15:49:24Z</time>
      </trkpt>
      <trkpt lat="43.45792" lon="1.55003">
        <ele>198</ele>
        <time>2013-08-25T15:49:31Z</time>
      </trkpt>
      <trkpt lat="43.45791" lon="1.54998">
        <ele>199</ele>
        <time>2013-08-25T15:49:41Z</time>
      </trkpt>
      <trkpt lat="43.45791" lon="1.54988">
        <ele>199</ele>
        <time>2013-08-25T15:49:48Z</time>
      </trkpt>
      <trkpt lat="43.4579" lon="1.54985">
        <ele>199</ele>
        <time>2013-08-25T15:49:50Z</time>
      </trkpt>
      <trkpt lat="43.45789" lon="1.54983">
        <ele>199</ele>
        <time>2013-08-25T15:49:51Z</time>
      </trkpt>
      <trkpt lat="43.45789" lon="1.54982">
        <ele>199</ele>
        <time>2013-08-25T15:49:52Z</time>
      </trkpt>
      <trkpt lat="43.45789" lon="1.54972">
        <ele>199</ele>
        <time>2013-08-25T15:49:58Z</time>
      </trkpt>
      <trkpt lat="43.45789" lon="1.5497">
        <ele>200</ele>
        <time>2013-08-25T15:49:59Z</time>
      </trkpt>
      <trkpt lat="43.45789" lon="1.54968">
        <ele>200</ele>
        <time>2013-08-25T15:50:00Z</time>
      </trkpt>
      <trkpt lat="43.45789" lon="1.54966">
        <ele>200</ele>
        <time>2013-08-25T15:50:01Z</time>
      </trkpt>
      <trkpt lat="43.4579" lon="1.5496">
        <ele>200</ele>
        <time>2013-08-25T15:50:05Z</time>
      </trkpt>
      <trkpt lat="43.4579" lon="1.54959">
        <ele>200</ele>
        <time>2013-08-25T15:50:06Z</time>
      </trkpt>
      <trkpt lat="43.4579" lon="1.54956">
        <ele>200</ele>
        <time>2013-08-25T15:50:08Z</time>
      </trkpt>
      <trkpt lat="43.4579" lon="1.54946">
        <ele>200</ele>
        <time>2013-08-25T15:50:15Z</time>
      </trkpt>
      <trkpt lat="43.45791" lon="1.54942">
        <ele>200</ele>
        <time>2013-08-25T15:50:22Z</time>
      </trkpt>
      <trkpt lat="43.45791" lon="1.54942">
        <ele>200</ele>
        <time>2013-08-25T15:50:36Z</time>
      </trkpt>
      <trkpt lat="43.45792" lon="1.54942">
        <ele>200</ele>
        <time>2013-08-25T15:50:52Z</time>
      </trkpt>
      <trkpt lat="43.45793" lon="1.54936">
        <ele>201</ele>
        <time>2013-08-25T15:50:57Z</time>
      </trkpt>
      <trkpt lat="43.45794" lon="1.54926">
        <ele>201</ele>
        <time>2013-08-25T15:51:04Z</time>
      </trkpt>
      <trkpt lat="43.45794" lon="1.54924">
        <ele>201</ele>
        <time>2013-08-25T15:51:12Z</time>
      </trkpt>
      <trkpt lat="43.45794" lon="1.54923">
        <ele>201</ele>
        <time>2013-08-25T15:51:22Z</time>
      </trkpt>
      <trkpt lat="43.45794" lon="1.54923">
        <ele>201</ele>
        <time>2013-08-25T15:51:37Z</time>
      </trkpt>
      <trkpt lat="43.45795" lon="1.54918">
        <ele>201</ele>
        <time>2013-08-25T15:51:47Z</time>
      </trkpt>
      <trkpt lat="43.45796" lon="1.54911">
        <ele>205</ele>
        <time>2013-08-25T15:51:52Z</time>
      </trkpt>
      <trkpt lat="43.45796" lon="1.5491">
        <ele>205</ele>
        <time>2013-08-25T15:51:53Z</time>
      </trkpt>
      <trkpt lat="43.45796" lon="1.54908">
        <ele>205</ele>
        <time>2013-08-25T15:51:54Z</time>
      </trkpt>
      <trkpt lat="43.45799" lon="1.54902">
        <ele>205</ele>
        <time>2013-08-25T15:52:00Z</time>
      </trkpt>
      <trkpt lat="43.45801" lon="1.54892">
        <ele>206</ele>
        <time>2013-08-25T15:52:09Z</time>
      </trkpt>
      <trkpt lat="43.45804" lon="1.54881">
        <ele>206</ele>
        <time>2013-08-25T15:52:19Z</time>
      </trkpt>
      <trkpt lat="43.45807" lon="1.5487">
        <ele>207</ele>
        <time>2013-08-25T15:52:29Z</time>
      </trkpt>
      <trkpt lat="43.4581" lon="1.5486">
        <ele>207</ele>
        <time>2013-08-25T15:52:37Z</time>
      </trkpt>
      <trkpt lat="43.4581" lon="1.54859">
        <ele>207</ele>
        <time>2013-08-25T15:52:38Z</time>
      </trkpt>
      <trkpt lat="43.4581" lon="1.54858">
        <ele>208</ele>
        <time>2013-08-25T15:52:39Z</time>
      </trkpt>
      <trkpt lat="43.45813" lon="1.54845">
        <ele>208</ele>
        <time>2013-08-25T15:52:49Z</time>
      </trkpt>
      <trkpt lat="43.45815" lon="1.54832">
        <ele>212</ele>
        <time>2013-08-25T15:52:59Z</time>
      </trkpt>
      <trkpt lat="43.45815" lon="1.54831">
        <ele>212</ele>
        <time>2013-08-25T15:53:00Z</time>
      </trkpt>
      <trkpt lat="43.45817" lon="1.54822">
        <ele>212</ele>
        <time>2013-08-25T15:53:07Z</time>
      </trkpt>
      <trkpt lat="43.4582" lon="1.54813">
        <ele>212</ele>
        <time>2013-08-25T15:53:15Z</time>
      </trkpt>
      <trkpt lat="43.45821" lon="1.54799">
        <ele>213</ele>
        <time>2013-08-25T15:53:26Z</time>
      </trkpt>
      <trkpt lat="43.45823" lon="1.54787">
        <ele>214</ele>
        <time>2013-08-25T15:53:36Z</time>
      </trkpt>
      <trkpt lat="43.45823" lon="1.54782">
        <ele>214</ele>
        <time>2013-08-25T15:53:43Z</time>
      </trkpt>
      <trkpt lat="43.45823" lon="1.54771">
        <ele>215</ele>
        <time>2013-08-25T15:53:52Z</time>
      </trkpt>
      <trkpt lat="43.45823" lon="1.54763">
        <ele>216</ele>
        <time>2013-08-25T15:53:58Z</time>
      </trkpt>
      <trkpt lat="43.45822" lon="1.54757">
        <ele>216</ele>
        <time>2013-08-25T15:54:02Z</time>
      </trkpt>
      <trkpt lat="43.45822" lon="1.54754">
        <ele>216</ele>
        <time>2013-08-25T15:54:04Z</time>
      </trkpt>
      <trkpt lat="43.45822" lon="1.54746">
        <ele>218</ele>
        <time>2013-08-25T15:54:10Z</time>
      </trkpt>
      <trkpt lat="43.45821" lon="1.54738">
        <ele>218</ele>
        <time>2013-08-25T15:54:16Z</time>
      </trkpt>
      <trkpt lat="43.45821" lon="1.54729">
        <ele>218</ele>
        <time>2013-08-25T15:54:22Z</time>
      </trkpt>
      <trkpt lat="43.45821" lon="1.54727">
        <ele>218</ele>
        <time>2013-08-25T15:54:24Z</time>
      </trkpt>
      <trkpt lat="43.45822" lon="1.54724">
        <ele>218</ele>
        <time>2013-08-25T15:54:26Z</time>
      </trkpt>
      <trkpt lat="43.45821" lon="1.54712">
        <ele>219</ele>
        <time>2013-08-25T15:54:36Z</time>
      </trkpt>
      <trkpt lat="43.4582" lon="1.54702">
        <ele>219</ele>
        <time>2013-08-25T15:54:44Z</time>
      </trkpt>
      <trkpt lat="43.4582" lon="1.54689">
        <ele>220</ele>
        <time>2013-08-25T15:54:54Z</time>
      </trkpt>
      <trkpt lat="43.4582" lon="1.54677">
        <ele>221</ele>
        <time>2013-08-25T15:55:02Z</time>
      </trkpt>
      <trkpt lat="43.4582" lon="1.54665">
        <ele>223</ele>
        <time>2013-08-25T15:55:10Z</time>
      </trkpt>
      <trkpt lat="43.45819" lon="1.54656">
        <ele>223</ele>
        <time>2013-08-25T15:55:18Z</time>
      </trkpt>
      <trkpt lat="43.45818" lon="1.54654">
        <ele>223</ele>
        <time>2013-08-25T15:55:25Z</time>
      </trkpt>
      <trkpt lat="43.45818" lon="1.5465">
        <ele>223</ele>
        <time>2013-08-25T15:55:36Z</time>
      </trkpt>
      <trkpt lat="43.45818" lon="1.54639">
        <ele>223</ele>
        <time>2013-08-25T15:55:43Z</time>
      </trkpt>
      <trkpt lat="43.45818" lon="1.54625">
        <ele>224</ele>
        <time>2013-08-25T15:55:52Z</time>
      </trkpt>
      <trkpt lat="43.45818" lon="1.54618">
        <ele>224</ele>
        <time>2013-08-25T15:55:57Z</time>
      </trkpt>
      <trkpt lat="43.45818" lon="1.54603">
        <ele>225</ele>
        <time>2013-08-25T15:56:07Z</time>
      </trkpt>
      <trkpt lat="43.45818" lon="1.54598">
        <ele>225</ele>
        <time>2013-08-25T15:56:10Z</time>
      </trkpt>
      <trkpt lat="43.45818" lon="1.54596">
        <ele>226</ele>
        <time>2013-08-25T15:56:11Z</time>
      </trkpt>
      <trkpt lat="43.45818" lon="1.54595">
        <ele>226</ele>
        <time>2013-08-25T15:56:12Z</time>
      </trkpt>
      <trkpt lat="43.45817" lon="1.54585">
        <ele>226</ele>
        <time>2013-08-25T15:56:18Z</time>
      </trkpt>
      <trkpt lat="43.45817" lon="1.54584">
        <ele>226</ele>
        <time>2013-08-25T15:56:19Z</time>
      </trkpt>
      <trkpt lat="43.45817" lon="1.54572">
        <ele>229</ele>
        <time>2013-08-25T15:56:27Z</time>
      </trkpt>
      <trkpt lat="43.45817" lon="1.5457">
        <ele>229</ele>
        <time>2013-08-25T15:56:29Z</time>
      </trkpt>
      <trkpt lat="43.45817" lon="1.54568">
        <ele>229</ele>
        <time>2013-08-25T15:56:30Z</time>
      </trkpt>
      <trkpt lat="43.45817" lon="1.54566">
        <ele>229</ele>
        <time>2013-08-25T15:56:31Z</time>
      </trkpt>
      <trkpt lat="43.45816" lon="1.54564">
        <ele>229</ele>
        <time>2013-08-25T15:56:32Z</time>
      </trkpt>
      <trkpt lat="43.45816" lon="1.54562">
        <ele>229</ele>
        <time>2013-08-25T15:56:33Z</time>
      </trkpt>
      <trkpt lat="43.45815" lon="1.54551">
        <ele>229</ele>
        <time>2013-08-25T15:56:41Z</time>
      </trkpt>
      <trkpt lat="43.45814" lon="1.5454">
        <ele>229</ele>
        <time>2013-08-25T15:56:48Z</time>
      </trkpt>
      <trkpt lat="43.45813" lon="1.54537">
        <ele>230</ele>
        <time>2013-08-25T15:56:55Z</time>
      </trkpt>
      <trkpt lat="43.45813" lon="1.54534">
        <ele>230</ele>
        <time>2013-08-25T15:57:07Z</time>
      </trkpt>
      <trkpt lat="43.45812" lon="1.54526">
        <ele>230</ele>
        <time>2013-08-25T15:57:12Z</time>
      </trkpt>
      <trkpt lat="43.45812" lon="1.54524">
        <ele>230</ele>
        <time>2013-08-25T15:57:13Z</time>
      </trkpt>
      <trkpt lat="43.45811" lon="1.54523">
        <ele>230</ele>
        <time>2013-08-25T15:57:14Z</time>
      </trkpt>
      <trkpt lat="43.45811" lon="1.54521">
        <ele>230</ele>
        <time>2013-08-25T15:57:15Z</time>
      </trkpt>
      <trkpt lat="43.4581" lon="1.54519">
        <ele>230</ele>
        <time>2013-08-25T15:57:16Z</time>
      </trkpt>
      <trkpt lat="43.4581" lon="1.54517">
        <ele>230</ele>
        <time>2013-08-25T15:57:17Z</time>
      </trkpt>
      <trkpt lat="43.4581" lon="1.54515">
        <ele>231</ele>
        <time>2013-08-25T15:57:18Z</time>
      </trkpt>
      <trkpt lat="43.4581" lon="1.54511">
        <ele>231</ele>
        <time>2013-08-25T15:57:26Z</time>
      </trkpt>
      <trkpt lat="43.4581" lon="1.54511">
        <ele>231</ele>
        <time>2013-08-25T15:57:33Z</time>
      </trkpt>
      <trkpt lat="43.45809" lon="1.54503">
        <ele>231</ele>
        <time>2013-08-25T15:57:41Z</time>
      </trkpt>
      <trkpt lat="43.45807" lon="1.54488">
        <ele>234</ele>
        <time>2013-08-25T15:57:49Z</time>
      </trkpt>
      <trkpt lat="43.45806" lon="1.54482">
        <ele>234</ele>
        <time>2013-08-25T15:57:52Z</time>
      </trkpt>
      <trkpt lat="43.45806" lon="1.5448">
        <ele>235</ele>
        <time>2013-08-25T15:57:53Z</time>
      </trkpt>
      <trkpt lat="43.45805" lon="1.54478">
        <ele>235</ele>
        <time>2013-08-25T15:57:54Z</time>
      </trkpt>
      <trkpt lat="43.45805" lon="1.54476">
        <ele>235</ele>
        <time>2013-08-25T15:57:55Z</time>
      </trkpt>
      <trkpt lat="43.45805" lon="1.54474">
        <ele>235</ele>
        <time>2013-08-25T15:57:56Z</time>
      </trkpt>
      <trkpt lat="43.45804" lon="1.54472">
        <ele>235</ele>
        <time>2013-08-25T15:57:57Z</time>
      </trkpt>
      <trkpt lat="43.45804" lon="1.5447">
        <ele>235</ele>
        <time>2013-08-25T15:57:58Z</time>
      </trkpt>
      <trkpt lat="43.45804" lon="1.54468">
        <ele>235</ele>
        <time>2013-08-25T15:57:59Z</time>
      </trkpt>
      <trkpt lat="43.45802" lon="1.5445">
        <ele>235</ele>
        <time>2013-08-25T15:58:08Z</time>
      </trkpt>
      <trkpt lat="43.45802" lon="1.54446">
        <ele>236</ele>
        <time>2013-08-25T15:58:10Z</time>
      </trkpt>
      <trkpt lat="43.45802" lon="1.54444">
        <ele>236</ele>
        <time>2013-08-25T15:58:11Z</time>
      </trkpt>
      <trkpt lat="43.45799" lon="1.54426">
        <ele>236</ele>
        <time>2013-08-25T15:58:20Z</time>
      </trkpt>
      <trkpt lat="43.45796" lon="1.54409">
        <ele>239</ele>
        <time>2013-08-25T15:58:28Z</time>
      </trkpt>
      <trkpt lat="43.45796" lon="1.54404">
        <ele>239</ele>
        <time>2013-08-25T15:58:30Z</time>
      </trkpt>
      <trkpt lat="43.45795" lon="1.54402">
        <ele>239</ele>
        <time>2013-08-25T15:58:31Z</time>
      </trkpt>
      <trkpt lat="43.45795" lon="1.544">
        <ele>239</ele>
        <time>2013-08-25T15:58:32Z</time>
      </trkpt>
      <trkpt lat="43.45794" lon="1.54398">
        <ele>239</ele>
        <time>2013-08-25T15:58:33Z</time>
      </trkpt>
      <trkpt lat="43.45794" lon="1.54396">
        <ele>239</ele>
        <time>2013-08-25T15:58:34Z</time>
      </trkpt>
      <trkpt lat="43.45794" lon="1.54394">
        <ele>239</ele>
        <time>2013-08-25T15:58:35Z</time>
      </trkpt>
      <trkpt lat="43.45794" lon="1.54392">
        <ele>239</ele>
        <time>2013-08-25T15:58:36Z</time>
      </trkpt>
      <trkpt lat="43.45794" lon="1.5439">
        <ele>239</ele>
        <time>2013-08-25T15:58:37Z</time>
      </trkpt>
      <trkpt lat="43.45794" lon="1.54388">
        <ele>239</ele>
        <time>2013-08-25T15:58:38Z</time>
      </trkpt>
      <trkpt lat="43.45793" lon="1.54377">
        <ele>239</ele>
        <time>2013-08-25T15:58:44Z</time>
      </trkpt>
      <trkpt lat="43.45794" lon="1.54376">
        <ele>239</ele>
        <time>2013-08-25T15:58:45Z</time>
      </trkpt>
      <trkpt lat="43.45795" lon="1.54375">
        <ele>239</ele>
        <time>2013-08-25T15:58:46Z</time>
      </trkpt>
      <trkpt lat="43.45795" lon="1.54373">
        <ele>240</ele>
        <time>2013-08-25T15:58:47Z</time>
      </trkpt>
      <trkpt lat="43.45796" lon="1.54371">
        <ele>240</ele>
        <time>2013-08-25T15:58:48Z</time>
      </trkpt>
      <trkpt lat="43.45796" lon="1.54369">
        <ele>240</ele>
        <time>2013-08-25T15:58:49Z</time>
      </trkpt>
      <trkpt lat="43.45796" lon="1.54367">
        <ele>240</ele>
        <time>2013-08-25T15:58:50Z</time>
      </trkpt>
      <trkpt lat="43.45796" lon="1.54365">
        <ele>240</ele>
        <time>2013-08-25T15:58:51Z</time>
      </trkpt>
      <trkpt lat="43.45797" lon="1.54362">
        <ele>240</ele>
        <time>2013-08-25T15:58:52Z</time>
      </trkpt>
      <trkpt lat="43.45798" lon="1.54353">
        <ele>240</ele>
        <time>2013-08-25T15:58:57Z</time>
      </trkpt>
      <trkpt lat="43.45798" lon="1.54351">
        <ele>240</ele>
        <time>2013-08-25T15:58:58Z</time>
      </trkpt>
      <trkpt lat="43.45799" lon="1.54349">
        <ele>240</ele>
        <time>2013-08-25T15:58:59Z</time>
      </trkpt>
      <trkpt lat="43.45799" lon="1.54347">
        <ele>240</ele>
        <time>2013-08-25T15:59:00Z</time>
      </trkpt>
      <trkpt lat="43.458" lon="1.54345">
        <ele>240</ele>
        <time>2013-08-25T15:59:01Z</time>
      </trkpt>
      <trkpt lat="43.458" lon="1.54343">
        <ele>240</ele>
        <time>2013-08-25T15:59:02Z</time>
      </trkpt>
      <trkpt lat="43.458" lon="1.54341">
        <ele>240</ele>
        <time>2013-08-25T15:59:03Z</time>
      </trkpt>
      <trkpt lat="43.458" lon="1.54338">
        <ele>240</ele>
        <time>2013-08-25T15:59:04Z</time>
      </trkpt>
      <trkpt lat="43.45801" lon="1.54336">
        <ele>240</ele>
        <time>2013-08-25T15:59:05Z</time>
      </trkpt>
      <trkpt lat="43.45801" lon="1.54334">
        <ele>240</ele>
        <time>2013-08-25T15:59:06Z</time>
      </trkpt>
      <trkpt lat="43.45802" lon="1.54332">
        <ele>241</ele>
        <time>2013-08-25T15:59:07Z</time>
      </trkpt>
      <trkpt lat="43.45802" lon="1.5433">
        <ele>241</ele>
        <time>2013-08-25T15:59:08Z</time>
      </trkpt>
      <trkpt lat="43.45802" lon="1.54328">
        <ele>241</ele>
        <time>2013-08-25T15:59:09Z</time>
      </trkpt>
      <trkpt lat="43.45802" lon="1.54326">
        <ele>241</ele>
        <time>2013-08-25T15:59:10Z</time>
      </trkpt>
      <trkpt lat="43.45803" lon="1.54324">
        <ele>241</ele>
        <time>2013-08-25T15:59:11Z</time>
      </trkpt>
      <trkpt lat="43.45803" lon="1.54322">
        <ele>241</ele>
        <time>2013-08-25T15:59:12Z</time>
      </trkpt>
      <trkpt lat="43.45803" lon="1.5432">
        <ele>241</ele>
        <time>2013-08-25T15:59:13Z</time>
      </trkpt>
      <trkpt lat="43.45804" lon="1.54318">
        <ele>241</ele>
        <time>2013-08-25T15:59:14Z</time>
      </trkpt>
      <trkpt lat="43.45804" lon="1.54316">
        <ele>241</ele>
        <time>2013-08-25T15:59:15Z</time>
      </trkpt>
      <trkpt lat="43.45805" lon="1.54311">
        <ele>241</ele>
        <time>2013-08-25T15:59:18Z</time>
      </trkpt>
      <trkpt lat="43.45806" lon="1.54309">
        <ele>241</ele>
        <time>2013-08-25T15:59:19Z</time>
      </trkpt>
      <trkpt lat="43.45806" lon="1.54302">
        <ele>241</ele>
        <time>2013-08-25T15:59:22Z</time>
      </trkpt>
      <trkpt lat="43.45806" lon="1.543">
        <ele>241</ele>
        <time>2013-08-25T15:59:23Z</time>
      </trkpt>
      <trkpt lat="43.45807" lon="1.54298">
        <ele>241</ele>
        <time>2013-08-25T15:59:24Z</time>
      </trkpt>
      <trkpt lat="43.45807" lon="1.54296">
        <ele>241</ele>
        <time>2013-08-25T15:59:25Z</time>
      </trkpt>
      <trkpt lat="43.45807" lon="1.54294">
        <ele>241</ele>
        <time>2013-08-25T15:59:26Z</time>
      </trkpt>
      <trkpt lat="43.45807" lon="1.54291">
        <ele>241</ele>
        <time>2013-08-25T15:59:27Z</time>
      </trkpt>
      <trkpt lat="43.45807" lon="1.54289">
        <ele>241</ele>
        <time>2013-08-25T15:59:28Z</time>
      </trkpt>
      <trkpt lat="43.45807" lon="1.54286">
        <ele>241</ele>
        <time>2013-08-25T15:59:29Z</time>
      </trkpt>
      <trkpt lat="43.45807" lon="1.54269">
        <ele>241</ele>
        <time>2013-08-25T15:59:35Z</time>
      </trkpt>
      <trkpt lat="43.45811" lon="1.54244">
        <ele>240</ele>
        <time>2013-08-25T15:59:42Z</time>
      </trkpt>
      <trkpt lat="43.45819" lon="1.54222">
        <ele>240</ele>
        <time>2013-08-25T15:59:47Z</time>
      </trkpt>
      <trkpt lat="43.45821" lon="1.54217">
        <ele>240</ele>
        <time>2013-08-25T15:59:48Z</time>
      </trkpt>
      <trkpt lat="43.45842" lon="1.54176">
        <ele>237</ele>
        <time>2013-08-25T15:59:55Z</time>
      </trkpt>
      <trkpt lat="43.45873" lon="1.5411">
        <ele>235</ele>
        <time>2013-08-25T16:00:03Z</time>
      </trkpt>
      <trkpt lat="43.45894" lon="1.54039">
        <ele>232</ele>
        <time>2013-08-25T16:00:10Z</time>
      </trkpt>
      <trkpt lat="43.45908" lon="1.53985">
        <ele>229</ele>
        <time>2013-08-25T16:00:16Z</time>
      </trkpt>
      <trkpt lat="43.45915" lon="1.5396">
        <ele>229</ele>
        <time>2013-08-25T16:00:21Z</time>
      </trkpt>
      <trkpt lat="43.45922" lon="1.5394">
        <ele>226</ele>
        <time>2013-08-25T16:00:26Z</time>
      </trkpt>
      <trkpt lat="43.45932" lon="1.53911">
        <ele>223</ele>
        <time>2013-08-25T16:00:32Z</time>
      </trkpt>
      <trkpt lat="43.45935" lon="1.539">
        <ele>223</ele>
        <time>2013-08-25T16:00:34Z</time>
      </trkpt>
      <trkpt lat="43.45943" lon="1.53884">
        <ele>223</ele>
        <time>2013-08-25T16:00:37Z</time>
      </trkpt>
      <trkpt lat="43.45948" lon="1.53872">
        <ele>223</ele>
        <time>2013-08-25T16:00:39Z</time>
      </trkpt>
      <trkpt lat="43.45959" lon="1.53836">
        <ele>222</ele>
        <time>2013-08-25T16:00:46Z</time>
      </trkpt>
      <trkpt lat="43.45971" lon="1.538">
        <ele>220</ele>
        <time>2013-08-25T16:00:53Z</time>
      </trkpt>
      <trkpt lat="43.45974" lon="1.53789">
        <ele>219</ele>
        <time>2013-08-25T16:00:55Z</time>
      </trkpt>
      <trkpt lat="43.45977" lon="1.53747">
        <ele>218</ele>
        <time>2013-08-25T16:01:03Z</time>
      </trkpt>
      <trkpt lat="43.45983" lon="1.53731">
        <ele>218</ele>
        <time>2013-08-25T16:01:07Z</time>
      </trkpt>
      <trkpt lat="43.45987" lon="1.53705">
        <ele>218</ele>
        <time>2013-08-25T16:01:12Z</time>
      </trkpt>
      <trkpt lat="43.45992" lon="1.53684">
        <ele>218</ele>
        <time>2013-08-25T16:01:17Z</time>
      </trkpt>
      <trkpt lat="43.45997" lon="1.53663">
        <ele>216</ele>
        <time>2013-08-25T16:01:24Z</time>
      </trkpt>
      <trkpt lat="43.46008" lon="1.53634">
        <ele>215</ele>
        <time>2013-08-25T16:01:31Z</time>
      </trkpt>
      <trkpt lat="43.46015" lon="1.5361">
        <ele>214</ele>
        <time>2013-08-25T16:01:37Z</time>
      </trkpt>
      <trkpt lat="43.46022" lon="1.53579">
        <ele>213</ele>
        <time>2013-08-25T16:01:44Z</time>
      </trkpt>
      <trkpt lat="43.46024" lon="1.53572">
        <ele>213</ele>
        <time>2013-08-25T16:01:50Z</time>
      </trkpt>
      <trkpt lat="43.46024" lon="1.5357">
        <ele>213</ele>
        <time>2013-08-25T16:01:57Z</time>
      </trkpt>
      <trkpt lat="43.46026" lon="1.53567">
        <ele>213</ele>
        <time>2013-08-25T16:02:04Z</time>
      </trkpt>
      <trkpt lat="43.46026" lon="1.53561">
        <ele>213</ele>
        <time>2013-08-25T16:02:11Z</time>
      </trkpt>
      <trkpt lat="43.46028" lon="1.53558">
        <ele>212</ele>
        <time>2013-08-25T16:02:16Z</time>
      </trkpt>
      <trkpt lat="43.46029" lon="1.53556">
        <ele>212</ele>
        <time>2013-08-25T16:02:26Z</time>
      </trkpt>
      <trkpt lat="43.4603" lon="1.53554">
        <ele>212</ele>
        <time>2013-08-25T16:02:30Z</time>
      </trkpt>
      <trkpt lat="43.46032" lon="1.5354">
        <ele>212</ele>
        <time>2013-08-25T16:02:37Z</time>
      </trkpt>
      <trkpt lat="43.46032" lon="1.53539">
        <ele>212</ele>
        <time>2013-08-25T16:02:38Z</time>
      </trkpt>
      <trkpt lat="43.46033" lon="1.53535">
        <ele>212</ele>
        <time>2013-08-25T16:02:40Z</time>
      </trkpt>
      <trkpt lat="43.46034" lon="1.5353">
        <ele>212</ele>
        <time>2013-08-25T16:02:46Z</time>
      </trkpt>
      <trkpt lat="43.46035" lon="1.53529">
        <ele>212</ele>
        <time>2013-08-25T16:02:55Z</time>
      </trkpt>
      <trkpt lat="43.46035" lon="1.53529">
        <ele>212</ele>
        <time>2013-08-25T16:03:07Z</time>
      </trkpt>
      <trkpt lat="43.46035" lon="1.53528">
        <ele>212</ele>
        <time>2013-08-25T16:03:19Z</time>
      </trkpt>
      <trkpt lat="43.46035" lon="1.53527">
        <ele>212</ele>
        <time>2013-08-25T16:03:34Z</time>
      </trkpt>
      <trkpt lat="43.46035" lon="1.53527">
        <ele>212</ele>
        <time>2013-08-25T16:03:53Z</time>
      </trkpt>
      <trkpt lat="43.46035" lon="1.53526">
        <ele>212</ele>
        <time>2013-08-25T16:04:02Z</time>
      </trkpt>
      <trkpt lat="43.46037" lon="1.53519">
        <ele>212</ele>
        <time>2013-08-25T16:04:08Z</time>
      </trkpt>
      <trkpt lat="43.46039" lon="1.53507">
        <ele>212</ele>
        <time>2013-08-25T16:04:15Z</time>
      </trkpt>
      <trkpt lat="43.4604" lon="1.53502">
        <ele>212</ele>
        <time>2013-08-25T16:04:17Z</time>
      </trkpt>
      <trkpt lat="43.46044" lon="1.53494">
        <ele>211</ele>
        <time>2013-08-25T16:04:24Z</time>
      </trkpt>
      <trkpt lat="43.46047" lon="1.53489">
        <ele>211</ele>
        <time>2013-08-25T16:04:28Z</time>
      </trkpt>
      <trkpt lat="43.46048" lon="1.53485">
        <ele>211</ele>
        <time>2013-08-25T16:04:36Z</time>
      </trkpt>
      <trkpt lat="43.46048" lon="1.53485">
        <ele>211</ele>
        <time>2013-08-25T16:04:47Z</time>
      </trkpt>
      <trkpt lat="43.4605" lon="1.53482">
        <ele>211</ele>
        <time>2013-08-25T16:04:56Z</time>
      </trkpt>
      <trkpt lat="43.46054" lon="1.53468">
        <ele>211</ele>
        <time>2013-08-25T16:05:04Z</time>
      </trkpt>
      <trkpt lat="43.46055" lon="1.53466">
        <ele>211</ele>
        <time>2013-08-25T16:05:05Z</time>
      </trkpt>
      <trkpt lat="43.4606" lon="1.5345">
        <ele>211</ele>
        <time>2013-08-25T16:05:13Z</time>
      </trkpt>
      <trkpt lat="43.46064" lon="1.53443">
        <ele>211</ele>
        <time>2013-08-25T16:05:18Z</time>
      </trkpt>
      <trkpt lat="43.46065" lon="1.53439">
        <ele>211</ele>
        <time>2013-08-25T16:05:20Z</time>
      </trkpt>
      <trkpt lat="43.46067" lon="1.5343">
        <ele>211</ele>
        <time>2013-08-25T16:05:25Z</time>
      </trkpt>
      <trkpt lat="43.46072" lon="1.53419">
        <ele>210</ele>
        <time>2013-08-25T16:05:31Z</time>
      </trkpt>
      <trkpt lat="43.46077" lon="1.53407">
        <ele>210</ele>
        <time>2013-08-25T16:05:36Z</time>
      </trkpt>
      <trkpt lat="43.46081" lon="1.53404">
        <ele>210</ele>
        <time>2013-08-25T16:05:39Z</time>
      </trkpt>
      <trkpt lat="43.46086" lon="1.534">
        <ele>209</ele>
        <time>2013-08-25T16:05:42Z</time>
      </trkpt>
      <trkpt lat="43.46093" lon="1.53388">
        <ele>209</ele>
        <time>2013-08-25T16:05:49Z</time>
      </trkpt>
      <trkpt lat="43.46093" lon="1.53385">
        <ele>209</ele>
        <time>2013-08-25T16:05:51Z</time>
      </trkpt>
      <trkpt lat="43.46099" lon="1.53374">
        <ele>209</ele>
        <time>2013-08-25T16:05:57Z</time>
      </trkpt>
      <trkpt lat="43.46103" lon="1.5336">
        <ele>209</ele>
        <time>2013-08-25T16:06:05Z</time>
      </trkpt>
      <trkpt lat="43.46107" lon="1.53346">
        <ele>209</ele>
        <time>2013-08-25T16:06:13Z</time>
      </trkpt>
      <trkpt lat="43.46115" lon="1.53327">
        <ele>207</ele>
        <time>2013-08-25T16:06:23Z</time>
      </trkpt>
      <trkpt lat="43.46116" lon="1.53325">
        <ele>207</ele>
        <time>2013-08-25T16:06:24Z</time>
      </trkpt>
      <trkpt lat="43.46118" lon="1.53318">
        <ele>207</ele>
        <time>2013-08-25T16:06:28Z</time>
      </trkpt>
      <trkpt lat="43.46122" lon="1.53315">
        <ele>206</ele>
        <time>2013-08-25T16:06:31Z</time>
      </trkpt>
      <trkpt lat="43.46125" lon="1.53308">
        <ele>206</ele>
        <time>2013-08-25T16:06:38Z</time>
      </trkpt>
      <trkpt lat="43.46126" lon="1.53303">
        <ele>206</ele>
        <time>2013-08-25T16:06:41Z</time>
      </trkpt>
      <trkpt lat="43.46129" lon="1.5329">
        <ele>206</ele>
        <time>2013-08-25T16:06:48Z</time>
      </trkpt>
      <trkpt lat="43.46134" lon="1.53278">
        <ele>206</ele>
        <time>2013-08-25T16:06:54Z</time>
      </trkpt>
      <trkpt lat="43.46137" lon="1.53268">
        <ele>205</ele>
        <time>2013-08-25T16:07:00Z</time>
      </trkpt>
      <trkpt lat="43.4614" lon="1.53254">
        <ele>205</ele>
        <time>2013-08-25T16:07:08Z</time>
      </trkpt>
      <trkpt lat="43.46144" lon="1.5324">
        <ele>203</ele>
        <time>2013-08-25T16:07:15Z</time>
      </trkpt>
      <trkpt lat="43.46143" lon="1.53236">
        <ele>203</ele>
        <time>2013-08-25T16:07:17Z</time>
      </trkpt>
      <trkpt lat="43.46147" lon="1.53224">
        <ele>202</ele>
        <time>2013-08-25T16:07:24Z</time>
      </trkpt>
      <trkpt lat="43.46154" lon="1.53211">
        <ele>202</ele>
        <time>2013-08-25T16:07:32Z</time>
      </trkpt>
      <trkpt lat="43.4616" lon="1.53199">
        <ele>201</ele>
        <time>2013-08-25T16:07:39Z</time>
      </trkpt>
      <trkpt lat="43.46165" lon="1.53184">
        <ele>201</ele>
        <time>2013-08-25T16:07:47Z</time>
      </trkpt>
      <trkpt lat="43.46163" lon="1.53175">
        <ele>200</ele>
        <time>2013-08-25T16:07:52Z</time>
      </trkpt>
      <trkpt lat="43.46161" lon="1.53164">
        <ele>200</ele>
        <time>2013-08-25T16:07:59Z</time>
      </trkpt>
      <trkpt lat="43.4616" lon="1.5316">
        <ele>200</ele>
        <time>2013-08-25T16:08:02Z</time>
      </trkpt>
      <trkpt lat="43.46161" lon="1.53157">
        <ele>200</ele>
        <time>2013-08-25T16:08:04Z</time>
      </trkpt>
      <trkpt lat="43.4616" lon="1.53145">
        <ele>201</ele>
        <time>2013-08-25T16:08:13Z</time>
      </trkpt>
      <trkpt lat="43.4616" lon="1.53143">
        <ele>201</ele>
        <time>2013-08-25T16:08:28Z</time>
      </trkpt>
      <trkpt lat="43.4616" lon="1.53142">
        <ele>201</ele>
        <time>2013-08-25T16:08:42Z</time>
      </trkpt>
      <trkpt lat="43.4616" lon="1.53141">
        <ele>201</ele>
        <time>2013-08-25T16:08:48Z</time>
      </trkpt>
      <trkpt lat="43.46161" lon="1.53141">
        <ele>201</ele>
        <time>2013-08-25T16:08:57Z</time>
      </trkpt>
      <trkpt lat="43.46161" lon="1.53141">
        <ele>201</ele>
        <time>2013-08-25T16:09:04Z</time>
      </trkpt>
      <trkpt lat="43.46161" lon="1.53141">
        <ele>201</ele>
        <time>2013-08-25T16:09:05Z</time>
      </trkpt>
      <trkpt lat="43.46165" lon="1.53138">
        <ele>201</ele>
        <time>2013-08-25T16:09:09Z</time>
      </trkpt>
      <trkpt lat="43.46171" lon="1.53133">
        <ele>200</ele>
        <time>2013-08-25T16:09:14Z</time>
      </trkpt>
      <trkpt lat="43.46183" lon="1.53127">
        <ele>200</ele>
        <time>2013-08-25T16:09:24Z</time>
      </trkpt>
      <trkpt lat="43.46184" lon="1.53126">
        <ele>200</ele>
        <time>2013-08-25T16:09:36Z</time>
      </trkpt>
    </trkseg>
  </trk>
  <trk>
    <name><![CDATA[Tracé actuel: 25 AOU 2013 15:47]]></name>
    <trkseg>
      <trkpt lat="43.46179" lon="1.53117">
        <ele>200</ele>
        <time>2013-08-25T16:09:59Z</time>
      </trkpt>
      <trkpt lat="43.46185" lon="1.5312">
        <ele>200</ele>
        <time>2013-08-25T16:10:13Z</time>
      </trkpt>
      <trkpt lat="43.46187" lon="1.53121">
        <ele>200</ele>
        <time>2013-08-25T16:10:15Z</time>
      </trkpt>
      <trkpt lat="43.46199" lon="1.53119">
        <ele>200</ele>
        <time>2013-08-25T16:10:25Z</time>
      </trkpt>
      <trkpt lat="43.46202" lon="1.53117">
        <ele>200</ele>
        <time>2013-08-25T16:10:32Z</time>
      </trkpt>
      <trkpt lat="43.46203" lon="1.53117">
        <ele>200</ele>
        <time>2013-08-25T16:10:39Z</time>
      </trkpt>
      <trkpt lat="43.46202" lon="1.53117">
        <ele>200</ele>
        <time>2013-08-25T16:10:47Z</time>
      </trkpt>
      <trkpt lat="43.46203" lon="1.53116">
        <ele>200</ele>
        <time>2013-08-25T16:10:54Z</time>
      </trkpt>
      <trkpt lat="43.46204" lon="1.53118">
        <ele>200</ele>
        <time>2013-08-25T16:11:01Z</time>
      </trkpt>
      <trkpt lat="43.46203" lon="1.53117">
        <ele>200</ele>
        <time>2013-08-25T16:11:08Z</time>
      </trkpt>
      <trkpt lat="43.46212" lon="1.53114">
        <ele>200</ele>
        <time>2013-08-25T16:11:15Z</time>
      </trkpt>
      <trkpt lat="43.46226" lon="1.53106">
        <ele>199</ele>
        <time>2013-08-25T16:11:21Z</time>
      </trkpt>
      <trkpt lat="43.46241" lon="1.53098">
        <ele>198</ele>
        <time>2013-08-25T16:11:28Z</time>
      </trkpt>
      <trkpt lat="43.46252" lon="1.53094">
        <ele>197</ele>
        <time>2013-08-25T16:11:33Z</time>
      </trkpt>
      <trkpt lat="43.46265" lon="1.53085">
        <ele>198</ele>
        <time>2013-08-25T16:11:36Z</time>
      </trkpt>
      <trkpt lat="43.46285" lon="1.53075">
        <ele>197</ele>
        <time>2013-08-25T16:11:39Z</time>
      </trkpt>
      <trkpt lat="43.46299" lon="1.53067">
        <ele>197</ele>
        <time>2013-08-25T16:11:41Z</time>
      </trkpt>
      <trkpt lat="43.46339" lon="1.53046">
        <ele>197</ele>
        <time>2013-08-25T16:11:47Z</time>
      </trkpt>
      <trkpt lat="43.46357" lon="1.53038">
        <ele>197</ele>
        <time>2013-08-25T16:11:50Z</time>
      </trkpt>
      <trkpt lat="43.46362" lon="1.53036">
        <ele>197</ele>
        <time>2013-08-25T16:11:51Z</time>
      </trkpt>
      <trkpt lat="43.46366" lon="1.53034">
        <ele>197</ele>
        <time>2013-08-25T16:11:52Z</time>
      </trkpt>
      <trkpt lat="43.46371" lon="1.53033">
        <ele>197</ele>
        <time>2013-08-25T16:11:53Z</time>
      </trkpt>
      <trkpt lat="43.46375" lon="1.53032">
        <ele>197</ele>
        <time>2013-08-25T16:11:54Z</time>
      </trkpt>
      <trkpt lat="43.46379" lon="1.53031">
        <ele>197</ele>
        <time>2013-08-25T16:11:55Z</time>
      </trkpt>
      <trkpt lat="43.46382" lon="1.53029">
        <ele>197</ele>
        <time>2013-08-25T16:11:56Z</time>
      </trkpt>
      <trkpt lat="43.46389" lon="1.5303">
        <ele>197</ele>
        <time>2013-08-25T16:12:00Z</time>
      </trkpt>
      <trkpt lat="43.46389" lon="1.53031">
        <ele>197</ele>
        <time>2013-08-25T16:12:01Z</time>
      </trkpt>
      <trkpt lat="43.46387" lon="1.53031">
        <ele>197</ele>
        <time>2013-08-25T16:12:02Z</time>
      </trkpt>
      <trkpt lat="43.46364" lon="1.53039">
        <ele>197</ele>
        <time>2013-08-25T16:12:10Z</time>
      </trkpt>
      <trkpt lat="43.46355" lon="1.53038">
        <ele>197</ele>
        <time>2013-08-25T16:12:17Z</time>
      </trkpt>
      <trkpt lat="43.46355" lon="1.53038">
        <ele>197</ele>
        <time>2013-08-25T16:12:24Z</time>
      </trkpt>
      <trkpt lat="43.46355" lon="1.53036">
        <ele>197</ele>
        <time>2013-08-25T16:12:36Z</time>
      </trkpt>
      <trkpt lat="43.46355" lon="1.53035">
        <ele>197</ele>
        <time>2013-08-25T16:12:51Z</time>
      </trkpt>
      <trkpt lat="43.46354" lon="1.53036">
        <ele>197</ele>
        <time>2013-08-25T16:13:04Z</time>
      </trkpt>
      <trkpt lat="43.46354" lon="1.53036">
        <ele>197</ele>
        <time>2013-08-25T16:13:18Z</time>
      </trkpt>
      <trkpt lat="43.46353" lon="1.53036">
        <ele>197</ele>
        <time>2013-08-25T16:13:28Z</time>
      </trkpt>
      <trkpt lat="43.46353" lon="1.53036">
        <ele>197</ele>
        <time>2013-08-25T16:13:29Z</time>
      </trkpt>
      <trkpt lat="43.46353" lon="1.53036">
        <ele>197</ele>
        <time>2013-08-25T16:13:34Z</time>
      </trkpt>
      <trkpt lat="43.46353" lon="1.53036">
        <ele>197</ele>
        <time>2013-08-25T16:13:42Z</time>
      </trkpt>
      <trkpt lat="43.46353" lon="1.53036">
        <ele>197</ele>
        <time>2013-08-25T16:13:53Z</time>
      </trkpt>
      <trkpt lat="43.46353" lon="1.53036">
        <ele>197</ele>
        <time>2013-08-25T16:13:57Z</time>
      </trkpt>
      <trkpt lat="43.46353" lon="1.53035">
        <ele>197</ele>
        <time>2013-08-25T16:14:03Z</time>
      </trkpt>
      <trkpt lat="43.46352" lon="1.5303">
        <ele>197</ele>
        <time>2013-08-25T16:14:11Z</time>
      </trkpt>
      <trkpt lat="43.46351" lon="1.53029">
        <ele>197</ele>
        <time>2013-08-25T16:14:12Z</time>
      </trkpt>
      <trkpt lat="43.4635" lon="1.53028">
        <ele>197</ele>
        <time>2013-08-25T16:14:15Z</time>
      </trkpt>
      <trkpt lat="43.46348" lon="1.53028">
        <ele>197</ele>
        <time>2013-08-25T16:14:16Z</time>
      </trkpt>
      <trkpt lat="43.46346" lon="1.53028">
        <ele>197</ele>
        <time>2013-08-25T16:14:17Z</time>
      </trkpt>
      <trkpt lat="43.46345" lon="1.53026">
        <ele>197</ele>
        <time>2013-08-25T16:14:18Z</time>
      </trkpt>
      <trkpt lat="43.46344" lon="1.53025">
        <ele>197</ele>
        <time>2013-08-25T16:14:19Z</time>
      </trkpt>
      <trkpt lat="43.46343" lon="1.53023">
        <ele>197</ele>
        <time>2013-08-25T16:14:20Z</time>
      </trkpt>
      <trkpt lat="43.46342" lon="1.53021">
        <ele>197</ele>
        <time>2013-08-25T16:14:21Z</time>
      </trkpt>
      <trkpt lat="43.46341" lon="1.53019">
        <ele>197</ele>
        <time>2013-08-25T16:14:22Z</time>
      </trkpt>
      <trkpt lat="43.46341" lon="1.53017">
        <ele>197</ele>
        <time>2013-08-25T16:14:23Z</time>
      </trkpt>
      <trkpt lat="43.46341" lon="1.53014">
        <ele>196</ele>
        <time>2013-08-25T16:14:24Z</time>
      </trkpt>
      <trkpt lat="43.46341" lon="1.5301">
        <ele>196</ele>
        <time>2013-08-25T16:14:25Z</time>
      </trkpt>
      <trkpt lat="43.46341" lon="1.53006">
        <ele>196</ele>
        <time>2013-08-25T16:14:26Z</time>
      </trkpt>
      <trkpt lat="43.46339" lon="1.52975">
        <ele>196</ele>
        <time>2013-08-25T16:14:34Z</time>
      </trkpt>
      <trkpt lat="43.46333" lon="1.52931">
        <ele>198</ele>
        <time>2013-08-25T16:14:42Z</time>
      </trkpt>
      <trkpt lat="43.46326" lon="1.5291">
        <ele>199</ele>
        <time>2013-08-25T16:14:47Z</time>
      </trkpt>
      <trkpt lat="43.46324" lon="1.52898">
        <ele>200</ele>
        <time>2013-08-25T16:14:54Z</time>
      </trkpt>
      <trkpt lat="43.46323" lon="1.52893">
        <ele>200</ele>
        <time>2013-08-25T16:14:59Z</time>
      </trkpt>
      <trkpt lat="43.46318" lon="1.52863">
        <ele>201</ele>
        <time>2013-08-25T16:15:05Z</time>
      </trkpt>
      <trkpt lat="43.46311" lon="1.52835">
        <ele>201</ele>
        <time>2013-08-25T16:15:11Z</time>
      </trkpt>
      <trkpt lat="43.46303" lon="1.52808">
        <ele>202</ele>
        <time>2013-08-25T16:15:18Z</time>
      </trkpt>
      <trkpt lat="43.46304" lon="1.52794">
        <ele>202</ele>
        <time>2013-08-25T16:15:25Z</time>
      </trkpt>
      <trkpt lat="43.46305" lon="1.52792">
        <ele>202</ele>
        <time>2013-08-25T16:15:26Z</time>
      </trkpt>
      <trkpt lat="43.46311" lon="1.5278">
        <ele>202</ele>
        <time>2013-08-25T16:15:33Z</time>
      </trkpt>
      <trkpt lat="43.46314" lon="1.5277">
        <ele>203</ele>
        <time>2013-08-25T16:15:37Z</time>
      </trkpt>
      <trkpt lat="43.46315" lon="1.52768">
        <ele>203</ele>
        <time>2013-08-25T16:15:38Z</time>
      </trkpt>
      <trkpt lat="43.46316" lon="1.52765">
        <ele>203</ele>
        <time>2013-08-25T16:15:39Z</time>
      </trkpt>
      <trkpt lat="43.46317" lon="1.52763">
        <ele>203</ele>
        <time>2013-08-25T16:15:40Z</time>
      </trkpt>
      <trkpt lat="43.46317" lon="1.52761">
        <ele>203</ele>
        <time>2013-08-25T16:15:41Z</time>
      </trkpt>
      <trkpt lat="43.46317" lon="1.5276">
        <ele>203</ele>
        <time>2013-08-25T16:15:42Z</time>
      </trkpt>
      <trkpt lat="43.46322" lon="1.52745">
        <ele>204</ele>
        <time>2013-08-25T16:15:49Z</time>
      </trkpt>
      <trkpt lat="43.46326" lon="1.52728">
        <ele>205</ele>
        <time>2013-08-25T16:15:56Z</time>
      </trkpt>
      <trkpt lat="43.46333" lon="1.52701">
        <ele>213</ele>
        <time>2013-08-25T16:16:06Z</time>
      </trkpt>
      <trkpt lat="43.4634" lon="1.52686">
        <ele>212</ele>
        <time>2013-08-25T16:16:14Z</time>
      </trkpt>
      <trkpt lat="43.46347" lon="1.5267">
        <ele>212</ele>
        <time>2013-08-25T16:16:23Z</time>
      </trkpt>
      <trkpt lat="43.46355" lon="1.52652">
        <ele>215</ele>
        <time>2013-08-25T16:16:32Z</time>
      </trkpt>
      <trkpt lat="43.46364" lon="1.52634">
        <ele>217</ele>
        <time>2013-08-25T16:16:40Z</time>
      </trkpt>
      <trkpt lat="43.46376" lon="1.52612">
        <ele>218</ele>
        <time>2013-08-25T16:16:52Z</time>
      </trkpt>
      <trkpt lat="43.46385" lon="1.526">
        <ele>219</ele>
        <time>2013-08-25T16:17:01Z</time>
      </trkpt>
      <trkpt lat="43.46397" lon="1.52586">
        <ele>221</ele>
        <time>2013-08-25T16:17:11Z</time>
      </trkpt>
      <trkpt lat="43.4641" lon="1.52572">
        <ele>222</ele>
        <time>2013-08-25T16:17:21Z</time>
      </trkpt>
      <trkpt lat="43.46415" lon="1.52566">
        <ele>221</ele>
        <time>2013-08-25T16:17:27Z</time>
      </trkpt>
      <trkpt lat="43.46416" lon="1.52565">
        <ele>221</ele>
        <time>2013-08-25T16:17:28Z</time>
      </trkpt>
      <trkpt lat="43.46426" lon="1.52555">
        <ele>230</ele>
        <time>2013-08-25T16:17:37Z</time>
      </trkpt>
      <trkpt lat="43.46436" lon="1.52544">
        <ele>231</ele>
        <time>2013-08-25T16:17:45Z</time>
      </trkpt>
      <trkpt lat="43.46449" lon="1.52531">
        <ele>232</ele>
        <time>2013-08-25T16:17:56Z</time>
      </trkpt>
      <trkpt lat="43.46461" lon="1.52518">
        <ele>234</ele>
        <time>2013-08-25T16:18:06Z</time>
      </trkpt>
      <trkpt lat="43.46476" lon="1.52507">
        <ele>236</ele>
        <time>2013-08-25T16:18:16Z</time>
      </trkpt>
      <trkpt lat="43.46485" lon="1.52499">
        <ele>235</ele>
        <time>2013-08-25T16:18:24Z</time>
      </trkpt>
      <trkpt lat="43.46496" lon="1.52484">
        <ele>235</ele>
        <time>2013-08-25T16:18:34Z</time>
      </trkpt>
      <trkpt lat="43.46506" lon="1.52472">
        <ele>241</ele>
        <time>2013-08-25T16:18:42Z</time>
      </trkpt>
      <trkpt lat="43.46516" lon="1.52464">
        <ele>241</ele>
        <time>2013-08-25T16:18:49Z</time>
      </trkpt>
      <trkpt lat="43.46525" lon="1.52456">
        <ele>241</ele>
        <time>2013-08-25T16:18:56Z</time>
      </trkpt>
      <trkpt lat="43.46532" lon="1.52446">
        <ele>242</ele>
        <time>2013-08-25T16:19:04Z</time>
      </trkpt>
      <trkpt lat="43.46543" lon="1.52435">
        <ele>243</ele>
        <time>2013-08-25T16:19:13Z</time>
      </trkpt>
      <trkpt lat="43.4655" lon="1.52429">
        <ele>243</ele>
        <time>2013-08-25T16:19:21Z</time>
      </trkpt>
      <trkpt lat="43.46551" lon="1.52426">
        <ele>243</ele>
        <time>2013-08-25T16:19:28Z</time>
      </trkpt>
      <trkpt lat="43.46551" lon="1.52424">
        <ele>243</ele>
        <time>2013-08-25T16:19:35Z</time>
      </trkpt>
      <trkpt lat="43.46551" lon="1.52423">
        <ele>243</ele>
        <time>2013-08-25T16:19:49Z</time>
      </trkpt>
      <trkpt lat="43.46552" lon="1.52424">
        <ele>244</ele>
        <time>2013-08-25T16:19:56Z</time>
      </trkpt>
      <trkpt lat="43.46553" lon="1.52423">
        <ele>244</ele>
        <time>2013-08-25T16:20:01Z</time>
      </trkpt>
      <trkpt lat="43.46559" lon="1.52414">
        <ele>244</ele>
        <time>2013-08-25T16:20:08Z</time>
      </trkpt>
      <trkpt lat="43.46572" lon="1.52404">
        <ele>246</ele>
        <time>2013-08-25T16:20:18Z</time>
      </trkpt>
      <trkpt lat="43.46587" lon="1.5239">
        <ele>250</ele>
        <time>2013-08-25T16:20:28Z</time>
      </trkpt>
      <trkpt lat="43.46598" lon="1.52373">
        <ele>250</ele>
        <time>2013-08-25T16:20:38Z</time>
      </trkpt>
      <trkpt lat="43.46607" lon="1.52353">
        <ele>250</ele>
        <time>2013-08-25T16:20:48Z</time>
      </trkpt>
      <trkpt lat="43.46614" lon="1.52337">
        <ele>251</ele>
        <time>2013-08-25T16:20:55Z</time>
      </trkpt>
      <trkpt lat="43.4662" lon="1.52316">
        <ele>255</ele>
        <time>2013-08-25T16:21:04Z</time>
      </trkpt>
      <trkpt lat="43.46629" lon="1.52297">
        <ele>256</ele>
        <time>2013-08-25T16:21:13Z</time>
      </trkpt>
      <trkpt lat="43.46635" lon="1.52278">
        <ele>256</ele>
        <time>2013-08-25T16:21:22Z</time>
      </trkpt>
      <trkpt lat="43.46639" lon="1.52264">
        <ele>257</ele>
        <time>2013-08-25T16:21:29Z</time>
      </trkpt>
      <trkpt lat="43.46645" lon="1.52237">
        <ele>260</ele>
        <time>2013-08-25T16:21:37Z</time>
      </trkpt>
      <trkpt lat="43.46651" lon="1.52215">
        <ele>261</ele>
        <time>2013-08-25T16:21:44Z</time>
      </trkpt>
      <trkpt lat="43.46659" lon="1.52186">
        <ele>263</ele>
        <time>2013-08-25T16:21:54Z</time>
      </trkpt>
      <trkpt lat="43.46667" lon="1.52159">
        <ele>267</ele>
        <time>2013-08-25T16:22:03Z</time>
      </trkpt>
      <trkpt lat="43.46673" lon="1.52138">
        <ele>266</ele>
        <time>2013-08-25T16:22:10Z</time>
      </trkpt>
      <trkpt lat="43.46678" lon="1.52116">
        <ele>267</ele>
        <time>2013-08-25T16:22:17Z</time>
      </trkpt>
      <trkpt lat="43.46686" lon="1.52091">
        <ele>268</ele>
        <time>2013-08-25T16:22:25Z</time>
      </trkpt>
      <trkpt lat="43.46693" lon="1.52067">
        <ele>269</ele>
        <time>2013-08-25T16:22:33Z</time>
      </trkpt>
      <trkpt lat="43.46699" lon="1.52045">
        <ele>269</ele>
        <time>2013-08-25T16:22:41Z</time>
      </trkpt>
      <trkpt lat="43.46706" lon="1.5202">
        <ele>270</ele>
        <time>2013-08-25T16:22:50Z</time>
      </trkpt>
      <trkpt lat="43.46711" lon="1.52005">
        <ele>270</ele>
        <time>2013-08-25T16:22:56Z</time>
      </trkpt>
      <trkpt lat="43.46717" lon="1.51986">
        <ele>271</ele>
        <time>2013-08-25T16:23:04Z</time>
      </trkpt>
      <trkpt lat="43.46722" lon="1.51969">
        <ele>271</ele>
        <time>2013-08-25T16:23:11Z</time>
      </trkpt>
      <trkpt lat="43.46723" lon="1.51967">
        <ele>271</ele>
        <time>2013-08-25T16:23:12Z</time>
      </trkpt>
      <trkpt lat="43.46725" lon="1.51965">
        <ele>272</ele>
        <time>2013-08-25T16:23:13Z</time>
      </trkpt>
      <trkpt lat="43.46726" lon="1.51963">
        <ele>272</ele>
        <time>2013-08-25T16:23:14Z</time>
      </trkpt>
      <trkpt lat="43.46735" lon="1.51943">
        <ele>272</ele>
        <time>2013-08-25T16:23:21Z</time>
      </trkpt>
      <trkpt lat="43.46744" lon="1.5193">
        <ele>273</ele>
        <time>2013-08-25T16:23:27Z</time>
      </trkpt>
      <trkpt lat="43.46754" lon="1.51917">
        <ele>273</ele>
        <time>2013-08-25T16:23:32Z</time>
      </trkpt>
      <trkpt lat="43.46775" lon="1.51889">
        <ele>272</ele>
        <time>2013-08-25T16:23:41Z</time>
      </trkpt>
      <trkpt lat="43.46795" lon="1.51865">
        <ele>272</ele>
        <time>2013-08-25T16:23:48Z</time>
      </trkpt>
      <trkpt lat="43.4683" lon="1.51813">
        <ele>271</ele>
        <time>2013-08-25T16:23:58Z</time>
      </trkpt>
      <trkpt lat="43.46841" lon="1.51796">
        <ele>270</ele>
        <time>2013-08-25T16:24:01Z</time>
      </trkpt>
      <trkpt lat="43.46867" lon="1.51741">
        <ele>268</ele>
        <time>2013-08-25T16:24:10Z</time>
      </trkpt>
      <trkpt lat="43.46887" lon="1.51684">
        <ele>266</ele>
        <time>2013-08-25T16:24:18Z</time>
      </trkpt>
      <trkpt lat="43.4691" lon="1.51615">
        <ele>263</ele>
        <time>2013-08-25T16:24:27Z</time>
      </trkpt>
      <trkpt lat="43.46923" lon="1.51571">
        <ele>262</ele>
        <time>2013-08-25T16:24:33Z</time>
      </trkpt>
      <trkpt lat="43.46922" lon="1.51566">
        <ele>262</ele>
        <time>2013-08-25T16:24:34Z</time>
      </trkpt>
      <trkpt lat="43.4692" lon="1.5156">
        <ele>261</ele>
        <time>2013-08-25T16:24:35Z</time>
      </trkpt>
      <trkpt lat="43.46917" lon="1.51555">
        <ele>261</ele>
        <time>2013-08-25T16:24:36Z</time>
      </trkpt>
      <trkpt lat="43.46914" lon="1.51551">
        <ele>261</ele>
        <time>2013-08-25T16:24:37Z</time>
      </trkpt>
      <trkpt lat="43.4691" lon="1.51547">
        <ele>261</ele>
        <time>2013-08-25T16:24:38Z</time>
      </trkpt>
      <trkpt lat="43.46906" lon="1.51545">
        <ele>261</ele>
        <time>2013-08-25T16:24:39Z</time>
      </trkpt>
      <trkpt lat="43.46902" lon="1.51542">
        <ele>261</ele>
        <time>2013-08-25T16:24:40Z</time>
      </trkpt>
      <trkpt lat="43.46898" lon="1.5154">
        <ele>261</ele>
        <time>2013-08-25T16:24:41Z</time>
      </trkpt>
      <trkpt lat="43.46855" lon="1.51525">
        <ele>260</ele>
        <time>2013-08-25T16:24:50Z</time>
      </trkpt>
      <trkpt lat="43.46844" lon="1.51521">
        <ele>260</ele>
        <time>2013-08-25T16:24:52Z</time>
      </trkpt>
      <trkpt lat="43.46821" lon="1.51516">
        <ele>258</ele>
        <time>2013-08-25T16:24:56Z</time>
      </trkpt>
      <trkpt lat="43.46814" lon="1.51517">
        <ele>258</ele>
        <time>2013-08-25T16:24:57Z</time>
      </trkpt>
      <trkpt lat="43.46808" lon="1.51518">
        <ele>258</ele>
        <time>2013-08-25T16:24:58Z</time>
      </trkpt>
      <trkpt lat="43.46802" lon="1.5152">
        <ele>257</ele>
        <time>2013-08-25T16:24:59Z</time>
      </trkpt>
      <trkpt lat="43.46796" lon="1.51523">
        <ele>257</ele>
        <time>2013-08-25T16:25:00Z</time>
      </trkpt>
      <trkpt lat="43.4679" lon="1.51527">
        <ele>257</ele>
        <time>2013-08-25T16:25:01Z</time>
      </trkpt>
      <trkpt lat="43.46784" lon="1.51532">
        <ele>257</ele>
        <time>2013-08-25T16:25:02Z</time>
      </trkpt>
      <trkpt lat="43.46778" lon="1.51537">
        <ele>257</ele>
        <time>2013-08-25T16:25:03Z</time>
      </trkpt>
      <trkpt lat="43.46773" lon="1.51544">
        <ele>257</ele>
        <time>2013-08-25T16:25:04Z</time>
      </trkpt>
      <trkpt lat="43.46767" lon="1.51551">
        <ele>257</ele>
        <time>2013-08-25T16:25:05Z</time>
      </trkpt>
      <trkpt lat="43.46723" lon="1.51611">
        <ele>254</ele>
        <time>2013-08-25T16:25:13Z</time>
      </trkpt>
      <trkpt lat="43.46688" lon="1.51666">
        <ele>253</ele>
        <time>2013-08-25T16:25:20Z</time>
      </trkpt>
      <trkpt lat="43.46657" lon="1.51711">
        <ele>255</ele>
        <time>2013-08-25T16:25:27Z</time>
      </trkpt>
      <trkpt lat="43.46654" lon="1.51714">
        <ele>255</ele>
        <time>2013-08-25T16:25:28Z</time>
      </trkpt>
      <trkpt lat="43.46651" lon="1.51715">
        <ele>255</ele>
        <time>2013-08-25T16:25:29Z</time>
      </trkpt>
      <trkpt lat="43.46649" lon="1.51713">
        <ele>255</ele>
        <time>2013-08-25T16:25:30Z</time>
      </trkpt>
      <trkpt lat="43.46648" lon="1.51707">
        <ele>255</ele>
        <time>2013-08-25T16:25:31Z</time>
      </trkpt>
      <trkpt lat="43.46649" lon="1.517">
        <ele>254</ele>
        <time>2013-08-25T16:25:32Z</time>
      </trkpt>
      <trkpt lat="43.4665" lon="1.51691">
        <ele>254</ele>
        <time>2013-08-25T16:25:33Z</time>
      </trkpt>
      <trkpt lat="43.46666" lon="1.51616">
        <ele>249</ele>
        <time>2013-08-25T16:25:41Z</time>
      </trkpt>
      <trkpt lat="43.46688" lon="1.51513">
        <ele>246</ele>
        <time>2013-08-25T16:25:51Z</time>
      </trkpt>
      <trkpt lat="43.46709" lon="1.51418">
        <ele>242</ele>
        <time>2013-08-25T16:26:00Z</time>
      </trkpt>
      <trkpt lat="43.46729" lon="1.51362">
        <ele>237</ele>
        <time>2013-08-25T16:26:07Z</time>
      </trkpt>
      <trkpt lat="43.46753" lon="1.51313">
        <ele>236</ele>
        <time>2013-08-25T16:26:13Z</time>
      </trkpt>
      <trkpt lat="43.46777" lon="1.51263">
        <ele>236</ele>
        <time>2013-08-25T16:26:19Z</time>
      </trkpt>
      <trkpt lat="43.46806" lon="1.51207">
        <ele>235</ele>
        <time>2013-08-25T16:26:26Z</time>
      </trkpt>
      <trkpt lat="43.46842" lon="1.51128">
        <ele>233</ele>
        <time>2013-08-25T16:26:35Z</time>
      </trkpt>
      <trkpt lat="43.4685" lon="1.51107">
        <ele>233</ele>
        <time>2013-08-25T16:26:37Z</time>
      </trkpt>
      <trkpt lat="43.46852" lon="1.51095">
        <ele>233</ele>
        <time>2013-08-25T16:26:38Z</time>
      </trkpt>
      <trkpt lat="43.46865" lon="1.5103">
        <ele>230</ele>
        <time>2013-08-25T16:26:43Z</time>
      </trkpt>
      <trkpt lat="43.46887" lon="1.50965">
        <ele>227</ele>
        <time>2013-08-25T16:26:49Z</time>
      </trkpt>
      <trkpt lat="43.4689" lon="1.50956">
        <ele>227</ele>
        <time>2013-08-25T16:26:50Z</time>
      </trkpt>
      <trkpt lat="43.46913" lon="1.50891">
        <ele>228</ele>
        <time>2013-08-25T16:26:57Z</time>
      </trkpt>
      <trkpt lat="43.46917" lon="1.50881">
        <ele>228</ele>
        <time>2013-08-25T16:26:58Z</time>
      </trkpt>
      <trkpt lat="43.46948" lon="1.50816">
        <ele>230</ele>
        <time>2013-08-25T16:27:05Z</time>
      </trkpt>
      <trkpt lat="43.4696" lon="1.50788">
        <ele>229</ele>
        <time>2013-08-25T16:27:08Z</time>
      </trkpt>
      <trkpt lat="43.46981" lon="1.50721">
        <ele>229</ele>
        <time>2013-08-25T16:27:15Z</time>
      </trkpt>
      <trkpt lat="43.47008" lon="1.50658">
        <ele>227</ele>
        <time>2013-08-25T16:27:23Z</time>
      </trkpt>
      <trkpt lat="43.47034" lon="1.5059">
        <ele>226</ele>
        <time>2013-08-25T16:27:31Z</time>
      </trkpt>
      <trkpt lat="43.47043" lon="1.50561">
        <ele>224</ele>
        <time>2013-08-25T16:27:34Z</time>
      </trkpt>
      <trkpt lat="43.47053" lon="1.50503">
        <ele>222</ele>
        <time>2013-08-25T16:27:40Z</time>
      </trkpt>
      <trkpt lat="43.47065" lon="1.50438">
        <ele>220</ele>
        <time>2013-08-25T16:27:47Z</time>
      </trkpt>
      <trkpt lat="43.47082" lon="1.50364">
        <ele>221</ele>
        <time>2013-08-25T16:27:55Z</time>
      </trkpt>
      <trkpt lat="43.47097" lon="1.50302">
        <ele>220</ele>
        <time>2013-08-25T16:28:02Z</time>
      </trkpt>
      <trkpt lat="43.47098" lon="1.50284">
        <ele>220</ele>
        <time>2013-08-25T16:28:04Z</time>
      </trkpt>
      <trkpt lat="43.47097" lon="1.50275">
        <ele>220</ele>
        <time>2013-08-25T16:28:05Z</time>
      </trkpt>
      <trkpt lat="43.47096" lon="1.50266">
        <ele>219</ele>
        <time>2013-08-25T16:28:06Z</time>
      </trkpt>
      <trkpt lat="43.47089" lon="1.50204">
        <ele>220</ele>
        <time>2013-08-25T16:28:13Z</time>
      </trkpt>
      <trkpt lat="43.47089" lon="1.50131">
        <ele>220</ele>
        <time>2013-08-25T16:28:21Z</time>
      </trkpt>
      <trkpt lat="43.47088" lon="1.50046">
        <ele>218</ele>
        <time>2013-08-25T16:28:31Z</time>
      </trkpt>
      <trkpt lat="43.47088" lon="1.49993">
        <ele>214</ele>
        <time>2013-08-25T16:28:38Z</time>
      </trkpt>
      <trkpt lat="43.47088" lon="1.49987">
        <ele>215</ele>
        <time>2013-08-25T16:28:39Z</time>
      </trkpt>
      <trkpt lat="43.47087" lon="1.49982">
        <ele>215</ele>
        <time>2013-08-25T16:28:40Z</time>
      </trkpt>
      <trkpt lat="43.47085" lon="1.49978">
        <ele>215</ele>
        <time>2013-08-25T16:28:41Z</time>
      </trkpt>
      <trkpt lat="43.47083" lon="1.49975">
        <ele>213</ele>
        <time>2013-08-25T16:28:42Z</time>
      </trkpt>
      <trkpt lat="43.4708" lon="1.49971">
        <ele>213</ele>
        <time>2013-08-25T16:28:43Z</time>
      </trkpt>
      <trkpt lat="43.47076" lon="1.49969">
        <ele>213</ele>
        <time>2013-08-25T16:28:44Z</time>
      </trkpt>
      <trkpt lat="43.47073" lon="1.49966">
        <ele>213</ele>
        <time>2013-08-25T16:28:45Z</time>
      </trkpt>
      <trkpt lat="43.4707" lon="1.49962">
        <ele>213</ele>
        <time>2013-08-25T16:28:46Z</time>
      </trkpt>
      <trkpt lat="43.47068" lon="1.49958">
        <ele>213</ele>
        <time>2013-08-25T16:28:47Z</time>
      </trkpt>
      <trkpt lat="43.47067" lon="1.49952">
        <ele>213</ele>
        <time>2013-08-25T16:28:48Z</time>
      </trkpt>
      <trkpt lat="43.47067" lon="1.49947">
        <ele>212</ele>
        <time>2013-08-25T16:28:49Z</time>
      </trkpt>
      <trkpt lat="43.47067" lon="1.49935">
        <ele>212</ele>
        <time>2013-08-25T16:28:51Z</time>
      </trkpt>
      <trkpt lat="43.47067" lon="1.49923">
        <ele>212</ele>
        <time>2013-08-25T16:28:53Z</time>
      </trkpt>
      <trkpt lat="43.47067" lon="1.49916">
        <ele>211</ele>
        <time>2013-08-25T16:28:54Z</time>
      </trkpt>
      <trkpt lat="43.47067" lon="1.49875">
        <ele>211</ele>
        <time>2013-08-25T16:29:00Z</time>
      </trkpt>
      <trkpt lat="43.47068" lon="1.49869">
        <ele>211</ele>
        <time>2013-08-25T16:29:01Z</time>
      </trkpt>
      <trkpt lat="43.4707" lon="1.49809">
        <ele>211</ele>
        <time>2013-08-25T16:29:09Z</time>
      </trkpt>
      <trkpt lat="43.47073" lon="1.4975">
        <ele>209</ele>
        <time>2013-08-25T16:29:16Z</time>
      </trkpt>
      <trkpt lat="43.47076" lon="1.49694">
        <ele>209</ele>
        <time>2013-08-25T16:29:23Z</time>
      </trkpt>
      <trkpt lat="43.47077" lon="1.49686">
        <ele>209</ele>
        <time>2013-08-25T16:29:24Z</time>
      </trkpt>
      <trkpt lat="43.4708" lon="1.4967">
        <ele>207</ele>
        <time>2013-08-25T16:29:26Z</time>
      </trkpt>
      <trkpt lat="43.4708" lon="1.49662">
        <ele>207</ele>
        <time>2013-08-25T16:29:27Z</time>
      </trkpt>
      <trkpt lat="43.47081" lon="1.49647">
        <ele>209</ele>
        <time>2013-08-25T16:29:29Z</time>
      </trkpt>
      <trkpt lat="43.47081" lon="1.49641">
        <ele>209</ele>
        <time>2013-08-25T16:29:30Z</time>
      </trkpt>
      <trkpt lat="43.47083" lon="1.49628">
        <ele>210</ele>
        <time>2013-08-25T16:29:32Z</time>
      </trkpt>
      <trkpt lat="43.47086" lon="1.49601">
        <ele>209</ele>
        <time>2013-08-25T16:29:36Z</time>
      </trkpt>
      <trkpt lat="43.47088" lon="1.49594">
        <ele>208</ele>
        <time>2013-08-25T16:29:37Z</time>
      </trkpt>
      <trkpt lat="43.47089" lon="1.49587">
        <ele>208</ele>
        <time>2013-08-25T16:29:38Z</time>
      </trkpt>
      <trkpt lat="43.4709" lon="1.49581">
        <ele>208</ele>
        <time>2013-08-25T16:29:39Z</time>
      </trkpt>
      <trkpt lat="43.4709" lon="1.49575">
        <ele>208</ele>
        <time>2013-08-25T16:29:40Z</time>
      </trkpt>
      <trkpt lat="43.47092" lon="1.49555">
        <ele>209</ele>
        <time>2013-08-25T16:29:43Z</time>
      </trkpt>
      <trkpt lat="43.47096" lon="1.4954">
        <ele>209</ele>
        <time>2013-08-25T16:29:46Z</time>
      </trkpt>
      <trkpt lat="43.47098" lon="1.49538">
        <ele>209</ele>
        <time>2013-08-25T16:29:47Z</time>
      </trkpt>
      <trkpt lat="43.47099" lon="1.49535">
        <ele>209</ele>
        <time>2013-08-25T16:29:48Z</time>
      </trkpt>
      <trkpt lat="43.471" lon="1.49531">
        <ele>209</ele>
        <time>2013-08-25T16:29:49Z</time>
      </trkpt>
      <trkpt lat="43.471" lon="1.49527">
        <ele>209</ele>
        <time>2013-08-25T16:29:50Z</time>
      </trkpt>
      <trkpt lat="43.47107" lon="1.495">
        <ele>209</ele>
        <time>2013-08-25T16:29:55Z</time>
      </trkpt>
      <trkpt lat="43.47122" lon="1.49454">
        <ele>208</ele>
        <time>2013-08-25T16:30:02Z</time>
      </trkpt>
      <trkpt lat="43.47132" lon="1.49419">
        <ele>208</ele>
        <time>2013-08-25T16:30:07Z</time>
      </trkpt>
      <trkpt lat="43.47147" lon="1.49364">
        <ele>208</ele>
        <time>2013-08-25T16:30:15Z</time>
      </trkpt>
      <trkpt lat="43.47153" lon="1.49345">
        <ele>207</ele>
        <time>2013-08-25T16:30:18Z</time>
      </trkpt>
      <trkpt lat="43.47154" lon="1.49338">
        <ele>206</ele>
        <time>2013-08-25T16:30:19Z</time>
      </trkpt>
      <trkpt lat="43.47155" lon="1.49332">
        <ele>206</ele>
        <time>2013-08-25T16:30:20Z</time>
      </trkpt>
      <trkpt lat="43.47157" lon="1.49326">
        <ele>206</ele>
        <time>2013-08-25T16:30:21Z</time>
      </trkpt>
      <trkpt lat="43.47159" lon="1.4932">
        <ele>207</ele>
        <time>2013-08-25T16:30:22Z</time>
      </trkpt>
      <trkpt lat="43.47162" lon="1.49314">
        <ele>207</ele>
        <time>2013-08-25T16:30:23Z</time>
      </trkpt>
      <trkpt lat="43.4717" lon="1.49295">
        <ele>207</ele>
        <time>2013-08-25T16:30:26Z</time>
      </trkpt>
      <trkpt lat="43.47186" lon="1.49252">
        <ele>207</ele>
        <time>2013-08-25T16:30:32Z</time>
      </trkpt>
      <trkpt lat="43.47203" lon="1.492">
        <ele>206</ele>
        <time>2013-08-25T16:30:39Z</time>
      </trkpt>
      <trkpt lat="43.47218" lon="1.49147">
        <ele>205</ele>
        <time>2013-08-25T16:30:47Z</time>
      </trkpt>
      <trkpt lat="43.47222" lon="1.49123">
        <ele>205</ele>
        <time>2013-08-25T16:30:51Z</time>
      </trkpt>
      <trkpt lat="43.47224" lon="1.49117">
        <ele>205</ele>
        <time>2013-08-25T16:30:52Z</time>
      </trkpt>
      <trkpt lat="43.47228" lon="1.49112">
        <ele>205</ele>
        <time>2013-08-25T16:30:53Z</time>
      </trkpt>
      <trkpt lat="43.47232" lon="1.49108">
        <ele>205</ele>
        <time>2013-08-25T16:30:54Z</time>
      </trkpt>
      <trkpt lat="43.47237" lon="1.49106">
        <ele>205</ele>
        <time>2013-08-25T16:30:55Z</time>
      </trkpt>
      <trkpt lat="43.47241" lon="1.49106">
        <ele>205</ele>
        <time>2013-08-25T16:30:56Z</time>
      </trkpt>
      <trkpt lat="43.47244" lon="1.49108">
        <ele>205</ele>
        <time>2013-08-25T16:30:57Z</time>
      </trkpt>
      <trkpt lat="43.47247" lon="1.49112">
        <ele>205</ele>
        <time>2013-08-25T16:30:58Z</time>
      </trkpt>
      <trkpt lat="43.47249" lon="1.49116">
        <ele>205</ele>
        <time>2013-08-25T16:30:59Z</time>
      </trkpt>
      <trkpt lat="43.4725" lon="1.4912">
        <ele>207</ele>
        <time>2013-08-25T16:31:00Z</time>
      </trkpt>
      <trkpt lat="43.47252" lon="1.49123">
        <ele>207</ele>
        <time>2013-08-25T16:31:01Z</time>
      </trkpt>
      <trkpt lat="43.47254" lon="1.49127">
        <ele>207</ele>
        <time>2013-08-25T16:31:02Z</time>
      </trkpt>
      <trkpt lat="43.47256" lon="1.49131">
        <ele>207</ele>
        <time>2013-08-25T16:31:03Z</time>
      </trkpt>
      <trkpt lat="43.47258" lon="1.49134">
        <ele>207</ele>
        <time>2013-08-25T16:31:04Z</time>
      </trkpt>
      <trkpt lat="43.4726" lon="1.49137">
        <ele>207</ele>
        <time>2013-08-25T16:31:05Z</time>
      </trkpt>
      <trkpt lat="43.47268" lon="1.49156">
        <ele>207</ele>
        <time>2013-08-25T16:31:11Z</time>
      </trkpt>
      <trkpt lat="43.47278" lon="1.49174">
        <ele>209</ele>
        <time>2013-08-25T16:31:17Z</time>
      </trkpt>
      <trkpt lat="43.47288" lon="1.49191">
        <ele>210</ele>
        <time>2013-08-25T16:31:23Z</time>
      </trkpt>
      <trkpt lat="43.47297" lon="1.49209">
        <ele>211</ele>
        <time>2013-08-25T16:31:29Z</time>
      </trkpt>
      <trkpt lat="43.47308" lon="1.49225">
        <ele>212</ele>
        <time>2013-08-25T16:31:37Z</time>
      </trkpt>
      <trkpt lat="43.47317" lon="1.4924">
        <ele>214</ele>
        <time>2013-08-25T16:31:44Z</time>
      </trkpt>
      <trkpt lat="43.47325" lon="1.49255">
        <ele>217</ele>
        <time>2013-08-25T16:31:51Z</time>
      </trkpt>
      <trkpt lat="43.4733" lon="1.49263">
        <ele>217</ele>
        <time>2013-08-25T16:31:55Z</time>
      </trkpt>
      <trkpt lat="43.4733" lon="1.49266">
        <ele>217</ele>
        <time>2013-08-25T16:31:56Z</time>
      </trkpt>
      <trkpt lat="43.4733" lon="1.49267">
        <ele>217</ele>
        <time>2013-08-25T16:31:57Z</time>
      </trkpt>
      <trkpt lat="43.47331" lon="1.4927">
        <ele>217</ele>
        <time>2013-08-25T16:31:58Z</time>
      </trkpt>
      <trkpt lat="43.47332" lon="1.49272">
        <ele>217</ele>
        <time>2013-08-25T16:31:59Z</time>
      </trkpt>
      <trkpt lat="43.47332" lon="1.49275">
        <ele>218</ele>
        <time>2013-08-25T16:32:00Z</time>
      </trkpt>
      <trkpt lat="43.47336" lon="1.49291">
        <ele>223</ele>
        <time>2013-08-25T16:32:07Z</time>
      </trkpt>
      <trkpt lat="43.47338" lon="1.493">
        <ele>224</ele>
        <time>2013-08-25T16:32:11Z</time>
      </trkpt>
      <trkpt lat="43.47338" lon="1.49302">
        <ele>224</ele>
        <time>2013-08-25T16:32:12Z</time>
      </trkpt>
      <trkpt lat="43.47346" lon="1.49321">
        <ele>225</ele>
        <time>2013-08-25T16:32:20Z</time>
      </trkpt>
      <trkpt lat="43.47349" lon="1.49336">
        <ele>228</ele>
        <time>2013-08-25T16:32:27Z</time>
      </trkpt>
      <trkpt lat="43.4735" lon="1.49342">
        <ele>229</ele>
        <time>2013-08-25T16:32:30Z</time>
      </trkpt>
      <trkpt lat="43.4735" lon="1.49345">
        <ele>229</ele>
        <time>2013-08-25T16:32:31Z</time>
      </trkpt>
      <trkpt lat="43.47351" lon="1.49346">
        <ele>229</ele>
        <time>2013-08-25T16:32:32Z</time>
      </trkpt>
      <trkpt lat="43.47352" lon="1.49354">
        <ele>229</ele>
        <time>2013-08-25T16:32:35Z</time>
      </trkpt>
      <trkpt lat="43.47346" lon="1.49375">
        <ele>231</ele>
        <time>2013-08-25T16:32:44Z</time>
      </trkpt>
      <trkpt lat="43.47335" lon="1.49392">
        <ele>231</ele>
        <time>2013-08-25T16:32:53Z</time>
      </trkpt>
      <trkpt lat="43.47329" lon="1.49416">
        <ele>231</ele>
        <time>2013-08-25T16:33:02Z</time>
      </trkpt>
    </trkseg>
  </trk>
  <trk>
    <name><![CDATA[Tracé actuel: 25 AOU 2013 15:47]]></name>
    <trkseg>
    </trkseg>
  </trk>
</gpx>